     2.11           OBSERVATION DATA    G (GPS)             RINEX VERSION / TYPE
teqc 2010Oct21 OPUS Account 20111028 20:00:15UTC            PGM / RUN BY / DATE
V 1527                                                      MARKER NAME
3082                                                        MARKER NUMBER
CSMIDDLETON NGS                                             OBSERVER / AGENCY
0220269730 TRIMBLE 5700 NP 1.22 / SP 1.22                   REC # / TYPE / VERS
60041226 TRM41249.00 NONE                                   ANT # / TYPE
  -706967.9752 -5594928.0649  2969496.4454                  APPROX POSITION XYZ
        2.0010        0.0000        0.0000                  ANTENNA: DELTA H/E/N
     1     1                                                WAVELENGTH FACT L1/2
     5    L1    L2    C1    P1    P2                        # / TYPES OF OBSERV
    15                                                      LEAP SECONDS
  2011     8    26     0     0   30.0000000     GPS         TIME OF FIRST OBS
                                                            END OF HEADER
 11  8 26  0  0 30.0000000  0  9G17G09G10G12G05G02G04G25G30
 -57110219.62556 -44473346.19154  23277499.9454                   23277501.0704
 -22248548.67256 -17312760.19953  23832065.1804                   23832070.0044
 -36223760.39157 -28205467.34356  20899772.4774                   20899772.4534
 -27084945.59057 -21080324.19956  21423148.6884                   21423148.2974
 -22739227.99257 -17697048.64056  21820367.9614                   21820369.0124
 -41503581.30957 -32312119.63256  20682811.7734                   20682809.3874
 -47192967.28557 -36742331.65855  21870103.8364                   21870104.3834
  -4953430.53956  -3838268.09653  24060304.8984                   24060308.1484
  -1981985.11356  -1519113.71453  24141326.6954                   24141327.5164
 11  8 26  0  1  0.0000000  0  9G17G09G10G12G05G02G04G25G30
 -57106012.71947 -44470068.10244  23278300.5944                   23278301.9144
 -22218860.78946 -17289626.93143  23837715.0944                   23837720.0274
 -36264752.35548 -28237409.10246  20891972.0394                   20891971.8714
 -27191005.25847 -21162968.05246  21402966.3524                   21402965.6024
 -22874262.21547 -17802270.00945  21794671.7974                   21794672.3874
 -41550040.82047 -32348321.83246  20673970.9304                   20673968.4104
 -47164217.29747 -36719929.07845  21875574.6254                   21875575.0274
  -5100238.13746  -3952663.53143  24032367.8674                   24032371.4734
  -2131284.34046  -1635450.71142  24112915.4844                   24112916.0394
 11  8 26  0  1 30.0000000  0  9G17G09G10G12G05G02G04G25G30
 -57101644.94546 -44466664.68044  23279131.0554                   23279132.7424
 -22189041.27746 -17266391.12443  23843388.1804                   23843394.1844
 -36305116.79348 -28268861.88846  20884290.6564                   20884290.5704
 -27296623.26647 -21245267.74746  21382867.4694                   21382867.0434
 -23008964.62947 -17907232.82945  21769038.8984                   21769039.6024
 -41596232.46947 -32384315.30246  20665180.9614                   20665178.2704
 -47135358.04747 -36697441.37345  21881066.4064                   21881067.1414
  -5246855.49647  -4066910.72544  24004468.1644                   24004471.4614
  -2280348.35546  -1751604.42343  24084549.7034                   24084550.3634
 11  8 26  0  2  0.0000000  0  9G17G09G10G12G05G02G04G25G30
 -57097115.90647 -44463135.59444  23279993.0704                   23279994.7774
 -22159093.38746 -17243055.24643  23849088.6884                   23849093.0234
 -36344854.19548 -28299826.05846  20876728.7424                   20876728.5004
 -27401797.19547 -21327221.39846  21362853.4924                   21362852.9884
 -23143332.19547 -18011934.72845  21743469.5634                   21743470.1094
 -41642157.40247 -32420100.94746  20656441.6334                   20656439.0004
 -47106391.34047 -36674869.89945  21886578.4774                   21886579.4024
  -5393279.81247  -4181007.56543  23976604.7584                   23976607.4574
  -2429174.15246  -1867572.54843  24056228.9694                   24056229.7704
 11  8 26  0  2 30.0000000  0  9G17G09G10G12G05G02G04G25G30
 -57092425.98046 -44459481.13344  23280885.9384                   23280887.7304
 -22129021.88746 -17219623.07343  23854811.1024                   23854816.4734
 -36383966.14548 -28330302.86545  20869285.9694                   20869286.0744
 -27506526.11347 -21408828.28646  21342924.4064                   21342924.0164
 -23277363.46147 -18116374.57546  21717963.9064                   21717964.8484
 -41687817.87547 -32455680.51946  20647752.6724                   20647749.8984
 -47077320.43747 -36652217.27345  21892110.4224                   21892111.2974
  -5539509.73847  -4294952.86544  23948777.9064                   23948780.9024
  -2577760.24246  -1983353.87843  24027953.1174                   24027955.0164
 11  8 26  0  3  0.0000000  0  9G17G09G10G12G05G02G04G25G30
 -57087571.70347 -44455698.62844  23281809.3444                   23281811.2544
 -22098827.15246 -17196094.85943  23860557.0864                   23860562.5594
 -36422449.43748 -28360289.81445  20861963.2194                   20861962.9494
 -27610804.49647 -21490084.11546  21323080.8984                   21323080.5514
 -23411052.55947 -18220547.80846  21692523.6724                   21692524.7774
 -41733212.31247 -32491052.79546  20639114.3444                   20639112.0164
 -47048144.00447 -36629482.39345  21897662.1024                   21897663.6454
  -5685539.59047  -4408742.27844  23920989.3834                   23920992.5594
  -2726100.68746  -2098943.82743  23999725.8134                   23999726.6604
 11  8 26  0  3 30.0000000  0  9G17G09G10G12G05G02G04G25G30
 -57082553.69946 -44451788.52544  23282764.5704                   23282766.0004
 -22068513.43447 -17172473.98943  23866325.2114                   23866330.9144
 -36460305.69148 -28389788.16746  20854758.9844                   20854758.9144
 -27714631.79747 -21570988.48546  21303323.0944                   21303322.5274
 -23544397.81647 -18324453.09546  21667149.0164                   21667149.7114
 -41778342.79347 -32526219.39346  20630526.4454                   20630524.0124
 -47018865.31647 -36606667.85245  21903234.4924                   21903234.6094
  -5831368.00847  -4522374.75644  23893238.9224                   23893242.3634
  -2874193.84046  -2214341.05343  23971544.3364                   23971545.1954
 11  8 26  0  4  0.0000000  0  9G17G09G10G12G05G02G04G25G30
 -57077372.80547 -44447751.54244  23283750.2194                   23283752.4694
 -22038085.70746 -17148764.21444  23872114.9924                   23872121.5234
 -36497536.37148 -28418799.04146  20847674.0394                   20847674.3164
 -27818007.28947 -21651540.75346  21283651.3204                   21283650.8754
 -23677398.11347 -18428089.61545  21641839.4694                   21641840.5204
 -41823212.64148 -32561182.89446  20621987.6174                   20621985.2854
 -46989487.70347 -36583776.21545  21908824.8594                   21908825.1914
  -5976993.84847  -4635849.33944  23865527.4304                   23865530.1604
  -3022038.57046  -2329544.70343  23943411.1254                   23943411.7734
 11  8 26  0  4 30.0000000  0  9G17G09G10G12G05G02G04G25G30
 -57072027.89146 -44443586.71044  23284767.3914                   23284769.8954
 -22007546.48446 -17124967.56444  23877926.6804                   23877933.3134
 -36534141.34448 -28447322.36546  20840708.5234                   20840708.7424
 -27920927.91847 -21731738.62046  21264066.0314                   21264065.6454
 -23810050.05547 -18531454.65246  21616596.1564                   21616597.5084
 -41867821.62947 -32595943.13446  20613499.0394                   20613496.6254
 -46960012.16047 -36560808.29145  21914433.9064                   21914433.8794
  -6122413.66447  -4749163.38344  23837855.0474                   23837858.1414
  -3169631.10246  -2444551.81243  23915324.3674                   23915325.6254
 11  8 26  0  5  0.0000000  0  9G17G09G10G12G05G02G04G25G30
 -57066514.15247 -44439290.35444  23285817.0314                   23285818.6724
 -21976894.96546 -17101083.46343  23883760.6484                   23883766.1054
 -36570116.47348 -28475354.89946  20833862.7274                   20833862.7894
 -28023386.73847 -21811576.64046  21244569.0084                   21244568.5664
 -23942346.44147 -18634542.66545  21591421.5164                   21591422.1884
 -41912166.68048 -32630497.71346  20605060.3674                   20605057.9104
 -46930436.37947 -36537762.24845  21920061.3834                   21920062.5824
  -6267620.51247  -4862311.51944  23810222.3984                   23810225.7704
  -3316964.41046  -2559356.92643  23887288.7034                   23887288.8954
 11  8 26  0  5 30.0000000  0  9G17G09G10G12G05G02G04G25G30
 -57060832.23847 -44434862.92244  23286898.0864                   23286900.3204
 -21946135.68746 -17077115.38343  23889613.1024                   23889619.5744
 -36605463.26648 -28502897.82846  20827136.4224                   20827136.0784
 -28125383.30147 -21891054.45346  21225159.3914                   21225158.7814
 -24074285.66447 -18737352.36246  21566314.3834                   21566315.2194
 -41956250.17648 -32664848.47446  20596671.5164                   20596668.9454
 -46900763.02747 -36514640.15745  21925708.2814                   21925709.2274
  -6412612.84447  -4975292.49544  23782631.6804                   23782634.3834
  -3464036.69546  -2673958.64143  23859301.4144                   23859302.1564
 11  8 26  0  6  0.0000000  0  9G17G09G10G12G05G02G04G25G30
 -57054982.67647 -44430304.88644  23288011.2114                   23288013.1524
 -21915273.47346 -17053067.12343  23895486.4614                   23895492.5234
 -36640183.30548 -28529952.37445  20820529.2894                   20820529.3404
 -28226917.10248 -21970171.68646  21205838.3204                   21205838.1134
 -24205866.59847 -18839882.86946  21541275.3524                   21541275.5514
 -42000074.94548 -32698997.63946  20588332.2894                   20588329.4734
 -46870995.48047 -36491444.72045  21931372.2034                   21931373.8284
  -6557389.43747  -5088105.34944  23755081.2344                   23755084.4654
  -3610846.58646  -2788355.87643  23831363.7974                   23831365.2544
 11  8 26  0  6 30.0000000  0  9G17G09G10G12G05G02G04G25G30
 -57048966.69547 -44425617.15644  23289156.2734                   23289158.3094
 -21884313.07446 -17028942.36843  23901378.2114                   23901384.3204
 -36674278.75848 -28556520.23846  20814041.0474                   20814041.3524
 -28327987.45747 -22048927.78546  21186605.0234                   21186604.8204
 -24337087.97347 -18942133.21046  21516304.6174                   21516305.0864
 -42043643.88348 -32732947.44446  20580041.0634                   20580038.7234
 -46841137.37147 -36468178.68345  21937055.5004                   21937055.1524
  -6701949.39546  -5200749.41444  23727572.6804                   23727575.7544
  -3757392.95346  -2902547.73943  23803477.6094                   23803478.7154
 11  8 26  0  7  0.0000000  0  9G17G09G10G12G05G02G04G25G30
 -57042779.85547 -44420796.28944  23290333.6804                   23290335.5044
 -21853253.75446 -17004740.50143  23907289.1174                   23907295.1214
 -36707746.32048 -28582598.83846  20807672.2344                   20807672.3634
 -28428588.14548 -22127317.92146  21167461.4224                   21167461.2344
 -24467943.12147 -19044098.16446  21491403.4614                   21491404.5704
 -42086954.03148 -32766695.60146  20571799.3524                   20571796.6684
 -46811186.14147 -36444840.10945  21942754.3054                   21942755.2504
  -6846285.96546  -5313219.46044  23700106.1414                   23700109.2504
  -3903669.03946  -3016528.96943  23775641.5784                   23775642.9964
 11  8 26  0  7 30.0000000  0  9G17G09G10G12G05G02G04G25G30
 -57036425.14147 -44415844.63444  23291542.9384                   23291544.6844
 -21822101.92646 -16980466.49543  23913217.6804                   23913223.5044
 -36740589.28948 -28608190.73545  20801422.8134                   20801422.9224
 -28528719.87548 -22205342.63246  21148407.4774                   21148406.8364
 -24598432.52348 -19145778.14546  21466572.1644                   21466572.6564
 -42130009.34848 -32800245.19446  20563606.4454                   20563603.6884
 -46781146.59847 -36421432.71245  21948471.3914                   21948471.9184
  -6990399.29746  -5425515.53144  23672681.9304                   23672685.0664
  -4049674.82046  -3130299.64943  23747857.3674                   23747858.3634
 11  8 26  0  8  0.0000000  0  9G17G09G10G12G05G02G04G25G30
 -57029898.35546 -44410758.87744  23292784.6564                   23292787.1484
 -21790858.09846 -16956120.83743  23919162.7584                   23919168.7034
 -36772805.23448 -28633294.03946  20795292.1334                   20795292.3364
 -28628377.41448 -22282997.84746  21129442.7814                   21129442.4414
 -24728550.41047 -19247168.61946  21441811.4224                   21441812.5354
 -42172808.45348 -32833595.13246  20555462.1564                   20555459.2504
 -46751017.62147 -36397955.61345  21954203.1804                   21954204.4104
  -7134283.92647  -5537633.38244  23645301.4224                   23645304.9964
  -4195404.59046  -3243855.23443  23720125.9924                   23720126.9654
 11  8 26  0  8 30.0000000  0  9G17G09G10G12G05G02G04G25G30
 -57023200.36346 -44405539.72444  23294059.3914                   23294061.2544
 -21759526.76246 -16931706.97043  23925124.8984                   23925131.2034
 -36804395.67647 -28657909.94746  20789280.5394                   20789280.9614
 -28727560.31247 -22360283.20246  21110569.1724                   21110568.4774
 -24858295.01647 -19348268.23446  21417121.7894                   21417122.3404
 -42215353.42648 -32866747.04246  20547365.4614                   20547363.2234
 -46720802.37947 -36374411.30744  21959954.0004                   21959954.4804
  -7277938.43447  -5649571.90144  23617964.9144                   23617967.8444
  -4340856.81646  -3357194.61443  23692447.1954                   23692448.1334
 11  8 26  0  9  0.0000000  0  9G17G09G10G12G05G02G04G25G30
 -57016331.05146 -44400187.05244  23295366.3834                   23295368.7114
 -21728111.35946 -16907227.64443  23931103.1254                   23931109.2274
 -36835361.69948 -28682039.30546  20783388.1024                   20783387.9924
 -28826266.84447 -22437197.37446  21091785.6094                   21091785.1054
 -24987664.42647 -19449075.48546  21392503.9064                   21392504.5274
 -42257646.06648 -32899702.32246  20539317.8444                   20539315.3204
 -46690502.74247 -36350801.24645  21965719.4924                   21965720.5864
  -7421360.35946  -5761329.20944  23590673.0784                   23590675.7704
  -4486028.87146  -3470315.56543  23664821.7274                   23664822.0904
 11  8 26  0  9 30.0000000  0  9G17G09G10G12G05G02G04G25G30
 -57009288.95746 -44394699.74444  23296706.7894                   23296708.5704
 -21696614.16446 -16882684.59843  23937097.3914                   23937103.7624
 -36865702.50448 -28705681.46746  20777613.8984                   20777614.1764
 -28924493.72748 -22513737.79946  21073093.6954                   21073093.0354
 -25116654.72747 -19549587.33146  21367957.5944                   21367957.6644
 -42299686.44148 -32932461.04346  20531317.7344                   20531315.0984
 -46660119.42647 -36327125.98445  21971502.1094                   21971502.1524
  -7564545.91047  -5872902.32544  23563425.8834                   23563427.8284
  -4630916.92246  -3583215.28643  23637250.9924                   23637251.3244
 11  8 26  0 10  0.0000000  0  9G17G09G10G12G05G02G04G25G30
 -57002072.65246 -44389076.69044  23298080.0084                   23298082.0594
 -21665037.52746 -16858079.62143  23943106.0394                   23943111.9804
 -36895417.98448 -28728836.37845  20771959.2814                   20771959.6214
 -29022238.04348 -22589902.18546  21054493.8674                   21054493.2344
 -25245262.60247 -19649801.17946  21343484.1884                   21343484.6884
 -42341474.75448 -32965023.34346  20523365.7664                   20523363.1174
 -46629653.35947 -36303386.24045  21977299.1174                   21977300.0704
  -7707491.62947  -5984288.53344  23536224.1484                   23536227.4734
  -4775517.24246  -3695890.80843  23609734.8444                   23609735.0274
 11  8 26  0 10 30.0000000  0  9G17G09G10G12G05G02G04G25G30
 -55419262.04346 -43155717.81944  23599278.6644                   23599280.6844
 -20057966.25046 -15605816.48643  24248922.1484                   24248927.9304
 -35349088.11347 -27523903.98146  21066216.6954                   21066216.8134
 -27544075.10947 -21438086.90346  21335778.7194                   21335778.2344
 -23798061.26247 -18522111.75846  21618877.3284                   21618877.6484
 -40807591.34848 -31769789.50146  20815253.9924                   20815251.2774
 -45023687.38347 -35051984.21945  22282904.1644                   22282905.1524
  -6274770.34047  -4867882.23844  23808861.5394                   23808864.5664
  -3344402.47746  -2580736.39443  23882066.2344                   23882066.4884
 11  8 26  0 11  0.0000000  0  9G17G09G10G12G05G02G04G25G30
 -55411697.94546 -43149823.73644  23600717.9144                   23600720.1334
 -20026243.01246 -15581097.29443  24254958.4304                   24254964.8364
 -35377557.25847 -27546087.71345  21060798.8674                   21060798.4494
 -27640850.37947 -21513496.18046  21317363.0314                   21317362.6644
 -23925897.93447 -18621724.65646  21594550.7734                   21594551.3594
 -40848881.59848 -31801963.69746  20807396.6564                   20807394.4064
 -44993062.97347 -35028121.08545  22288732.3914                   22288732.8954
  -6417230.50047  -4978890.07044  23781752.4304                   23781755.1954
  -3488421.12146  -2692958.64443  23854660.6024                   23854661.1454
 11  8 26  0 11 30.0000000  0  9G17G09G10G12G05G02G04G25G30
 -55403958.97746 -43143793.42244  23602190.9774                   23602193.2934
 -19994451.02746 -15556324.48643  24261008.0554                   24261015.0984
 -35405404.03148 -27567786.48345  21055499.7734                   21055499.3984
 -27737138.32848 -21588525.73746  21299040.0394                   21299039.3164
 -24053345.22747 -18721034.18046  21570298.3444                   21570299.0634
 -40889924.38748 -31833945.07146  20799586.6094                   20799583.9184
 -44962361.66447 -35004198.04845  22294574.1804                   22294575.4024
  -6559443.77047  -5089705.52044  23754690.2034                   23754692.7544
  -3632144.47746  -2804950.82843  23827310.7974                   23827311.3524
 11  8 26  0 12  0.0000000  0  9G17G09G10G12G05G02G04G25G30
 -55396045.46146 -43137627.08044  23603696.5864                   23603698.7504
 -19962594.17246 -15531501.15343  24267071.0004                   24267077.1254
 -35432629.54348 -27589001.14746  21050318.7974                   21050318.7274
 -27832937.17648 -21663174.16146  21280810.2974                   21280809.6254
 -24180401.17247 -18820038.74846  21546120.3594                   21546120.9064
 -40930721.55148 -31865735.04646  20791823.2194                   20791820.2934
 -44931585.81247 -34980216.90145  22300430.6094                   22300431.6604
  -6701407.88347  -5200326.80944  23727675.4064                   23727678.1254
  -3775570.18446  -2916711.07643  23800018.2194                   23800018.2664
 11  8 26  0 12 30.0000000  0  9G17G09G10G12G05G02G04G25G30
 -55387958.29746 -43131325.42944  23605236.2664                   23605237.9804
 -19930677.72346 -15506631.45443  24273144.3444                   24273151.0594
 -35459236.66847 -27609733.96145  21045255.8204                   21045255.6484
 -27928247.10547 -21737441.61446  21262673.2584                   21262672.3364
 -24307064.67247 -18918737.49846  21522017.0634                   21522017.6604
 -40971276.16848 -31897336.02746  20784105.3364                   20784103.1254
 -44900738.88347 -34956180.38045  22306301.0164                   22306301.2114
  -6843122.16846  -5310753.41144  23700707.9534                   23700710.6844
  -3918697.46546  -3028238.82743  23772781.2504                   23772781.9224
 11  8 26  0 13  0.0000000  0  9G17G09G10G12G05G02G04G25G30
 -55379692.01646 -43124884.18944  23606808.9924                   23606811.0824
 -19898699.34446 -15481713.41843  24279229.4304                   24279236.4694
 -35485220.60248 -27629981.17445  21040311.0394                   21040311.0984
 -28023060.57047 -21811322.21646  21244630.9304                   21244630.3444
 -24433327.89147 -19017124.36046  21497990.2584                   21497990.4264
 -41011583.74648 -31928744.50446  20776435.4224                   20776432.7584
 -44869816.97747 -34932085.41244  22312184.6414                   22312185.9184
  -6984578.41046  -5420978.92944  23673789.3284                   23673791.9964
  -4061517.82046  -3139527.38843  23745603.7424                   23745604.5314
 11  8 26  0 13 30.0000000  0  9G17G09G10G12G05G02G04G25G30
 -55371251.37946 -43118307.07644  23608414.9614                   23608417.6604
 -19866667.95746 -15456754.15643  24285326.0634                   24285332.2194
 -35510587.68448 -27649747.70545  21035483.7194                   21035484.1764
 -28117380.87548 -21884818.52946  21226682.2424                   21226681.6564
 -24559193.50847 -19115201.38846  21474038.3834                   21474038.7114
 -41051651.06248 -31959965.76146  20768810.8054                   20768808.5124
 -44838827.54347 -34907937.86245  22318081.9774                   22318083.2854
  -7125779.33647  -5531005.50944  23646919.7424                   23646923.1024
  -4204034.10546  -3250579.02743  23718483.6954                   23718484.2704
 11  8 26  0 14  0.0000000  0  9G17G09G10G12G05G02G04G25G30
 -55362633.50446 -43111591.93044  23610054.6884                   23610056.8134
 -19834583.96546 -15431753.91043  24291431.1564                   24291437.5004
 -35535336.28947 -27669032.32546  21030774.5864                   21030774.1564
 -28211203.22347 -21957926.82546  21208828.1484                   21208827.5944
 -24684656.27747 -19212964.52846  21450163.5164                   21450163.9654
 -41091476.68748 -31990998.68546  20761231.9614                   20761229.5394
 -44807769.39847 -34883736.74445  22323992.8674                   22323993.0784
  -7266719.75047  -5640829.09744  23620099.2504                   23620102.5904
  -4346240.71546  -3361389.30543  23691422.3204                   23691423.1254
 11  8 26  0 14 30.0000000  0  9G17G09G10G12G05G02G04G25G30
 -55353835.23046 -43104736.16344  23611729.4224                   23611732.0004
 -19802447.89846 -15406712.98443  24297546.7894                   24297553.1724
 -35559464.07448 -27687833.17246  21026183.0634                   21026183.2304
 -28304523.57848 -22030643.95846  21191070.2814                   21191069.7114
 -24809711.42247 -19310410.02346  21426366.2344                   21426366.5744
 -41131059.22748 -32021842.20246  20753700.1024                   20753697.2234
 -44776641.36747 -34859481.16244  22329916.2664                   22329916.4224
  -7407394.22747  -5750445.48144  23593329.5394                   23593332.8444
  -4488132.22346  -3471954.05344  23664422.1174                   23664422.6374
 11  8 26  0 15  0.0000000  0  9G17G09G10G12G05G02G04G25G30
 -55344859.83646 -43097742.38844  23613437.6804                   23613438.9224
 -19770266.68446 -15381636.96743  24303670.7814                   24303676.6644
 -35582975.57447 -27706153.81245  21021708.6564                   21021708.7624
 -28397343.81248 -22102971.39446  21173407.2974                   21173406.5234
 -24934359.95348 -19407538.68846  21402646.7734                   21402646.5594
 -41170403.77748 -32052500.26946  20746212.8914                   20746210.2114
 -44745449.05547 -34835175.49644  22335851.2734                   22335852.6334
  -7547803.86346  -5859855.46344  23566610.5004                   23566614.0124
  -4629709.52346  -3582273.95343  23637480.5234                   23637480.9574
 11  8 26  0 15 30.0000000  0  9G17G09G10G12G05G02G04G25G30
 -55335701.16446 -43090605.81443  23615180.1174                   23615182.1254
 -19738038.01246 -15356523.84243  24309803.2584                   24309810.1254
 -35605866.29347 -27723990.72346  21017353.2344                   21017352.7584
 -28489656.36348 -22174903.23946  21155840.3674                   21155839.6024
 -25058593.53948 -19504344.01946  21379005.5704                   21379005.7814
 -41209505.69548 -32082969.27546  20738772.1724                   20738769.5394
 -44714188.35547 -34810816.54644  22341799.9384                   22341801.2114
  -7687940.38346  -5969052.67944  23539943.7194                   23539946.7544
  -4770964.23046  -3692342.47344  23610600.1724                   23610601.1564
 11  8 26  0 16  0.0000000  0  9G17G09G10G12G05G02G04G25G30
 -55326362.62146 -43083329.04143  23616957.0084                   23616958.9964
 -19705768.71146 -15331379.19743  24315944.4924                   24315950.7734
 -35628141.25048 -27741347.81845  21013114.2814                   21013114.3244
 -28581463.16848 -22246440.98146  21138370.2344                   21138369.4144
 -25182413.66847 -19600827.16946  21355443.6094                   21355443.6254
 -41248369.93048 -32113253.06746  20731376.3134                   20731373.7704
 -44682864.58647 -34786408.43944  22347761.2584                   22347761.8364
  -7827804.75846  -6078037.79844  23513328.2504                   23513331.0274
  -4911897.23046  -3802160.29743  23583781.7734                   23583781.9494
 11  8 26  0 16 30.0000000  0  9G17G09G10G12G05G02G04G25G30
 -55316841.06646 -43075909.68744  23618768.6724                   23618771.3484
 -19673459.47346 -15306203.38543  24322092.8914                   24322099.7734
 -35649798.60947 -27758223.67346  21008993.0554                   21008992.7154
 -28672759.54748 -22317581.01246  21120997.1884                   21120996.3134
 -25305814.80548 -19696983.84246  21331960.8834                   21331961.1684
 -41286995.02348 -32143350.51946  20724026.3284                   20724023.8054
 -44651476.58647 -34761950.27244  22353734.1414                   22353735.2344
  -7967391.58647  -6186806.70744  23486765.9384                   23486768.6764
  -5052502.95346  -3911723.07843  23557024.7344                   23557025.7504
 11  8 26  0 17  0.0000000  0  9G17G09G10G12G05G02G04G25G30
 -55307134.80946 -43068346.41943  23620616.6724                   23620618.3914
 -19641112.38346 -15280998.09343  24328248.5554                   24328255.2504
 -35670837.97747 -27774617.94545  21004989.3754                   21004988.8554
 -28763542.36348 -22388320.85046  21103721.7504                   21103720.6844
 -25428793.57048 -19792811.37246  21308558.8834                   21308559.3444
 -41325381.04348 -32173261.67146  20716721.5864                   20716719.1884
 -44620024.80547 -34737442.39844  22359719.2344                   22359719.7934
  -8106697.07847  -6295356.38644  23460256.8204                   23460259.6524
  -5192777.47746  -4021027.80143  23530331.4844                   23530332.7704
 11  8 26  0 17 30.0000000  0  9G17G09G10G12G05G02G04G25G30
 -55297246.09046 -43060640.95243  23622498.1884                   23622499.8364
 -19608733.00446 -15255767.63243  24334410.6804                   24334416.8324
 -35691263.10947 -27790533.61745  21001102.6024                   21001102.4694
 -28853812.56248 -22458661.25746  21086544.1564                   21086543.1684
 -25551349.93048 -19888309.77346  21285236.8834                   21285237.2194
 -41363532.05548 -32202989.71346  20709461.6254                   20709459.0864
 -44588513.46947 -34712888.14644  22365715.3284                   22365716.2774
  -8245721.14547  -6403686.75744  23433801.1954                   23433804.0204
  -5332720.72346  -4130074.33643  23503700.9924                   23503702.3284
 11  8 26  0 18  0.0000000  0  9G17G09G10G12G05G02G04G25G30
 -55287173.08246 -43052791.89943  23624415.0164                   23624417.0634
 -19576323.03146 -15230513.32843  24340577.9614                   24340584.4534
 -35711073.55547 -27805970.31245  20997332.7114                   20997332.5824
 -28943566.95348 -22528599.74046  21069464.3984                   21069463.6414
 -25673480.13748 -19983476.10546  21261996.1804                   21261996.8284
 -41401447.39848 -32232534.10946  20702246.4844                   20702244.0204
 -44556942.56647 -34688287.44344  22371722.9694                   22371724.0434
  -8384459.53547  -6511794.55644  23407400.3984                   23407402.6804
  -5472328.22746  -4238859.34943  23477134.1954                   23477135.3284
 11  8 26  0 18 30.0000000  0  9G17G09G10G12G05G02G04G25G30
 -55276919.42646 -43044802.06943  23626366.1024                   23626368.0394
 -19543889.62946 -15205240.73443  24346749.9694                   24346756.8364
 -35730274.37147 -27820931.97345  20993679.1804                   20993678.7934
 -29032807.77348 -22598138.02346  21052482.1254                   21052481.5204
 -25795185.46148 -20078311.35546  21238836.3674                   21238837.0744
 -41439132.22348 -32261898.89346  20695075.4384                   20695072.7194
 -44525317.56247 -34663644.58944  22377741.0784                   22377742.2424
  -8522913.59847  -6619680.77344  23381053.2584                   23381055.8794
  -5611601.17246  -4347383.65243  23450631.3364                   23450632.2384
 11  8 26  0 19  0.0000000  0  9G17G09G10G12G05G02G04G25G30
 -55266481.52346 -43036668.69543  23628352.6484                   23628354.6884
 -19511433.01246 -15179950.21143  24352926.7974                   24352933.0904
 -35748863.34847 -27835416.89145  20990141.2974                   20990141.5434
 -29121530.05548 -22667272.26846  21035599.0084                   21035597.9804
 -25916460.34448 -20172811.20146  21215758.7344                   21215758.8914
 -41476584.75048 -32291082.65546  20687948.2814                   20687945.7934
 -44493637.01247 -34638958.48445  22383770.1484                   22383771.3134
  -8661077.66846  -6727341.07644  23354761.4844                   23354763.6134
  -5750533.94946  -4455642.80443  23424193.7114                   23424194.2074
 11  8 26  0 19 30.0000000  0  9G17G09G10G12G05G02G04G25G30
 -55255859.55946 -43028391.88444  23630373.9454                   23630375.7854
 -19478957.06246 -15154644.46143  24359106.9924                   24359113.4734
 -35766842.48447 -27849426.57345  20986720.4304                   20986720.0664
 -29209732.65648 -22736001.56446  21018814.3674                   21018813.6414
 -26037303.66048 -20266974.76646  21192763.0084                   21192763.2584
 -41513806.98048 -32320086.95846  20680865.2424                   20680862.4964
 -44461903.30547 -34614230.93044  22389808.6484                   22389809.5744
  -8798949.75446  -6834773.85544  23328525.3674                   23328527.0904
  -5889124.40646  -4563635.27243  23397820.5164                   23397821.4804
 11  8 26  0 20  0.0000000  0  9G17G09G10G12G05G02G04G25G30
 -55245051.94546 -43019970.42944  23632430.8594                   23632432.5004
 -19446463.55946 -15129325.02443  24365290.0004                   24365296.6414
 -35784211.37547 -27862960.75245  20983415.0084                   20983415.0594
 -29297412.41448 -22804323.43546  21002129.8914                   21002128.9344
 -26157710.94948 -20360798.55646  21169850.2974                   21169850.4184
 -41550798.60548 -32348911.58546  20673826.0394                   20673823.4104
 -44430116.37147 -34589461.89344  22395857.4144                   22395858.5904
  -8936525.77746  -6941975.88044  23302345.1564                   23302348.0704
  -6027368.28146  -4671357.73243  23371514.0314                   23371513.9384
 11  8 26  0 20 30.0000000  0  9G17G09G10G12G05G02G04G25G30
 -55234060.66446 -43011405.82044  23634522.6954                   23634524.5594
 -19413958.28546 -15103996.49043  24371475.5634                   24371482.1564
 -35800973.84847 -27876022.40545  20980225.3914                   20980225.1094
 -29384570.73848 -22872239.01246  20985544.2584                   20985543.1844
 -26277682.77048 -20454283.02146  21147020.1414                   21147020.2194
 -41587563.52048 -32377559.55046  20666829.7974                   20666827.0984
 -44398280.41447 -34564654.67044  22401915.6484                   22401916.7974
  -9073805.59446  -7048947.11444  23276221.6884                   23276223.9574
  -6165265.46146  -4778810.02343  23345273.2504                   23345273.6214
 11  8 26  0 21  0.0000000  0  9G17G09G10G12G05G02G04G25G30
 -55222883.45346 -43002696.37044  23636648.7894                   23636651.4344
 -19381441.99246 -15078659.36743  24377663.5784                   24377670.7544
 -35817129.15647 -27888610.95945  20977150.9924                   20977150.4344
 -29471203.76248 -22939745.25646  20969058.2194                   20969057.7974
 -26397214.58247 -20547424.63546  21124274.0164                   21124273.7704
 -41624100.76648 -32406030.12246  20659876.8204                   20659874.2234
 -44366394.66046 -34539808.66744  22407983.1884                   22407984.2234
  -9210784.38746  -7155683.79444  23250155.5314                   23250158.5904
  -6302810.87146  -4885988.19143  23319098.5554                   23319099.4104
 11  8 26  0 21 30.0000000  0  9G17G09G10G12G05G02G04G25G30
 -55211523.02346 -42993844.13144  23638810.6724                   23638813.2814
 -19348921.18446 -15053318.70443  24383852.4534                   24383859.9184
 -35832681.62947 -27900729.73745  20974191.4384                   20974191.0314
 -29557312.80948 -23006843.19446  20952672.3524                   20952671.5434
 -26516307.09048 -20640223.93146  21101611.8134                   21101611.3444
 -41660414.79348 -32434326.75346  20652967.0164                   20652964.2894
 -44334463.77047 -34514927.47244  22414059.4924                   22414060.9534
  -9347462.73447  -7262186.35244  23224146.5634                   23224148.8714
  -6440005.11746  -4992892.73144  23292991.4774                   23292992.1884
 11  8 26  0 22  0.0000000  0  9G17G09G10G12G05G02G04G25G30
 -55199978.77746 -42984848.68144  23641007.9924                   23641010.1524
 -19316399.05946 -15027977.06543  24390041.0084                   24390048.6254
 -35847632.35247 -27912379.63145  20971346.1254                   20971346.0234
 -29642896.19948 -23073531.54946  20936386.0474                   20936385.4734
 -26634957.86348 -20732679.02546  21079032.3134                   21079033.1414
 -41696507.00048 -32462450.54346  20646098.5164                   20646096.0514
 -44302489.15247 -34490012.22344  22420144.2194                   22420145.3674
  -9483837.87947  -7368452.65744  23198194.8674                   23198198.0004
  -6576845.25846  -5099521.38343  23266951.4614                   23266952.4924
 11  8 26  0 22 30.0000000  0  9G17G09G10G12G05G02G04G25G30
 -55188247.85246 -42975707.75444  23643240.6094                   23643242.8054
 -19283875.61346 -15002634.30443  24396230.5004                   24396237.9774
 -35861979.49247 -27923559.20945  20968616.2734                   20968615.9884
 -29727948.84848 -23139806.32646  20920201.5084                   20920200.2814
 -26753161.53548 -20824785.72546  21056539.4454                   21056539.2424
 -41732374.97748 -32490399.60146  20639272.9614                   20639270.3164
 -44270469.64547 -34465061.98844  22426237.3834                   22426238.1564
  -9619904.22747  -7474478.33444  23172302.4224                   23172305.7544
  -6713325.70746  -5205869.70643  23240980.1094                   23240980.7194
 11  8 26  0 23  0.0000000  0  9G17G09G10G12G05G02G04G25G30
 -55176330.18046 -42966421.34944  23645508.2584                   23645510.6094
 -19251354.33646 -14977293.33543  24402418.7274                   24402426.6994
 -35875725.30547 -27934270.22745  20966000.2814                   20966000.0514
 -29812470.16048 -23205667.07546  20904117.7114                   20904116.4184
 -26870916.63348 -20916542.87846  21034131.0634                   21034131.1484
 -41768020.89148 -32518175.64146  20632490.2194                   20632487.5824
 -44238406.84847 -34440078.02344  22432338.8674                   22432340.4344
  -9755659.55947  -7580261.68644  23146469.3364                   23146471.7424
  -6849444.09046  -5311935.89644  23215077.2734                   23215078.4694
 11  8 26  0 23 30.0000000  0  9G17G09G10G12G05G02G04G25G30
 -55164222.24646 -42956986.64343  23647812.2424                   23647814.4844
 -19218835.30546 -14951954.11543  24408607.5164                   24408614.8364
 -35888868.12148 -27944511.36045  20963499.5864                   20963499.0004
 -29896455.74248 -23271110.36746  20888135.3134                   20888134.9024
 -26988217.70748 -21007946.25746  21011809.7114                   21011809.9414
 -41803442.40648 -32545776.80846  20625749.8284                   20625746.8094
 -44206299.30547 -34415059.17544  22438448.6254                   22438449.6134
  -9891098.24247  -7685798.27345  23120695.5864                   23120699.1724
  -6985194.73846  -5417715.57144  23189245.3204                   23189246.0274
 11  8 26  0 24  0.0000000  0  9G17G09G10G12G05G02G04G25G30
 -55151926.64846 -42947405.70844  23650151.9144                   23650154.7384
 -19186324.95746 -14926621.75143  24414794.4694                   24414802.0824
 -35901412.12148 -27954285.89845  20961112.2664                   20961111.8674
 -29979907.23448 -23336137.48846  20872255.0394                   20872254.4454
 -27105065.21948 -21098996.20246  20989573.9844                   20989574.3134
 -41838644.28148 -32573206.83746  20619050.9064                   20619048.0864
 -44174151.31647 -34390008.80744  22444566.1414                   22444566.8874
 -10026220.58247  -7791088.37044  23094983.1174                   23094986.0474
  -7120577.80146  -5523208.78644  23163482.4224                   23163483.3204
 11  8 26  0 24 30.0000000  0  9G17G09G10G12G05G02G04G25G30
 -55139446.90246 -42937681.31943  23652526.5394                   23652529.2384
 -19153830.00446 -14901301.23043  24420978.0084                   24420985.8134
 -35913362.41048 -27963597.81445  20958838.4774                   20958838.1484
 -30062826.34048 -23400749.76146  20856476.1564                   20856475.2114
 -27221460.98448 -21189694.14246  20967424.4304                   20967424.5474
 -41873631.43448 -32600469.54846  20612393.0474                   20612390.0394
 -44141968.28147 -34364931.14344  22450690.2734                   22450691.4264
 -10161027.78147  -7896132.91445  23069330.2274                   23069332.6844
  -7255594.49246  -5628416.55244  23137790.0474                   23137790.6804
 11  8 26  0 25  0.0000000  0  9G17G09G10G12G05G02G04G25G30
 -55126777.09046 -42927808.77644  23654937.9774                   23654939.9614
 -19121347.75046 -14875990.69543  24427159.9844                   24427167.6484
 -35924714.41847 -27972443.52945  20956678.2114                   20956677.7774
 -30145205.88748 -23464941.58746  20840799.8594                   20840799.0864
 -27337396.97348 -21280033.82146  20945362.7194                   20945362.6054
 -41908399.14548 -32627561.26246  20605776.9924                   20605774.1214
 -44109745.93747 -34339822.85844  22456822.3674                   22456823.3324
 -10295511.48447  -8000925.36645  23043738.6954                   23043741.6054
  -7390236.30546  -5733332.19044  23112167.9534                   23112168.9144
 11  8 26  0 25 30.0000000  0  9G17G09G10G12G05G02G04G25G30
 -55113919.22746 -42917789.72643  23657384.5944                   23657386.8444
 -19088883.89146 -14850694.51743  24433337.9844                   24433345.7034
 -35935472.74248 -27980826.62945  20954630.8594                   20954630.4654
 -30227047.16448 -23528713.99846  20825225.9064                   20825225.0274
 -27452873.78148 -21370015.69446  20923387.9384                   20923388.1804
 -41942951.70348 -32654485.33046  20599201.8204                   20599198.9144
 -44077488.35547 -34314687.11444  22462960.7734                   22462961.6914
 -10429671.79347  -8105465.86744  23018208.4384                   23018211.6644
  -7524503.34847  -5837955.80044  23086617.7584                   23086618.5634
 11  8 26  0 26  0.0000000  0  9G17G09G10G12G05G02G04G25G30
 -55100872.81246 -42907623.70143  23659866.5864                   23659869.4144
 -19056440.77046 -14825414.46643  24439511.0474                   24439519.3634
 -35945637.68448 -27988747.35245  20952696.4534                   20952696.2504
 -30308347.54348 -23592064.93046  20809754.9224                   20809754.1254
 -27567888.03548 -21459637.13446  20901501.8984                   20901501.5354
 -41977288.83648 -32681241.54846  20592667.8054                   20592664.8794
 -44045195.68747 -34289524.01944  22469105.5394                   22469107.0634
 -10563505.00447  -8209751.46145  22992741.1954                   22992744.1884
  -7658391.76247  -5942284.37444  23061139.6254                   23061140.1024
 11  8 26  0 26 30.0000000  0  9G17G09G10G12G05G02G04G25G30
 -53512216.57446 -41669709.76743  23962178.4614                   23962181.0084
 -17448601.53146 -13572552.94443  24745473.2504                   24745482.1484
 -34379789.60947 -26768605.99345  21250667.6644                   21250667.3674
 -28813682.19548 -22427390.62046  21094180.2814                   21094179.5084
 -26107012.71948 -20321292.67046  21179496.8674                   21179497.1254
 -40435989.65248 -31480229.18346  20885966.7664                   20885964.3364
 -42437449.83247 -33036735.09344  22775049.5474                   22775050.9024
  -9121583.18047  -7086176.01244  23267130.0084                   23267132.3404
  -6216473.52747  -4818711.66744  23335527.7274                   23335528.1724
 11  8 26  0 27  0.0000000  0  9G17G09G10G12G05G02G04G25G30
 -53498788.50046 -41659246.43843  23964734.4304                   23964736.3594
 -17416205.98446 -13547309.96643  24751638.0394                   24751646.5864
 -34388769.46947 -26775603.26545  21248958.8754                   21248958.4344
 -28893894.16847 -22489893.42846  21078916.7034                   21078915.5704
 -26221092.37148 -20410185.84946  21157788.1884                   21157788.2704
 -40469896.85548 -31506650.36846  20879514.3674                   20879511.7624
 -42405088.73047 -33011518.68744  22781207.5234                   22781208.7854
  -9254751.42647  -7189943.44644  23241788.5314                   23241791.1524
  -6349593.82047  -4922441.74944  23310195.8594                   23310196.5234
 11  8 26  0 27 30.0000000  0  9G17G09G10G12G05G02G04G25G30
 -53485171.30546 -41648635.67043  23967325.3754                   23967327.6294
 -17383841.05546 -13522090.85043  24757797.4064                   24757805.4654
 -34397161.62547 -26782142.60845  21247361.6414                   21247361.2934
 -28973562.21547 -22551972.41546  21063756.1094                   21063755.5474
 -26334703.89848 -20498714.25346  21136168.6094                   21136168.7114
 -40503593.45348 -31532907.45146  20873102.7034                   20873099.4144
 -42372697.89147 -32986279.09044  22787371.4534                   22787372.5594
  -9387585.80147  -7293450.70744  23216510.7424                   23216513.8954
  -6482328.48446  -5025871.31344  23284937.3134                   23284937.5824
 11  8 26  0 28  0.0000000  0  9G17G09G10G12G05G02G04G25G30
 -53471364.41446 -41637877.00743  23969952.6254                   23969955.0234
 -17351509.35246 -13496897.61543  24763950.0234                   24763958.2424
 -34404967.05547 -26788224.75445  21245876.5164                   21245876.1884
 -29052684.52048 -22613626.15146  21048699.8364                   21048698.8594
 -26447844.84848 -20586875.98746  21114638.6644                   21114638.5864
 -40537080.28148 -31559001.07746  20866730.0394                   20866727.6134
 -42340278.32847 -32961017.13344  22793540.7814                   22793542.0744
  -9520083.21947  -7396695.42244  23191297.4064                   23191299.5784
  -6614674.47347  -5128998.01644  23259752.9064                   23259752.7624
 11  8 26  0 28 30.0000000  0  9G17G09G10G12G05G02G04G25G30
 -53457368.03946 -41626970.78643  23972616.5474                   23972618.0904
 -17319213.75846 -13471732.57643  24770095.6414                   24770104.3054
 -34412187.13747 -26793850.80045  21244502.5474                   21244502.0084
 -29131259.50048 -22674853.39646  21033747.4614                   21033746.4574
 -26560513.04348 -20674669.32946  21093198.6484                   21093198.7274
 -40570358.46148 -31584932.12046  20860397.3364                   20860394.8364
 -42307831.18447 -32935733.66044  22799715.3594                   22799716.2234
  -9652240.95747  -7499675.42044  23166148.7504                   23166151.1684
  -6746629.02047  -5231819.74144  23234642.3524                   23234642.8014
 11  8 26  0 29  0.0000000  0  9G17G09G10G12G05G02G04G25G30
 -53443183.24646 -41615917.64143  23975315.5864                   23975317.7114
 -17286959.48446 -13446599.68543  24776233.9844                   24776242.2344
 -34418825.30548 -26799023.39545  21243239.1884                   21243239.0984
 -29209287.66447 -22735654.56646  21018898.8444                   21018897.9224
 -26672707.97748 -20762093.89846  21071848.8054                   21071848.4264
 -40603430.94548 -31610702.89746  20854103.7504                   20854101.0274
 -42275359.56647 -32910431.13944  22805894.7274                   22805895.7034
  -9784058.19547  -7602390.13044  23141064.5234                   23141066.9454
  -6878191.25847  -5334335.78544  23209607.0394                   23209607.0554
 11  8 26  0 29 30.0000000  0  9G17G09G10G12G05G02G04G25G30
 -53428808.11346 -41604716.26643  23978050.7424                   23978053.5044
 -17254747.94146 -13421500.06343  24782363.3204                   24782371.4734
 -34424881.60247 -26803742.56845  21242087.0314                   21242086.8984
 -29286765.92247 -22796027.22446  21004155.6414                   21004154.5164
 -26784426.19148 -20849146.99446  21050589.6024                   21050589.2664
 -40636297.14548 -31636312.90246  20847849.5164                   20847846.9734
 -42242863.45747 -32885109.53444  22812078.0084                   22812079.1914
  -9915530.75847  -7704836.21844  23116046.1644                   23116048.7934
  -7009356.96947  -5436542.79043  23184647.5164                   23184647.1024
 11  8 26  0 30  0.0000000  0  9G17G09G10G12G05G02G04G25G30
 -53414240.91446 -41593365.18543  23980823.0394                   23980824.5234
 -17222580.39546 -13396434.72943  24788485.3674                   24788494.0664
 -34430356.13747 -26808008.43245  21241044.6884                   21241044.5084
 -29363691.66848 -22855969.34346  20989516.4304                   20989516.1254
 -26895663.65648 -20935825.47946  21029421.2734                   21029421.3204
 -40668956.39148 -31661761.66046  20841635.1174                   20841632.3524
 -42210342.26247 -32859768.35844  22818266.7274                   22818267.8324
 -10046654.30947  -7807010.36144  23091093.8524                   23091096.9964
  -7140121.70347  -5538437.37643  23159763.2034                   23159763.7074
 11  8 26  0 30 30.0000000  0  9G17G09G10G12G05G02G04G25G30
 -53399482.31246 -41581864.98543  23983630.9614                   23983633.5234
 -17190460.73846 -13371406.72543  24794597.6024                   24794606.1844
 -34435251.65247 -26811823.12845  21240113.6254                   21240113.0704
 -29440064.43748 -22915480.59146  20974983.5784                   20974982.3094
 -27006419.28147 -21022128.51946  21008345.1174                   21008345.2274
 -40701411.20748 -31687051.11246  20835458.9534                   20835456.4144
 -42177798.20747 -32834409.38144  22824459.6334                   22824460.7624
 -10177427.26247  -7908911.29144  23066208.7344                   23066211.5354
  -7270483.89147  -5640018.31844  23134956.0004                   23134955.5704
 11  8 26  0 31  0.0000000  0  9G17G09G10G12G05G02G04G25G30
 -53384530.35946 -41570214.08543  23986476.7344                   23986478.5474
 -17158390.17646 -13346416.98442  24800700.1644                   24800709.0124
 -34439568.14847 -26815186.60945  21239292.1174                   21239291.6954
 -29515881.25848 -22974558.63646  20960556.2504                   20960555.4304
 -27116689.37547 -21108053.20646  20987361.5004                   20987361.4184
 -40733660.93748 -31712180.75446  20829322.0554                   20829319.3094
 -42145230.87947 -32809032.28344  22830657.3984                   22830658.3444
 -10307845.31247  -8010535.66845  23041391.5164                   23041393.9104
  -7400439.17247  -5741282.14043  23110225.9224                   23110226.2894
 11  8 26  0 31 30.0000000  0  9G17G09G10G12G05G02G04G25G30
 -53369390.12146 -41558416.56343  23989357.8364                   23989359.8444
 -17126376.81246 -13321471.77742  24806792.4844                   24806801.3324
 -34443312.28147 -26818104.11745  21238579.2894                   21238579.2584
 -29591146.26248 -23033206.68146  20946233.5554                   20946232.8914
 -27226477.34447 -21193602.21446  20966469.6254                   20966469.4614
 -40765711.91847 -31737155.53446  20823222.8834                   20823219.9924
 -42112646.86347 -32783642.20344  22836858.1804                   22836858.7774
 -10437911.05547  -8111885.50045  23016640.5784                   23016643.2624
  -7529990.06647  -5842230.87143  23085573.2974                   23085573.7544
 11  8 26  0 32  0.0000000  0  9G17G09G10G12G05G02G04G25G30
 -53354056.05146 -41546467.97143  23992275.6484                   23992277.9494
 -17094418.55946 -13296569.47342  24812874.7034                   24812883.1684
 -34446480.69147 -26820573.00445  21237976.6254                   21237976.3794
 -29665852.80948 -23091419.56346  20932017.4844                   20932016.7464
 -27335775.85547 -21278769.83946  20945671.0234                   20945670.8014
 -40797560.07848 -31761972.27546  20817162.2344                   20817159.7194
 -42080042.17647 -32758236.00344  22843062.6954                   22843063.2344
 -10567616.83247  -8212954.85345  22991958.2274                   22991960.9534
  -7659128.90646  -5942858.48744  23060999.2814                   23060999.7384
 11  8 26  0 32 30.0000000  0  9G17G09G10G12G05G02G04G25G30
 -53338527.07446 -41534367.45643  23995230.6644                   23995233.3364
 -17062517.67246 -13271711.88742  24818944.8524                   24818953.7814
 -34449074.53547 -26822594.17945  21237483.2664                   21237482.7584
 -29739998.59848 -23149195.50446  20917908.0634                   20917907.2424
 -27444582.19947 -21363553.94946  20924965.1174                   20924965.1134
 -40829206.05148 -31786631.47146  20811140.2974                   20811137.6994
 -42047417.41447 -32732814.12644  22849271.0314                   22849271.6954
 -10696959.27047  -8313741.09245  22967344.9844                   22967347.7704
  -7787852.34047  -6043162.46744  23036504.0704                   23036504.5634
 11  8 26  0 33  0.0000000  0  9G17G09G10G12G05G02G04G25G30
 -53322808.73046 -41522119.40543  23998221.5944                   23998224.7114
 -17030682.08646 -13246905.19942  24825003.8444                   24825011.9414
 -34451100.78547 -26824173.06345  21237097.4614                   21237097.1374
 -29813588.39847 -23206538.19746  20903904.5084                   20903903.7544
 -27552899.49647 -21447956.97546  20904353.2584                   20904353.1024
 -40860656.14147 -31811138.03346  20805155.6724                   20805152.6724
 -42014779.12947 -32707381.75444  22855481.5704                   22855482.8404
 -10825941.03147  -8414246.29045  22942800.6804                   22942803.0084
  -7916162.90246  -6143144.66944  23012086.6804                   23012088.0824
 11  8 26  0 33 30.0000000  0  9G17G09G10G12G05G02G04G25G30
 -53306897.14546 -41509720.83243  24001250.0234                   24001252.3984
 -16998911.73046 -13222149.35542  24831049.1884                   24831058.4654
 -34452558.09048 -26825308.62745  21236819.9694                   21236820.0944
 -29886617.67248 -23263444.13146  20890007.3284                   20890006.4884
 -27660722.36747 -21531974.75046  20883835.2734                   20883834.9734
 -40891908.25048 -31835490.30746  20799208.7734                   20799205.9574
 -41982125.03547 -32681937.03644  22861696.1644                   22861696.4024
 -10954556.37947  -8514465.95445  22918325.5784                   22918328.7074
  -8044054.83646  -6242800.67844  22987750.3674                   22987750.8244
 11  8 26  0 34  0.0000000  0  9G17G09G10G12G05G02G04G25G30
 -53290791.74646 -41497171.16243  24004315.2114                   24004317.1024
 -16967208.86346 -13197446.11743  24837082.2584                   24837091.5704
 -34453447.62947 -26826001.77245  21236650.7584                   21236650.4304
 -29959084.60948 -23319911.87146  20876217.4064                   20876216.5314
 -27768048.95347 -21615605.80146  20863411.7034                   20863411.2624
 -40922963.11748 -31859688.89146  20793298.8594                   20793296.2544
 -41949456.15647 -32656480.82444  22867912.3134                   22867913.2344
 -11082802.19547  -8614397.69045  22893921.4534                   22893923.7664
  -8171525.09847  -6342128.06444  22963493.3984                   22963493.9184
 11  8 26  0 34 30.0000000  0  9G17G09G10G12G05G02G04G25G30
 -53274493.73046 -41484471.48643  24007415.9454                   24007417.9924
 -16935578.23046 -13172799.11543  24843101.2664                   24843111.0704
 -34453772.73447 -26826255.10645  21236588.8594                   21236588.2934
 -30030989.75848 -23375941.82946  20862534.1644                   20862533.6214
 -27874878.42248 -21698849.48246  20843082.6414                   20843082.5354
 -40953823.32047 -31883735.78246  20787426.1884                   20787423.7154
 -41916775.11347 -32631015.10044  22874131.9384                   22874132.2304
 -11210677.53947  -8714040.72245  22869587.2974                   22869590.0204
  -8298572.57046  -6441126.04944  22939317.0864                   22939317.5864
 11  8 26  0 35  0.0000000  0  9G17G09G10G12G05G02G04G25G30
 -53258003.91046 -41471622.29043  24010554.3594                   24010556.9144
 -16904023.21146 -13148211.12043  24849107.1174                   24849115.7274
 -34453536.00447 -26826070.65745  21236634.1724                   21236633.3284
 -30102332.37548 -23431533.48546  20848958.0394                   20848957.5164
 -27981209.71548 -21781704.99046  20822848.6254                   20822848.1254
 -40984490.71147 -31907632.44946  20781590.3284                   20781587.6564
 -41884083.86347 -32605541.47144  22880352.1954                   22880353.2114
 -11338180.44547  -8813393.55445  22845324.4224                   22845326.5784
  -8425195.45746  -6539793.13644  22915221.4224                   22915222.3134
 11  8 26  0 35 30.0000000  0  8G17G10G12G05G02G04G25G30
 -53241322.12546 -41458623.58543  24013728.6884                   24013731.1134
 -34452739.36347 -26825449.89545  21236785.7664                   21236785.5984
 -30173112.00848 -23486686.43046  20835489.4614                   20835488.7734
 -28087041.09848 -21864170.95446  20802709.3754                   20802709.1294
 -41014966.84847 -31931380.06146  20775791.2504                   20775788.6054
 -41851383.57847 -32580060.77344  22886574.8674                   22886575.8634
 -11465308.45347  -8912454.26745  22821133.1254                   22821135.3054
  -8551391.18047  -6638127.39344  22891206.8364                   22891207.8094
 11  8 26  0 36  0.0000000  0  8G17G10G12G05G02G04G25G30
 -53224444.37946 -41445472.13043  24016939.7664                   24016942.3874
 -34451381.06247 -26824391.47745  21237043.8444                   21237043.6524
 -30243323.83248 -23541396.94746  20822128.5704                   20822127.6294
 -28192366.90248 -21946242.96446  20782666.2974                   20782666.1804
 -41045248.55947 -31954976.19946  20770028.8834                   20770026.1094
 -41818671.59447 -32554570.92544  22892799.4614                   22892800.8714
 -11592055.42647  -9011218.08445  22797013.2664                   22797015.5394
  -8677153.65647  -6736124.04644  22867275.4304                   22867275.5044
 11  8 26  0 36 30.0000000  0  8G17G10G12G05G02G04G25G30
 -53207363.45746 -41432162.34343  24020190.8364                   24020192.7854
 -34449456.30147 -26822891.67545  21237410.6484                   21237409.9494
 -30312959.69948 -23595658.65646  20808876.9534                   20808876.0704
 -28297178.16848 -22027914.02946  20762721.6334                   20762721.2384
 -41075330.16848 -31978416.39946  20764304.4614                   20764301.6134
 -41785942.60547 -32529067.87044  22899028.0944                   22899028.9964
 -11718411.84447  -9109677.58645  22772968.5944                   22772971.0124
  -8802473.30547  -6833775.62744  22843428.1334                   22843428.2114
 11  8 26  0 37  0.0000000  0  8G17G10G12G05G02G04G25G30
 -53190073.09446 -41418689.41044  24023481.6334                   24023483.2814
 -34446960.75847 -26820947.09045  21237885.3444                   21237885.1764
 -30382012.34848 -23649465.91546  20795737.0394                   20795735.9804
 -28401467.10248 -22109178.07146  20742875.9844                   20742875.5864
 -41105206.96148 -32001697.02346  20758619.5394                   20758615.7894
 -41753191.08247 -32503547.24744  22905260.5554                   22905261.6884
 -11844369.09047  -9207826.07244  22748999.5944                   22749002.2814
  -8927341.55547  -6931075.50744  22819665.7894                   22819666.4654
 11  8 26  0 37 30.0000000  0  8G17G10G12G05G02G04G25G30
 -53172573.59846 -41405053.48343  24026810.6644                   24026813.7814
 -34443896.41447 -26818559.30645  21238468.6564                   21238467.8204
 -30450481.02348 -23702818.12946  20782707.7734                   20782707.1334
 -28505231.99648 -22190033.79246  20723130.1254                   20723129.8054
 -41134880.24248 -32024819.06346  20752972.4454                   20752969.3954
 -41720418.66447 -32478010.35344  22911496.6484                   22911497.5664
 -11969924.77047  -9305661.64345  22725107.7424                   22725109.1684
  -9051755.94547  -7028021.67644  22795990.6954                   22795990.2974
 11  8 26  0 38  0.0000000  0  8G17G10G12G05G02G04G25G30
 -53154865.03146 -41391254.59043  24030181.0704                   24030183.2154
 -34440265.55947 -26815730.06545  21239159.4454                   21239158.9104
 -30518365.15648 -23755714.85946  20769789.7344                   20769789.0044
 -28608471.48448 -22270480.09246  20703484.3754                   20703484.0204
 -41164351.24248 -32047783.48346  20747364.4614                   20747361.3914
 -41687626.68047 -32452458.17444  22917737.0164                   22917737.8754
 -12095076.64147  -9403182.57045  22701291.9844                   22701293.8674
  -9175714.33647  -7124612.58444  22772401.9694                   22772402.5394
 11  8 26  0 38 30.0000000  0  8G17G10G12G05G02G04G25G30
 -53136952.58246 -41377296.92743  24033589.8754                   24033591.5984
 -34436076.22747 -26812465.66245  21239956.4144                   21239956.1684
 -30585670.18448 -23808160.32546  20756982.0084                   20756980.9964
 -28711189.64548 -22350520.16646  20683937.6564                   20683937.3554
 -41193627.19148 -32070595.89346  20741792.9224                   20741790.3914
 -41654822.19946 -32426896.30544  22923979.7734                   22923980.0944
 -12219828.27747  -9500391.60945  22677552.4064                   22677554.3284
  -9299220.35247  -7220850.94244  22748899.4534                   22748899.2034
 11  8 26  0 39  0.0000000  0  8G17G10G12G05G02G04G25G30
 -53118833.90646 -41363178.45943  24037037.8914                   24037039.9304
 -34431327.13347 -26808765.07845  21240860.5864                   21240860.1134
 -30652391.05548 -23860150.60946  20744285.5864                   20744284.8244
 -28813381.37948 -22430150.03046  20664491.1334                   20664490.9884
 -41222705.66448 -32093254.44246  20736259.6174                   20736256.7704
 -41622003.07446 -32401322.98844  22930224.9454                   22930225.8834
 -12344173.74647  -9597284.17445  22653890.0944                   22653892.2074
  -9422268.03947  -7316732.20544  22725483.8674                   22725484.7624
 11  8 26  0 39 30.0000000  0  8G17G10G12G05G02G04G25G30
 -53100509.70346 -41348899.91743  24040524.6254                   24040526.6684
 -34426021.92247 -26804631.15945  21241869.9384                   21241869.3954
 -30718528.93748 -23911686.62546  20731699.7814                   20731698.8834
 -28915046.56248 -22509369.61646  20645145.0084                   20645144.6214
 -41251589.34048 -32115761.19346  20730763.6564                   20730760.7114
 -41589171.80947 -32375740.22644  22936472.5944                   22936473.7154
 -12468111.98447  -9693859.42045  22630305.3594                   22630307.2974
  -9544856.31246  -7412255.44144  22702156.4614                   22702156.0474
 11  8 26  0 40  0.0000000  0  8G17G10G12G05G02G04G25G30
 -53081980.64146 -41334461.70943  24044049.9534                   24044053.6254
 -34420162.87547 -26800065.67845  21242984.9304                   21242984.7344
 -30784083.13748 -23962767.81146  20719225.0004                   20719224.4024
 -29016183.90648 -22588177.89946  20625898.9924                   20625898.6024
 -41280279.81248 -32138117.39646  20725303.5314                   20725300.6604
 -41556329.89146 -32350149.13944  22942721.5474                   22942723.3244
 -12591641.11347  -9790115.89645  22606798.9224                   22606800.8634
  -9666983.37546  -7507419.35744  22678916.3134                   22678916.4774
 11  8 26  0 40 30.0000000  0  8G17G10G12G05G02G04G25G30
 -53063249.09846 -41319865.78143  24047614.6564                   24047617.3284
 -34413754.97347 -26795072.49545  21244204.2034                   21244203.8134
 -30849055.84048 -24013395.88146  20706861.4534                   20706860.5274
 -29116794.48048 -22666575.68846  20606753.5164                   20606752.9614
 -41308780.96148 -32160326.07646  20719880.2274                   20719877.0904
 -41523481.40647 -32324552.92844  22948972.8364                   22948973.9964
 -12714761.43047  -9886053.78845  22583369.7194                   22583372.0204
  -9788649.57447  -7602224.12944  22655763.7584                   22655764.2154
 11  8 26  0 41  0.0000000  0  8G17G10G12G05G02G04G25G30
 -53044318.81246 -41305114.92343  24051216.2814                   24051219.1804
 -34406804.16847 -26789656.29545  21245526.8834                   21245526.8874
 -30913450.09048 -24063573.21246  20694607.4774                   20694606.7424
 -29216880.20748 -22744564.51046  20587707.8984                   20587707.2814
 -41337097.78948 -32182391.12346  20714491.6254                   20714488.6214
 -41490631.06647 -32298955.29644  22955224.3674                   22955225.4064
 -12837474.33647  -9981674.22445  22560018.2734                   22560020.4804
  -9909856.30947  -7696670.92144  22632698.7894                   22632699.5434
 11  8 26  0 41 30.0000000  0  8G17G10G12G05G02G04G25G30
 -53025187.44946 -41290207.36543  24054858.0474                   24054860.4264
 -34399309.83647 -26783816.56245  21246953.4144                   21246952.7664
 -30977262.34448 -24113297.02246  20682464.5634                   20682463.6724
 -29316437.22348 -22822141.35046  20568762.6564                   20568762.3094
 -41365228.89548 -32204311.45746  20709138.5234                   20709135.4694
 -41457777.59046 -32273355.21344  22961476.4304                   22961477.1334
 -12959774.87547 -10076973.34145  22536745.5864                   22536746.7854
 -10030598.71547  -7790755.86244  22609722.3594                   22609722.9104
 11  8 26  0 42  0.0000000  0  8G17G10G12G05G02G04G25G30
 -53005854.65246 -41275142.89143  24058537.2114                   24058539.5824
 -34391274.32847 -26777555.12245  21248482.1254                   21248481.9414
 -31040491.81248 -24162566.73846  20670432.2974                   20670431.5474
 -29415463.75448 -22899304.83746  20549918.5004                   20549918.1954
 -41393175.10248 -32226087.70946  20703820.2424                   20703817.5204
 -41424921.87947 -32247753.37444  22967727.5944                   22967728.9344
 -13081660.42247 -10171949.07245  22513550.9694                   22513553.2814
 -10150873.99647  -7884476.81044  22586835.2734                   22586835.2384
 11  8 26  0 42 30.0000000  0  8G17G10G12G05G02G04G25G30
 -52986320.96946 -41259921.86143  24062254.2504                   24062256.0514
 -34382700.10247 -26770873.92845  21250113.9534                   21250113.4304
 -31103138.73848 -24211382.51446  20658511.0864                   20658510.3524
 -29513958.75448 -22976054.13446  20531175.3524                   20531175.3134
 -41420938.10548 -32247721.20446  20698537.1174                   20698534.8134
 -41392065.25047 -32222150.79144  22973980.3674                   22973981.7464
 -13203128.99247 -10266599.89145  22490436.3284                   22490438.7234
 -10270680.39147  -7977832.42644  22564037.1564                   22564037.0164
 11  8 26  0 43  0.0000000  0  8G17G10G12G05G02G04G25G30
 -51391165.91846 -40016943.95543  24365802.2584                   24365803.4774
 -32798169.02347 -25536174.40245  21551640.0314                   21551639.7974
 -29589779.15247 -23032141.26246  20946493.6254                   20946492.9494
 -28036496.52048 -21824784.82046  20812327.0864                   20812327.0234
 -39873097.02748 -31041611.26246  20993082.0234                   20993079.1884
 -39783789.16446 -30968948.72844  23280025.7114                   23280027.0984
 -11748753.37547  -9133320.18545  22767194.6564                   22767197.2034
  -8814590.83247  -6843217.16844  22841121.0164                   22841121.7194
 11  8 26  0 43 30.0000000  0  8G17G10G12G05G02G04G25G30
 -51371229.66046 -40001409.17743  24369595.3524                   24369598.3014
 -32788523.95747 -25528658.76445  21553475.2504                   21553475.1374
 -29651257.62948 -23080046.54346  20934794.7034                   20934793.6564
 -28133923.12148 -21900701.59746  20793787.5944                   20793787.3484
 -39900496.47748 -31062961.46546  20987867.5164                   20987865.1954
 -39750933.72346 -30943347.06744  23286277.1334                   23286279.1644
 -11869380.62147  -9227315.43145  22744239.8444                   22744242.4964
  -8933452.16446  -6935836.36244  22818502.6644                   22818503.1054
 11  8 26  0 44  0.0000000  0  8G17G10G12G05G02G04G25G30
 -51351093.72746 -39985718.88643  24373426.9304                   24373430.0474
 -32778348.40647 -25520729.76845  21555411.6724                   21555411.4024
 -29712152.77048 -23127497.27646  20923206.8204                   20923205.8524
 -28230815.24648 -21976201.89946  20775349.2034                   20775349.3484
 -39927717.62948 -31084172.74846  20982687.9534                   20982685.1414
 -39718082.25846 -30917748.55444  23292529.3594                   23292530.2504
 -11989585.47347  -9320981.54545  22721365.5704                   22721368.2814
  -9051839.35246  -7028086.10344  22795974.5944                   22795975.1174
 11  8 26  0 44 30.0000000  0  8G17G10G12G05G02G04G25G30
 -51330758.30146 -39969873.07543  24377297.3204                   24377299.7384
 -32767644.43447 -25512389.02045  21557448.7034                   21557448.2154
 -29772463.67248 -23174492.76746  20911730.0314                   20911729.2034
 -28327170.86348 -22051284.14546  20757013.3364                   20757013.3054
 -39954761.26248 -31105245.68046  20977541.6094                   20977538.5084
 -39685235.57446 -30892153.77144  23298779.5164                   23298780.7074
 -12109365.32447  -9414316.48145  22698572.6334                   22698574.6254
  -9169749.86746  -7119964.40844  22773536.2664                   22773536.8244
 11  8 26  0 45  0.0000000  0  8G17G10G12G05G02G04G25G30
 -51310223.10246 -39953871.60143  24381204.7034                   24381207.2304
 -32756414.24247 -25503638.22445  21559585.3524                   21559585.4064
 -29832189.85248 -23221032.62346  20900364.6804                   20900363.7544
 -28422988.48448 -22125947.17046  20738779.7194                   20738779.6804
 -39981628.65648 -31126181.29746  20972428.9614                   20972426.1564
 -39652394.54746 -30866563.34744  23305029.3674                   23305030.2814
 -12228717.75447  -9507318.35045  22675860.7894                   22675863.0394
  -9287181.25446  -7211469.36344  22751190.1804                   22751190.5904
 11  8 26  0 45 30.0000000  0  8G17G10G12G05G02G04G25G30
 -51289490.92246 -39937716.72243  24385150.5164                   24385152.3634
 -32744662.62147 -25494481.14245  21561821.7894                   21561821.5044
 -29891333.59448 -23267118.65046  20889109.2814                   20889108.8754
 -28518269.61348 -22200192.15446  20720648.3984                   20720648.2074
 -40008323.30548 -31146982.31646  20967348.8204                   20967346.1954
 -39619563.05146 -30840980.37044  23311276.5704                   23311277.8954
 -12347643.05547  -9599987.41945  22653229.9694                   22653231.7894
  -9404133.84047  -7302601.24244  22728934.7504                   22728935.2274
 11  8 26  0 46  0.0000000  0  8G17G10G12G05G02G04G25G30
 -51268559.08246 -39921406.19744  24389133.2504                   24389135.9804
 -32732389.76247 -25484917.86545  21564157.1884                   21564157.3524
 -29949891.50047 -23312748.17746  20877966.5314                   20877965.5944
 -28613009.90248 -22274015.70246  20702619.8364                   20702619.8204
 -40034844.02747 -31167647.78546  20962302.1484                   20962299.4694
 -39586739.16846 -30815403.32644  23317522.5004                   23317523.7034
 -12466136.23447  -9692319.74645  22630681.3444                   22630683.5044
  -9520602.76647  -7393356.22744  22706771.3594                   22706771.7384
 11  8 26  0 46 30.0000000  0  8G17G10G12G05G02G04G25G30
 -51247428.95746 -39904941.18443  24393154.0554                   24393156.5864
 -32719599.07847 -25474951.12045  21566591.6174                   21566591.1484
 -30007864.44948 -23357921.88946  20866935.0634                   20866933.6334
 -28707209.64548 -22347418.04346  20684694.1334                   20684693.9694
 -40061192.93047 -31188179.39346  20957288.1644                   20957285.2194
 -39553925.51646 -30789834.29743  23323767.0944                   23323768.1604
 -12584196.50447  -9784314.73445  22608215.0864                   22608217.0634
  -9636587.37947  -7483733.83344  22684699.9454                   22684700.8594
 11  8 26  0 47  0.0000000  0  8G17G10G12G05G02G04G25G30
 -51226101.25446 -39888322.15644  24397213.0864                   24397215.2074
 -32706293.64547 -25464583.25145  21569123.0944                   21569123.0004
 -30065252.55547 -23402639.87646  20856014.0864                   20856013.1374
 -28800867.90648 -22420398.46046  20666871.7734                   20666871.5124
 -40087371.79747 -31208578.49446  20952306.1954                   20952303.9804
 -39521123.75246 -30764274.46943  23330008.9614                   23330010.0514
 -12701822.26647  -9875971.17345  22585831.7034                   22585833.6804
  -9752086.07046  -7573732.82844  22662721.5784                   22662722.0554
 11  8 26  0 47 30.0000000  0  8G17G10G12G05G02G04G25G30
 -51204575.16446 -39871548.63244  24401309.2114                   24401312.2814
 -32692474.64847 -25453815.20945  21571753.1644                   21571752.7114
 -30122054.76647 -23446901.33746  20845204.7584                   20845203.9414
 -28893982.42648 -22492955.17546  20649152.5784                   20649152.4734
 -40113380.99647 -31228845.39946  20947357.0474                   20947353.9454
 -39488333.71646 -30738723.89743  23336248.6334                   23336249.7704
 -12819010.09447  -9967286.33445  22563531.6174                   22563533.8364
  -9867095.51247  -7663350.56844  22640835.7974                   22640836.2894
 11  8 26  0 48  0.0000000  0  8G17G10G12G05G02G04G25G30
 -51182851.12946 -39854620.79144  24405443.4844                   24405445.9924
 -32678144.84447 -25442649.13045  21574480.1414                   21574479.8554
 -30178270.93447 -23490706.13446  20834507.5784                   20834506.2664
 -28986552.24248 -22565087.45046  20631537.0784                   20631536.7854
 -40139221.59047 -31248980.91846  20942439.8204                   20942437.0124
 -39455556.77046 -30713183.39543  23342485.7194                   23342487.8834
 -12935758.11347 -10058258.77845  22541314.9144                   22541317.3364
  -9981613.98446  -7752585.74544  22619044.1024                   22619044.3134
 11  8 26  0 48 30.0000000  0  9G17G29G10G12G05G02G04G25G30
 -51160933.19546 -39837541.92943  24409613.6804                   24409616.6414
   4537534.59056   3550557.05053  24690744.7274                   24690745.7774
 -32663310.78947 -25431090.13445  21577303.2344                   21577302.8244
 -30233904.35547 -23534056.86046  20823920.8674                   20823920.0474
 -29078580.09048 -22636797.41746  20614024.8204                   20614024.5394
 -40164898.86748 -31268989.18746  20937553.7194                   20937550.5044
 -39422797.88746 -30687657.07443  23348719.6024                   23348721.7034
 -13052068.02047 -10148889.81345  22519182.0474                   22519183.8204
 -10095643.24646  -7841439.70344  22597344.8594                   22597345.1174
 11  8 26  0 49  0.0000000  0  9G17G29G10G12G05G02G04G25G30
 -51138827.07446 -39820316.38243  24413820.6024                   24413823.4774
   4409194.80946   3450552.10443  24666322.0554                   24666323.5554
 -32647980.73047 -25419144.63445  21580219.7814                   21580219.9144
 -30288960.64147 -23576957.86146  20813443.9614                   20813442.9304
 -29170070.48448 -22708088.58646  20596614.7274                   20596614.3204
 -40190419.98847 -31288875.77746  20932696.9844                   20932694.0704
 -39390063.76246 -30662150.01744  23354948.8134                   23354950.3834
 -13167943.51647 -10239182.34445  22497131.8674                   22497133.4844
 -10209187.08246  -7929915.44944  22575738.2424                   22575738.5354
 11  8 26  0 49 30.0000000  0  9G17G29G10G12G05G02G04G25G30
 -51116539.67646 -39802949.58943  24418061.2194                   24418064.2664
   4280762.89846   3350475.41243  24641882.0084                   24641883.2934
 -32632163.74247 -25406819.71845  21583229.7584                   21583229.5274
 -30343445.89547 -23619413.92246  20803075.4304                   20803074.5744
 -29261028.71948 -22778965.09846  20579305.6414                   20579305.7934
 -40215792.31247 -31308646.42246  20927868.5864                   20927866.1454
 -39357362.07446 -30636668.18043  23361171.8834                   23361173.1914
 -13283388.94147 -10329139.76345  22475163.0084                   22475165.1914
 -10322249.85547  -8018016.31044  22554223.1804                   22554222.7274
 11  8 26  0 50  0.0000000  0  9G17G29G10G12G05G02G04G25G30
 -51094068.02046 -39785439.17843  24422337.8754                   24422340.4804
   4152242.61746   3250329.78343  24617425.3054                   24617427.1914
 -32615858.84447 -25394114.59945  21586332.7034                   21586332.3834
 -30397356.76247 -23661422.40446  20792816.7504                   20792815.9574
 -29351450.64848 -22849423.70146  20562099.4844                   20562098.6294
 -40241013.97747 -31328299.67246  20923069.0634                   20923066.4734
 -39324690.67647 -30611210.01143  23367388.7504                   23367390.2344
 -13398398.95747 -10418757.89745  22453277.1644                   22453279.2854
 -10434826.36347  -8105738.25244  22532800.4064                   22532800.6024
 11  8 26  0 50 30.0000000  0  9G17G29G10G12G05G02G04G25G30
 -51071414.12546 -39767786.85143  24426648.8054                   24426651.3204
   4023632.56646   3150114.27843  24592951.6564                   24592953.1914
 -32599070.78547 -25381032.99645  21589526.9454                   21589526.6214
 -30450695.23847 -23702984.85546  20782666.7114                   20782665.9264
 -29441336.98848 -22919464.96446  20544994.7894                   20544993.6724
 -40266087.79347 -31347837.71546  20918297.5084                   20918295.0004
 -39292052.55546 -30585777.72043  23373600.1644                   23373600.7814
 -13512973.37947 -10508036.59145  22431474.5704                   22431476.9694
 -10546916.51247  -8193081.20844  22511470.9064                   22511470.5044
 11  8 26  0 51  0.0000000  0  9G17G29G10G12G05G02G04G25G30
 -51048574.51646 -39749989.74443  24430994.5634                   24430997.4924
   3894936.93046   3049832.03943  24568461.8364                   24568463.5704
 -32581798.56247 -25367574.11845  21592813.4384                   21592813.8794
 -30503457.57447 -23744098.38546  20772626.5704                   20772625.6994
 -29530682.96548 -22989085.16046  20527992.5634                   20527991.9454
 -40291011.57847 -31367258.85646  20913555.0634                   20913552.5904
 -39259444.91846 -30560369.23643  23379805.3364                   23379806.2344
 -13627106.53947 -10596971.44445  22409755.3134                   22409757.7234
 -10658514.61747  -8280040.75044  22490234.1414                   22490233.8204
 11  8 26  0 51 30.0000000  0  9G17G29G10G12G05G02G04G25G30
 -51025549.40246 -39732048.10443  24435376.4304                   24435379.1334
   3766156.08246   2949483.37843  24543955.9454                   24543956.9024
 -32564044.41847 -25353739.69545  21596192.4144                   21596192.2774
 -30555643.30547 -23784762.59346  20762695.9384                   20762694.7504
 -29619487.19548 -23058283.21946  20511093.7274                   20511093.0594
 -40315786.12147 -31386563.70446  20908840.5474                   20908838.0004
 -39226868.54346 -30534985.10043  23386003.9844                   23386005.4264
 -13740796.09447 -10685560.60545  22388121.1174                   22388123.5704
 -10769618.66047  -8366615.31144  22469091.3754                   22469091.8324
 11  8 26  0 52  0.0000000  0  9G17G29G10G12G05G02G04G25G30
 -51002335.62146 -39713959.46542  24439793.7114                   24439796.6804
   3637293.86346   2849071.36244  24519433.8524                   24519435.3054
 -32545807.44147 -25339529.06345  21599662.5784                   21599662.3244
 -30607249.04747 -23824974.87846  20752875.7034                   20752875.1214
 -29707745.29348 -23127055.72846  20494298.3594                   20494297.8634
 -40340409.15647 -31405750.49746  20904155.0004                   20904152.2464
 -39194321.23046 -30509623.56343  23392197.9924                   23392198.8594
 -13854036.59847 -10773799.88945  22366572.0944                   22366574.7234
 -10880223.18447  -8452800.58544  22448044.3444                   22448044.9774
 11  8 26  0 52 30.0000000  0  9G17G29G10G12G05G02G04G25G30
 -50978930.96946 -39695722.05942  24444248.3674                   24444250.2274
   3508353.34046   2748598.30543  24494897.5004                   24494898.4574
 -32527088.22347 -25324942.66445  21603225.0004                   21603224.5274
 -30658272.24647 -23864733.23746  20743166.3754                   20743165.2624
 -29795454.04748 -23195400.17146  20477607.9614                   20477607.5354
 -40364879.55148 -31424818.34646  20899498.2344                   20899495.4304
 -39161801.41846 -30484283.51843  23398386.0634                   23398387.3914
 -13966823.69147 -10861685.86845  22345109.6884                   22345111.5664
 -10990324.00047  -8538593.38244  22427092.4774                   22427093.0704
 11  8 26  0 53  0.0000000  0  9G17G29G10G12G05G02G04G25G30
 -50955339.73446 -39677339.25842  24448737.0084                   24448738.7974
   3379331.21546   2648061.65443  24470345.4064                   24470346.2384
 -32507893.18747 -25309985.48145  21606877.4614                   21606877.0204
 -30708716.52748 -23904040.47746  20733567.1484                   20733566.1414
 -29882616.30548 -23263318.78246  20461021.7894                   20461021.0274
 -40389202.27348 -31443771.13346  20894870.2664                   20894867.5204
 -39129313.94946 -30458968.65544  23404568.2034                   23404569.9304
 -14079159.18047 -10949219.94145  22323732.6884                   22323735.0204
 -11099923.07846  -8623995.20244  22406236.5084                   22406236.4384
 11  8 26  0 53 30.0000000  0  9G17G29G10G12G05G02G04G25G30
 -50931556.22746 -39658806.67043  24453262.9534                   24453265.0474
   3250233.60546   2547466.21543  24445778.9384                   24445779.6414
 -32488219.15647 -25294655.04745  21610621.5394                   21610621.6844
 -30758576.40648 -23942892.34146  20724079.0474                   20724078.4264
 -29969225.41848 -23330806.36446  20444540.2504                   20444539.4884
 -40413372.60948 -31462605.17246  20890270.8594                   20890267.9844
 -39096854.02046 -30433675.22144  23410745.3134                   23410747.1414
 -14191035.31247 -11036396.09645  22302442.8284                   22302445.3014
 -11209012.57047  -8708999.93844  22385477.4304                   22385477.6334
 11  8 26  0 54  0.0000000  0  8G29G10G12G05G02G04G25G30
   3121059.41046   2446811.04743  24421197.4844                   24421198.0664
 -32468070.65247 -25278954.91945  21614455.6884                   21614455.2114
 -30807853.18447 -23981289.83446  20714701.8834                   20714701.1294
 -30055282.11348 -23397863.48846  20428164.3524                   20428163.5784
 -40437393.48847 -31481322.74946  20885699.5004                   20885697.0434
 -39064424.26246 -30408405.29844  23416916.7034                   23416918.0784
 -14302451.70747 -11123213.99245  22281241.3054                   22281243.6524
 -11317592.48847  -8793607.58744  22364815.7424                   22364815.6524
 11  8 26  0 54 30.0000000  0  8G29G10G12G05G02G04G25G30
   2991810.87946   2346097.97243  24396602.3364                   24396603.2544
 -32447448.40647 -25262885.61545  21618380.0004                   21618379.7234
 -30856545.60947 -24019231.99546  20705435.9614                   20705435.2734
 -30140783.85247 -23464488.18446  20411893.8914                   20411893.4024
 -40461264.18447 -31499923.29546  20881156.8984                   20881154.1254
 -39032024.12146 -30383158.47843  23423082.1484                   23423083.4654
 -14413404.71147 -11209670.85045  22260127.7664                   22260129.5784
 -11425659.19947  -8877815.31544  22344250.7344                   22344251.1994
 11  8 26  0 55  0.0000000  0  8G29G10G12G05G02G04G25G30
   2862497.07846   2245334.04843  24371994.4844                   24371995.3204
 -32426346.36747 -25246442.48445  21622395.2344                   21622394.8754
 -30904645.03947 -24056712.06446  20696282.8524                   20696282.4104
 -30225720.77347 -23530672.76046  20395730.6174                   20395730.0274
 -40484977.52347 -31518401.23246  20876644.5554                   20876641.9534
 -38999645.64846 -30357928.55143  23429243.7814                   23429245.7034
 -14523883.70347 -11295758.32445  22239104.0864                   22239105.8834
 -11533202.18447  -8961614.98044  22323785.7344                   22323786.5004
 11  8 26  0 55 30.0000000  0  8G29G10G12G05G02G04G25G30
   2733126.46146   2144525.86343  24347376.3054                   24347376.8954
 -32404759.39547 -25229621.44645  21626503.3754                   21626502.9414
 -30952143.54347 -24093723.89346  20687244.5314                   20687243.7734
 -30310084.43447 -23596410.62846  20379676.7734                   20379676.0274
 -40508526.47347 -31536751.06546  20872163.4224                   20872160.6174
 -38967281.91846 -30332710.08244  23435402.2114                   23435404.0474
 -14633878.81247 -11381468.77645  22218172.7664                   22218174.5664
 -11640211.80547  -9044999.01844  22303422.3364                   22303423.0904
 11  8 26  0 56  0.0000000  0  8G29G10G12G05G02G04G25G30
   2603701.35546   2043675.23143  24322747.3054                   24322747.5164
 -32382688.77347 -25212423.55145  21630703.1484                   21630702.4884
 -30999039.81647 -24130266.42946  20678320.2664                   20678319.7344
 -30393872.18448 -23661699.75646  20363732.6174                   20363731.9024
 -40531910.41848 -31554972.32846  20867713.7194                   20867710.9414
 -38934932.22346 -30307502.57043  23441557.8674                   23441560.1524
 -14743386.44147 -11466799.36845  22197334.1254                   22197336.3874
 -11746684.62947  -9127964.77944  22283161.6334                   22283161.4534
 11  8 26  0 56 30.0000000  0  8G29G10G12G05G02G04G25G30
   2474218.85246   1942779.88143  24298108.0864                   24298108.3794
 -32360140.29747 -25194853.30645  21634994.4144                   21634993.9774
 -31045336.77048 -24166341.98746  20669510.3364                   20669509.5864
 -30477086.49248 -23726542.02446  20347897.6484                   20347896.8284
 -40555133.68048 -31573068.37646  20863294.8364                   20863291.6994
 -38902600.80946 -30282309.25243  23447710.7274                   23447712.5824
 -14852407.88347 -11551751.11345  22176588.0394                   22176589.8714
 -11852622.10247  -9210513.40944  22263002.6414                   22263002.4654
 11  8 26  0 57  0.0000000  0  8G29G10G12G05G02G04G25G30
   2344674.30146   1841836.12543  24273455.3134                   24273456.4414
 -32337122.11747 -25176917.03345  21639374.2814                   21639374.1844
 -31091040.16048 -24201955.00246  20660813.2194                   20660812.5354
 -30559732.08247 -23790941.14946  20332170.4534                   20332169.9344
 -40578202.96947 -31591044.44046  20858904.3364                   20858901.9104
 -38870293.89846 -30257135.10143  23453858.3834                   23453860.3554
 -14960946.64847 -11636326.77045  22155933.8054                   22155935.2774
 -11958027.76247  -9292647.62244  22242944.1024                   22242944.3364
 11  8 26  0 57 30.0000000  0  8G29G10G12G05G02G04G25G30
   2215069.39146   1740845.40343  24248792.5234                   24248792.9384
 -32313635.91847 -25158616.09345  21643843.7664                   21643843.1684
 -31136149.17248 -24237104.87846  20652229.2344                   20652228.5824
 -30641806.96147 -23854895.56646  20316551.7734                   20316551.7114
 -40601118.05547 -31608900.34446  20854543.7504                   20854540.9804
 -38838011.27746 -30231979.82843  23460001.7344                   23460002.9454
 -15068999.67247 -11720523.91745  22135372.1174                   22135373.8524
 -12062898.77047  -9374365.25344  22222987.9774                   22222987.9734
 11  8 26  0 58  0.0000000  0  8G29G10G12G05G02G04G25G30
   2085406.97746   1639809.84943  24224118.4534                   24224118.7854
 -32289682.08647 -25139950.76645  21648401.3444                   21648401.5474
 -31180661.89548 -24271790.09646  20643758.7114                   20643757.9224
 -30723308.34447 -23918403.09646  20301042.7034                   20301042.2304
 -40623878.15247 -31626635.48746  20850212.8284                   20850210.3164
 -38805751.58246 -30206842.41743  23466140.4774                   23466141.8554
 -15176562.94147 -11804339.46545  22114903.4304                   22114905.5164
 -12167231.37947  -9455663.34544  22203134.0164                   22203134.2194
 11  8 26  0 58 30.0000000  0  8G29G10G12G05G02G04G25G30
   1955681.87146   1538725.48443  24199432.9844                   24199433.8754
 -32265269.17647 -25120927.72845  21653047.4844                   21653047.2854
 -31224584.32448 -24306015.37046  20635400.3134                   20635399.8984
 -30804241.11747 -23981467.54646  20285641.8674                   20285641.1334
 -40646489.64147 -31644254.81646  20845909.6884                   20845907.0274
 -38773521.29346 -30181727.93143  23472274.1564                   23472275.2074
 -15283640.21547 -11887776.29045  22094527.0314                   22094529.5474
 -12271029.37547  -9536544.86744  22183381.9614                   22183382.1134
 11  8 26  0 59  0.0000000  0  8G29G10G12G05G02G04G25G30
   3401324.39146   2665200.24743  24474529.1254                   24474530.5394
 -30664975.35247 -23873945.52345  21957573.4774                   21957573.1724
 -29692489.30548 -23112175.08846  20926948.5944                   20926947.8984
 -29309176.16847 -22816481.83646  20570143.1414                   20570142.2464
 -39093527.38348 -30434154.35746  21141428.9694                   21141426.2504
 -37165896.97746 -28929033.70143  23778194.6804                   23778195.6954
 -13814800.46147 -10743225.83945  22374038.3204                   22374040.4144
 -10798862.12547  -8389401.53144  22463525.9924                   22463526.6564
 11  8 26  0 59 30.0000000  0  8G29G10G12G05G02G04G25G30
   3271482.37946   2564024.73943  24449820.7194                   24449821.6914
 -30639645.69147 -23854208.12645  21962393.2114                   21962393.1024
 -29735224.49648 -23145475.21946  20918816.4694                   20918815.6914
 -29388962.32848 -22878652.83246  20554960.0634                   20554959.7584
 -39115838.41848 -30451539.55446  21137183.0944                   21137180.5554
 -37133721.28146 -28903961.74443  23784317.3134                   23784318.8914
 -13920893.19547 -10825895.48945  22353849.1484                   22353851.1724
 -10901579.07447  -8469440.68944  22443979.3594                   22443979.7304
 11  8 26  1  0  0.0000000  0  8G29G10G12G05G02G04G25G30
   3141582.91846   2462804.46443  24425101.9924                   24425102.7154
 -30613861.98447 -23834116.92345  21967299.4144                   21967299.7034
 -29777367.00848 -23178313.52846  20910797.3834                   20910796.3444
 -29468174.71947 -22940376.72946  20539886.8054                   20539886.1564
 -39138000.72348 -30468808.86746  21132965.6254                   21132962.8014
 -37101574.48046 -28878912.30643  23790434.5864                   23790435.4104
 -14026491.12947 -10908179.57745  22333754.3754                   22333756.7704
 -11003753.24647  -8549056.91744  22424536.5634                   22424536.4924
 11  8 26  1  0 30.0000000  0  8G29G10G12G05G02G04G25G30
   3011628.44946   2361541.36444  24400372.9304                   24400373.3054
 -30587625.41047 -23813672.84645  21972292.3754                   21972292.3674
 -29818914.97748 -23210688.56446  20902890.5084                   20902889.5274
 -29546810.66448 -23001651.44746  20524922.7034                   20524921.8914
 -39160013.78548 -30485961.88246  21128776.9534                   21128773.7154
 -37069455.48047 -28853884.51443  23796546.6174                   23796548.2234
 -14131590.66447 -10990075.30445  22313754.9304                   22313757.0784
 -11105381.07847  -8628247.42744  22405197.0554                   22405197.3244
 11  8 26  1  1  0.0000000  0  8G29G10G12G05G02G04G25G30
   2881617.31346   2260234.07744  24375632.3984                   24375633.3914
 -30560941.11747 -23792879.89145  21977370.4224                   21977369.5824
 -29859870.94548 -23242602.31146  20895096.9384                   20895096.0394
 -29624872.02347 -23062478.44346  20510067.7734                   20510067.4414
 -39181880.88348 -30503001.17846  21124615.6804                   21124612.8874
 -37037367.28546 -28828880.78043  23802652.6174                   23802654.0904
 -14236192.19147 -11071582.96445  22293849.8674                   22293851.8674
 -11206463.31247  -8707012.77144  22385961.9384                   22385962.1764
 11  8 26  1  1 30.0000000  0  8G29G10G12G05G02G04G25G30
   2751548.59046   2158881.91743  24350881.1024                   24350881.4694
 -30533813.22347 -23771741.28545  21982532.5474                   21982532.1724
 -29900237.82848 -23274057.01346  20887415.4304                   20887414.3404
 -29702359.72348 -23122858.42946  20495322.9774                   20495321.9844
 -39203604.61348 -30519928.73746  21120481.7034                   21120479.1374
 -37005312.32847 -28803902.95343  23808752.8914                   23808753.5744
 -14340295.55147 -11152702.43545  22274039.8754                   22274041.6414
 -11306999.93447  -8785352.99245  22366830.3134                   22366830.4924
 11  8 26  1  2  0.0000000  0  8G29G10G12G05G02G04G25G30
   2621426.69946   2057488.33643  24326119.1564                   24326120.3094
 -30506240.85947 -23750256.33145  21987779.6094                   21987779.3754
 -29940011.69548 -23305049.63546  20879846.5554                   20879845.8364
 -29779269.39548 -23182788.01946  20480687.0164                   20480686.7424
 -39225182.07048 -30536742.31646  21116375.7114                   21116373.0084
 -36973287.64546 -28778948.63943  23814846.9064                   23814847.8054
 -14443895.22347 -11233429.40545  22254325.1334                   22254327.3054
 -11406985.57047  -8863263.87444  22347804.2664                   22347804.3674
 11  8 26  1  2 30.0000000  0  8G29G10G12G05G02G04G25G30
   2491249.68846   1956051.78344  24301347.4384                   24301348.2154
 -30478229.39547 -23728429.22745  21993110.1804                   21993109.8634
 -29979195.30148 -23335582.31346  20872390.2894                   20872389.4064
 -29855603.17248 -23242268.85446  20466161.4694                   20466160.6684
 -39246617.09448 -30553444.92046  21112296.6954                   21112293.9774
 -36941296.51646 -28754020.52043  23820934.5004                   23820935.0904
 -14546991.96148 -11313764.48645  22234706.9534                   22234708.4804
 -11506421.14547  -8940746.10544  22328882.2664                   22328881.8054
 11  8 26  1  3  0.0000000  0  8G29G10G12G05G02G04G25G30
   2361017.54346   1854572.29944  24276565.2974                   24276566.0354
 -30449782.96947 -23706263.20445  21998522.8054                   21998522.7734
 -30017790.36748 -23365656.39746  20865045.6564                   20865045.1764
 -29931361.34448 -23301301.14346  20451744.7664                   20451744.1844
 -39267911.62948 -30570038.03746  21108244.4454                   21108241.3324
 -36909340.82847 -28729120.03643  23827015.5864                   23827016.2464
 -14649585.02747 -11393707.08345  22215183.6254                   22215185.8324
 -11605306.25447  -9017799.42044  22310064.8204                   22310064.4064
 11  8 26  1  3 30.0000000  0  8G29G10G12G05G02G04G25G30
   2230734.23846   1753052.96144  24251773.0314                   24251774.0704
 -30420900.25047 -23683757.19645  22004018.9844                   22004019.1254
 -30055793.37148 -23395269.13146  20857814.1884                   20857813.3284
 -30006539.38348 -23359881.40746  20437438.9144                   20437438.8794
 -39289062.88348 -30586519.51546  21104219.7034                   21104216.4264
 -36877417.23846 -28704244.49443  23833091.0084                   23833091.2074
 -14751668.87147 -11473252.90145  22195757.8674                   22195759.6134
 -11703635.42247  -9094419.51845  22291352.9774                   22291353.4304
 11  8 26  1  4  0.0000000  0  8G29G10G12G05G02G04G25G30
   2100398.09046   1651492.41644  24226970.6954                   24226971.6914
 -30391587.40647 -23660916.03445  22009597.5474                   22009596.8244
 -30093207.91048 -23424423.31846  20850694.3284                   20850693.7274
 -30081140.72348 -23418012.29046  20423242.8134                   20423242.5634
 -39310074.66047 -30602892.30646  21100221.1804                   21100218.1214
 -36845529.89546 -28679397.21943  23839159.0944                   23839160.0904
 -14853245.00047 -11552403.06545  22176428.5554                   22176430.4024
 -11801410.39847  -9170607.79145  22272747.7424                   22272747.4804
 11  8 26  1  4 30.0000000  0  8G29G10G12G05G02G04G25G30
   1970011.32446   1549892.44243  24202158.6174                   24202159.3524
 -30361845.18047 -23637740.28745  22015257.2274                   22015256.8674
 -30130033.08248 -23453118.26346  20843686.9304                   20843686.1374
 -30155162.66448 -23475691.68046  20409156.9694                   20409156.4774
 -39330946.54748 -30619156.09446  21096248.9774                   21096246.7584
 -36813677.64146 -28654577.34543  23845219.5864                   23845221.1454
 -14954309.75847 -11631154.77945  22157196.3754                   22157198.2854
 -11898627.82847  -9246361.59845  22254247.8524                   22254247.1454
 11  8 26  1  5  0.0000000  0  8G29G10G12G05G02G04G25G30
   1839573.49846   1448252.59843  24177337.1024                   24177338.1454
 -30331677.87147 -23614233.30245  22020997.3754                   22020997.9734
 -30166270.74248 -23481355.39946  20836791.4614                   20836789.9924
 -30228605.96548 -23532920.19246  20395181.0864                   20395180.4694
 -39351680.32048 -30635312.26746  21092303.5084                   21092300.9734
 -36781862.23046 -28629786.18243  23851273.7974                   23851275.1804
 -15054862.75847 -11709507.71345  22138061.7504                   22138063.9104
 -11995287.43047  -9321680.73844  22235854.0394                   22235853.6524
 11  8 26  1  5 30.0000000  0  8G29G10G12G05G02G04G25G30
   1709082.87546   1346571.73343  24152505.7194                   24152506.0594
 -30301090.69147 -23590399.15645  22026818.4534                   22026818.1414
 -30201923.08648 -23509136.45946  20830006.5704                   20830005.6094
 -30301472.76648 -23589699.48046  20381314.7664                   20381314.4104
 -39372279.64148 -30651363.66346  21088383.7424                   21088381.1334
 -36750086.88346 -28605026.20543  23857320.9144                   23857322.8364
 -15154904.73847 -11787462.45645  22119024.4454                   22119026.2814
 -12091390.21147  -9396566.02045  22217566.0164                   22217565.7464
 11  8 26  1  6  0.0000000  0  8G29G10G12G05G02G04G25G30
   1578543.25446   1244852.55743  24127664.7664                   24127665.1884
 -30270083.93447 -23566238.06544  22032718.3594                   22032718.8054
 -30236988.41048 -23536460.10646  20823334.2734                   20823332.9344
 -30373759.73448 -23646026.95846  20367559.2034                   20367558.7704
 -39392742.54748 -30667308.77846  21084489.8444                   21084487.3484
 -36718349.30146 -28580295.64143  23863360.1884                   23863361.9024
 -15254431.16048 -11865015.48945  22100085.0864                   22100087.0274
 -12186931.82847  -9471014.00045  22199385.2894                   22199384.9384
 11  8 26  1  6 30.0000000  0  8G29G10G12G05G02G04G25G30
   1447955.68446   1143096.10243  24102814.7034                   24102814.9184
 -30238659.35947 -23541751.38945  22038698.5554                   22038698.5704
 -30271467.19148 -23563326.67346  20816772.9384                   20816772.0044
 -30445465.86748 -23701901.82746  20353913.9064                   20353913.3204
 -39413069.35548 -30683147.83146  21080622.0394                   21080619.3164
 -36686649.82446 -28555594.81543  23869392.3914                   23869394.5744
 -15353439.80948 -11942165.02945  22081244.3444                   22081246.2504
 -12281910.28947  -9545023.14044  22181311.2664                   22181311.0744
 11  8 26  1  7  0.0000000  0  8G29G10G12G05G02G04G25G30
   1317322.46146   1041304.02043  24077955.8594                   24077956.1054
 -30206819.05947 -23516940.77745  22044757.8284                   22044757.8364
 -30305358.10948 -23589735.20846  20810323.6094                   20810322.5004
 -30516589.78948 -23757323.03647  20340379.3834                   20340378.8874
 -39433259.91448 -30698880.73246  21076779.8364                   21076776.8204
 -36654987.76646 -28530923.09343  23875417.6484                   23875419.1254
 -15451927.87948 -12018908.94845  22062502.7504                   22062504.5824
 -12376323.06647  -9618591.51145  22163344.8674                   22163344.4024
 11  8 26  1  7 30.0000000  0  8G29G10G12G05G02G04G25G30
   1186641.68846    939474.95943  24053087.4614                   24053088.4414
 -30174568.51247 -23491810.49944  22050894.5394                   22050894.5514
 -30338665.23048 -23615688.82346  20803985.1564                   20803984.3714
 -30587133.78548 -23812292.35446  20326955.4614                   20326955.0314
 -39453317.76647 -30714510.19846  21072962.7274                   21072960.4104
 -36623366.69946 -28506283.35043  23881434.9064                   23881436.2194
 -15549896.58247 -12095248.16145  22043860.0394                   22043861.7734
 -12470171.52347  -9691720.13645  22145486.4454                   22145486.1174
 11  8 26  1  8  0.0000000  0  8G29G10G12G05G02G04G25G30
   1055918.88346    837613.02343  24028212.4844                   24028211.8164
 -30141906.01647 -23466359.20844  22057109.7344                   22057110.1374
 -30371384.08648 -23641184.03646  20797759.1564                   20797758.2774
 -30657093.16847 -23866806.12147  20313642.5784                   20313642.3914
 -39473239.23048 -30730033.41446  21069171.8364                   21069168.8094
 -36591782.53146 -28481672.33943  23887445.3444                   23887446.9654
 -15647339.53147 -12171177.70045  22025317.0864                   22025318.6844
 -12563449.62147  -9764404.32445  22127735.9844                   22127735.5824
 11  8 26  1  8 30.0000000  0  8G29G10G12G05G02G04G25G30
    925153.03946    735717.59643  24003328.6254                   24003328.2854
 -30108836.50847 -23440590.78844  22063402.7734                   22063402.9924
 -30403516.86347 -23666222.57346  20791644.8754                   20791643.7504
 -30726469.08248 -23920865.24247  20300440.5864                   20300440.1374
 -39493026.84847 -30745452.33246  21065406.6334                   21065403.6764
 -36560237.48446 -28457091.84044  23893448.0084                   23893450.0474
 -15744257.02048 -12246697.79445  22006874.3754                   22006876.2344
 -12656157.85547  -9836644.48444  22110094.3444                   22110093.7854
 11  8 26  1  9  0.0000000  0  8G29G10G12G05G02G04G25G30
    794342.71146    633787.48743  23978436.4844                   23978436.6604
 -30075364.77747 -23414508.91144  22069772.4144                   22069772.1804
 -30435067.59048 -23690807.56346  20785640.8284                   20785639.9844
 -30795264.02048 -23974471.64646  20287349.5234                   20287348.8954
 -39512684.07847 -30760769.65846  21061665.7584                   21061663.0664
 -36528734.84446 -28432544.34644  23899443.4384                   23899444.5984
 -15840649.85947 -12321809.06745  21988531.3834                   21988532.8594
 -12748297.29747  -9908441.41845  22092560.6024                   22092559.9494
 11  8 26  1  9 30.0000000  0  8G29G10G12G05G02G04G25G30
    663492.96146    531826.64543  23953535.4844                   23953536.9534
 -30041489.91847 -23388112.95044  22076218.6254                   22076218.4614
 -30466032.71148 -23714936.23246  20779748.2424                   20779747.5084
 -30863473.73848 -24027622.04347  20274369.5314                   20274368.9574
 -39532207.76647 -30775982.91946  21057950.4224                   21057947.5984
 -36497271.06646 -28408027.11743  23905430.2424                   23905431.8164
 -15936512.53148 -12396507.23045  21970289.3674                   21970291.3954
 -12839862.68447  -9979791.03645  22075136.1644                   22075136.1134
 11  8 26  1 10  0.0000000  0  8G29G10G12G05G02G04G25G30
    532603.73446    429835.07344  23928628.8674                   23928629.6094
 -30007215.68047 -23361405.75544  22082740.6954                   22082740.9104
 -30496413.22748 -23738609.37646  20773967.0394                   20773965.9494
 -30931098.72348 -24080316.80147  20261500.8754                   20261500.1334
 -39551599.66047 -30791093.47746  21054260.3204                   21054257.7894
 -36465847.61346 -28383541.36043  23911409.9224                   23911411.5474
 -16031844.30148 -12470791.70145  21952148.2814                   21952149.7894
 -12930853.53947 -10050692.97345  22057820.9304                   22057820.9024
 11  8 26  1 10 30.0000000  0  8G29G10G12G05G02G04G25G30
    401673.25047    327811.34444  23903713.6484                   23903714.5044
 -29972547.52347 -23334391.61944  22089337.7894                   22089337.4224
 -30526213.10548 -23761830.05346  20768296.3134                   20768295.1604
 -30998141.03148 -24132557.53146  20248743.1954                   20248742.4804
 -39570862.56247 -30806103.53446  21050594.9224                   21050592.1024
 -36434467.23446 -28359089.15743  23917382.0234                   23917383.0904
 -16126645.97347 -12544663.11945  21934108.3984                   21934109.9654
 -13021270.91447 -10121148.02045  22040615.5084                   22040615.0514
 11  8 26  1 11  0.0000000  0  8G29G10G12G05G02G04G25G30
    270703.29347    225756.79344  23878790.9384                   23878791.5824
 -29937487.19547 -23307071.92544  22096010.1954                   22096009.9534
 -30555432.24248 -23784598.22246  20762736.0634                   20762735.0984
 -31064599.87948 -24184343.61247  20236096.2424                   20236096.0084
 -39589997.13747 -30821013.60046  21046953.4304                   21046950.5904
 -36403130.03946 -28334670.53643  23923345.0634                   23923346.3954
 -16220915.37547 -12618119.77345  21916168.9614                   21916170.7034
 -13111112.89147 -10191154.72045  22023518.5314                   22023518.5554
 11  8 26  1 11 30.0000000  0  8G29G10G12G05G02G04G25G30
    139698.41047    123675.11044  23853861.9774                   23853862.1564
 -29902034.20747 -23279446.23244  22102756.0394                   22102756.0784
 -30584067.80948 -23806911.64846  20757287.1564                   20757286.3404
 -31130471.73448 -24235672.29747  20223561.6024                   20223560.7624
 -39609000.15247 -30835821.14746  21043337.2344                   21043334.3914
 -36371832.76246 -28310283.07443  23929300.4064                   23929302.3714
 -16314647.27048 -12691157.59345  21898332.7424                   21898334.4304
 -13200374.53947 -10260709.23345  22006532.9304                   22006532.7704
 11  8 26  1 12  0.0000000  0  8G29G10G12G05G02G04G25G30
      8654.48447     21562.97644  23828924.6564                   23828925.6374
 -29866196.98047 -23251521.15044  22109576.1094                   22109575.9184
 -30612126.10548 -23828775.26946  20751947.6024                   20751946.7704
 -31195761.74648 -24286547.58847  20211137.0864                   20211136.7234
 -39627878.15647 -30850531.27146  21039745.0234                   21039742.3244
 -36340581.31646 -28285931.32043  23935247.5554                   23935248.9534
 -16407845.66847 -12763779.68845  21880597.4064                   21880599.1294
 -13289060.10247 -10329814.84045  21989656.4924                   21989656.2234
 11  8 26  1 12 30.0000000  0  8G29G10G12G05G02G04G25G30
   -122424.35546    -80576.35444  23803981.1334                   23803982.1214
 -29829974.58647 -23223295.92844  22116468.9774                   22116468.5474
 -30639604.37148 -23850186.91046  20746718.5084                   20746717.5744
 -31260466.16047 -24336966.58547  20198824.3984                   20198823.5904
 -39646628.44547 -30865141.90046  21036177.0944                   21036173.8404
 -36309372.83246 -28261613.06043  23941186.6094                   23941187.2154
 -16500505.66047 -12835982.27045  21862965.1024                   21862966.7704
 -13377165.03547 -10398468.01145  21972890.4304                   21972890.8834
 11  8 26  1 13  0.0000000  0  8G29G10G12G05G02G04G25G30
   -253536.91046   -182741.90944  23779031.6724                   23779032.0234
 -29793370.29347 -23194773.12044  22123434.2194                   22123434.2234
 -30666503.48448 -23871147.26546  20741599.8754                   20741599.0124
 -31324585.07848 -24386929.35347  20186622.6254                   20186622.1024
 -39665251.79747 -30879653.60446  21032633.1024                   21032630.1524
 -36278207.78146 -28237328.58043  23947116.2194                   23947117.8364
 -16592625.85547 -12907764.22345  21845434.6884                   21845436.7734
 -13464688.12947 -10466667.81045  21956235.8834                   21956235.4184
 11  8 26  1 13 30.0000000  0  8G29G10G12G05G02G04G25G30
   -384679.20746   -284930.67744  23754075.7664                   23754076.5234
 -29756383.68747 -23165952.41144  22130472.8984                   22130472.4574
 -30692821.55547 -23891654.86146  20736592.0634                   20736590.9884
 -31388115.18748 -24436433.30147  20174533.5634                   20174532.6134
 -39683745.84847 -30894064.56746  21029113.6724                   21029111.0394
 -36247083.66846 -28213076.07443  23953039.7814                   23953041.6724
 -16684201.71547 -12979122.01245  21828008.6024                   21828009.8794
 -13551625.14147 -10534410.92145  21939692.3914                   21939692.0634
 11  8 26  1 14  0.0000000  0  8G29G10G12G05G02G04G25G30
   -515851.51246   -387142.79044  23729113.9774                   23729114.7074
 -29719018.81247 -23136836.95144  22137582.8914                   22137583.2584
 -30718560.59848 -23911711.26346  20731693.7034                   20731692.8204
 -31451057.78148 -24485479.45447  20162555.8834                   20162555.1094
 -39702112.50447 -30908376.25446  21025618.7034                   21025615.8634
 -36216002.04746 -28188856.67642  23958954.8284                   23958955.9614
 -16775233.00047 -13050055.46345  21810686.0864                   21810688.0664
 -13637976.13347 -10601697.39745  21923260.6724                   21923260.0634
 11  8 26  1 14 30.0000000  0  8G29G10G12G05G02G04G25G30
   -647054.23446   -489378.58644  23704147.4064                   23704147.5274
 -29681280.51647 -23107430.51244  22144763.8834                   22144764.3794
 -30743723.08248 -23931318.39746  20726905.6414                   20726904.8164
 -31513414.74648 -24534069.26347  20150689.4694                   20150688.9184
 -39720354.46147 -30922590.78546  21022147.4774                   21022144.7814
 -36184965.23446 -28164672.19643  23964860.7734                   23964862.3284
 -16865720.05147 -13120564.83345  21793466.9534                   21793468.6024
 -13723741.77047 -10668527.75345  21906939.1884                   21906939.3954
 11  8 26  1 15  0.0000000  0  8G29G10G12G05G02G04G25G30
   -778290.54346   -591640.53043  23679173.3674                   23679173.8954
 -29643175.70347 -23077738.48144  22152015.3524                   22152015.3404
 -30768314.42247 -23950480.47646  20722226.0704                   20722225.3094
 -31575190.13748 -24582205.90447  20138934.3134                   20138933.4144
 -39738476.03147 -30936711.47646  21018698.8674                   21018696.3634
 -36153977.57046 -28140525.99642  23970756.5394                   23970758.7194
 -16955665.50447 -13190652.17845  21776350.7034                   21776352.4384
 -13808924.91447 -10734904.22945  21890729.8754                   21890729.6054
 11  8 26  1 15 30.0000000  0  8G29G10G12G05G02G04G25G30
    665868.88746    533678.61744  23953987.6804                   23953988.5234
 -28029284.12947 -21820160.65144  22459128.6334                   22459129.0514
 -29216910.84848 -22741594.59546  21017448.4064                   21017447.5514
 -30060957.79347 -23402284.56247  20427082.9694                   20427082.1564
 -38181054.03148 -29723135.87946  21315066.8284                   21315063.7894
 -34547616.65246 -26888816.19542  24276437.2734                   24276438.3874
 -15469641.12547 -12032711.08545  22059131.3054                   22059133.2074
 -12318097.84047  -9573220.77845  22174424.5004                   22174424.4344
 11  8 26  1 16  0.0000000  0  8G29G10G12G05G02G04G25G30
    534576.05546    431372.66443  23929003.5704                   23929004.3324
 -27990446.87547 -21789897.87244  22466519.3284                   22466519.3554
 -29240355.23047 -22759862.95446  21012987.1484                   21012986.2194
 -30121562.25048 -23449508.78747  20415550.5864                   20415549.5474
 -38198930.51648 -29737065.62546  21311665.0004                   21311661.8284
 -34516721.28546 -26864741.93042  24282317.1884                   24282317.7974
 -15558491.92647 -12101945.44245  22042223.9534                   22042225.2344
 -12402105.46547  -9638681.22245  22158438.3284                   22158438.7774
 11  8 26  1 16 30.0000000  0  8G29G10G12G05G02G04G25G30
    403256.16046    329045.57143  23904013.6094                   23904014.5744
 -27951248.28947 -21759353.55444  22473978.3524                   22473979.0554
 -29263228.14848 -22777686.01746  21008634.5164                   21008633.5474
 -30181581.50448 -23496276.99147  20404128.8984                   20404128.0944
 -38216685.51247 -29750900.68446  21308286.0704                   21308283.4694
 -34485872.78146 -26840704.18442  24288187.3754                   24288188.3754
 -15646793.61347 -12170751.94145  22025420.6094                   22025422.3674
 -12485524.02347  -9703682.67945  22142564.3754                   22142564.2464
 11  8 26  1 17  0.0000000  0  9G26G29G10G12G05G02G04G25G30
   7672181.31356   5994346.10053  24956883.6954                   24956888.0864
    271908.89546    226697.17743  23879019.6094                   23879019.7544
 -27911692.95747 -21728531.23344  22481506.2814                   22481505.6804
 -29285532.07448 -22795065.69646  21004389.8364                   21004389.2154
 -30241017.59448 -23542590.80547  20392818.8674                   20392817.8714
 -38234321.50847 -29764643.03446  21304930.0084                   21304927.1844
 -34455073.45346 -26816704.73442  24294047.5394                   24294049.8324
 -15734546.60547 -12239130.86545  22008721.6724                   22008723.4734
 -12568354.19947  -9768225.64045  22126802.3834                   22126801.7624
 11  8 26  1 17 30.0000000  0  9G26G29G10G12G05G02G04G25G30
   7532806.89846   5885743.00043  24930361.4454                   24930365.6024
    140527.41846    124322.15244  23854018.9224                   23854018.4414
 -27871791.89147 -21697439.50744  22489098.7344                   22489098.9844
 -29307276.13748 -22812009.13246  21000252.6564                   21000251.8134
 -30299878.61348 -23588456.50447  20381617.5944                   20381617.1134
 -38251847.68047 -29778299.80246  21301594.8984                   21301592.2584
 -34424331.61346 -26792750.11342  24299897.4774                   24299899.1214
 -15821757.63347 -12307087.49045  21992126.0864                   21992127.7194
 -12650603.08647  -9832315.64945  22111150.7344                   22111150.5944
 11  8 26  1 18  0.0000000  0  9G26G29G10G12G05G02G04G25G30
   7393285.11346   5777024.98943  24903810.9614                   24903815.3484
      9107.92647     21917.44644  23829009.8134                   23829010.0234
 -27831552.54346 -21666084.19644  22496755.7424                   22496756.1374
 -29328466.07047 -22828520.77146  20996220.4224                   20996219.4774
 -30358169.14548 -23633877.66647  20370525.4844                   20370524.7504
 -38269268.57047 -29791874.51746  21298280.1334                   21298276.8284
 -34393652.10946 -26768843.99043  24305736.5004                   24305736.7384
 -15908430.00048 -12374624.38145  21975633.5004                   21975634.5354
 -12732274.28947  -9895955.51945  22095609.2034                   22095608.8134
 11  8 26  1 18 30.0000000  0  9G26G29G10G12G05G02G04G25G30
   7253618.51646   5668194.14643  24877233.5314                   24877237.0594
   -122348.41447    -80515.98944  23803994.5474                   23803994.6374
 -27790977.71546 -21634467.47044  22504477.1174                   22504477.6294
 -29349102.49247 -22844601.11046  20992293.0634                   20992292.3444
 -30415889.33248 -23678854.40347  20359541.5554                   20359540.9924
 -38286585.06247 -29805367.89546  21294984.3364                   21294981.6334
 -34363035.35946 -26744986.86743  24311561.8984                   24311563.5904
 -15994562.41847 -12441740.52145  21959242.3444                   21959244.0474
 -12813366.79747  -9959144.44445  22080177.8914                   22080177.5904
 11  8 26  1 19  0.0000000  0  9G26G29G10G12G05G02G04G25G30
   7113811.92646   5559254.22943  24850629.1644                   24850632.6254
   -253837.90247   -182975.24944  23778973.1804                   23778972.6994
 -27750067.91846 -21602589.75544  22512261.9304                   22512262.5554
 -29369185.39547 -22860250.13146  20988471.6644                   20988470.6134
 -30473037.37548 -23723385.32047  20348667.0314                   20348665.8014
 -38303795.77747 -29818778.84646  21291709.6804                   21291706.8054
 -34332479.66046 -26721177.24343  24317377.4844                   24317378.1374
 -16080151.57847 -12508433.35946  21942955.4614                   21942957.1134
 -12893877.72747 -10021880.20045  22064857.4534                   22064856.9384
 11  8 26  1 19 30.0000000  0  9G26G29G10G12G05G02G04G25G30
   6973867.48046   5450206.89143  24823998.0554                   24824001.8094
   -385360.16847   -285460.03044  23753945.6884                   23753945.5084
 -27708827.02746 -21570453.99244  22520110.0314                   22520110.4804
 -29388716.43047 -22875469.13546  20984754.9924                   20984754.2734
 -30529614.13748 -23767471.08447  20337900.0314                   20337899.7854
 -38320902.08647 -29832108.43146  21288454.1884                   21288451.8134
 -34301986.00846 -26697415.96143  24323179.7114                   24323181.1254
 -16165196.95748 -12574702.48146  21926772.0554                   21926773.2894
 -12973806.75847 -10084162.55245  22049647.3204                   22049646.6094
 11  8 26  1 20  0.0000000  0  9G26G29G10G12G05G02G04G25G30
   6833789.53146   5341055.41643  24797342.2274                   24797345.4104
   -516912.84847   -387968.52944  23728911.2034                   23728911.2624
 -27667256.09446 -21538061.09944  22528020.9614                   22528020.1764
 -29407695.05147 -22890257.68246  20981143.4774                   20981142.4804
 -30585618.05948 -23811110.47347  20327243.1024                   20327242.3134
 -38337903.16047 -29845356.02046  21285219.1954                   21285216.5864
 -34271553.30146 -26673702.26043  24328970.7424                   24328971.8594
 -16249695.81247 -12640545.74146  21910691.7274                   21910694.1334
 -13053151.56647 -10145989.63445  22034548.5234                   22034548.1254
 11  8 26  1 20 30.0000000  0  9G26G29G10G12G05G02G04G25G30
   6693585.69546   5231805.89542  24770661.8834                   24770664.3524
   -648489.89147   -490496.01844  23703872.7584                   23703873.0704
 -27625353.60947 -21505409.83844  22535994.8524                   22535994.5164
 -29426118.13748 -22904613.33546  20977637.6174                   20977636.9184
 -30641045.15648 -23854300.40047  20316695.9774                   20316695.0594
 -38354795.02047 -29858518.50446  21282004.3054                   21282001.9414
 -34241177.09846 -26650032.45743  24334750.9224                   24334753.4414
 -16333642.47347 -12705958.72645  21894717.8754                   21894719.5864
 -13131906.77347 -10207357.30645  22019561.7034                   22019561.5824
 11  8 26  1 21  0.0000000  0  9G26G29G10G12G05G02G04G25G30
   6553258.55546   5122460.32442  24743958.0864                   24743961.0124
   -780090.08247   -593041.54744  23678830.6884                   23678830.2974
 -27583122.46946 -21472502.49744  22544031.4614                   22544031.3014
 -29443986.84048 -22918537.01446  20974237.1724                   20974236.5274
 -30695895.53148 -23897040.93147  20306258.2274                   20306257.4304
 -38371578.05147 -29871596.18446  21278811.0164                   21278808.3794
 -34210857.92646 -26626407.17743  24340521.1564                   24340522.2584
 -16417035.72347 -12770940.47645  21878848.3834                   21878850.4494
 -13210071.43447 -10268264.82645  22004687.5864                   22004687.1214
 11  8 26  1 21 30.0000000  0  9G26G29G10G12G05G02G04G25G30
   6412809.85946   5013020.05142  24717232.0474                   24717234.6214
   -911713.61746   -695605.28344  23653783.4454                   23653783.3094
 -27540567.01247 -21439342.41544  22552129.0634                   22552129.1254
 -29461303.58647 -22932030.58846  20970941.9924                   20970941.1644
 -30750170.73048 -23939333.26047  20295929.9534                   20295929.2304
 -38388254.48447 -29884590.80446  21275637.8834                   21275634.8524
 -34180597.29746 -26602827.43943  24346278.8524                   24346281.4184
 -16499875.77747 -12835491.17545  21863084.5634                   21863086.5784
 -13287646.16047 -10328712.64045  21989925.2894                   21989925.3674
 11  8 26  1 22  0.0000000  0  9G26G29G10G12G05G02G04G25G30
   6272246.62545   4903490.51242  24690482.1484                   24690486.1374
  -1043355.01247   -798182.93744  23628732.5634                   23628732.8594
 -27497686.00046 -21405928.67644  22560289.0234                   22560288.7704
 -29478065.38747 -22945091.75246  20967752.2584                   20967751.8284
 -30803867.14548 -23981174.60147  20285711.8284                   20285711.0234
 -38404820.72747 -29897499.55246  21272485.1884                   21272482.4414
 -34150391.37146 -26579290.36343  24352026.8444                   24352028.9924
 -16582157.32847 -12899606.67746  21847426.7814                   21847428.5124
 -13364626.07047 -10388696.99445  21975276.7664                   21975276.1024
 11  8 26  1 22 30.0000000  0  9G26G29G10G12G05G02G04G25G30
   6131570.13345   4793872.75442  24663712.6094                   24663715.7664
  -1175014.42246   -900774.60544  23603678.6334                   23603678.6994
 -27454483.91846 -21372264.70344  22568510.1804                   22568510.1884
 -29494275.05947 -22957722.67446  20964667.6334                   20964667.0164
 -30856986.43748 -24022566.22847  20275603.6884                   20275602.7624
 -38421278.79747 -29910324.02445  21269353.1884                   21269350.3134
 -34120241.66846 -26555797.10743  24357763.8134                   24357765.8674
 -16663880.83647 -12963287.34145  21831875.3364                   21831877.4144
 -13441011.89147 -10448218.39945  21960740.9694                   21960741.1134
 11  8 26  1 23  0.0000000  0  9G26G29G10G12G05G02G04G25G30
   5990780.84845   4684167.10942  24636921.2194                   24636923.8054
  -1306693.48446  -1003381.61644  23578620.5864                   23578621.0554
 -27410965.78946 -21338354.51944  22576791.1644                   22576791.4844
 -29509936.93447 -22969926.74046  20961687.3834                   20961686.6914
 -30909531.46948 -24063510.38347  20265604.7424                   20265603.6604
 -38437631.98047 -29923066.76246  21266241.3524                   21266238.7074
 -34090151.32446 -26532350.10643  24363490.8834                   24363491.5554
 -16745047.64147 -13026534.21445  21816429.9224                   21816431.5554
 -13516805.36347 -10507278.24445  21946318.1094                   21946317.5864
 11  8 26  1 23 30.0000000  0  9G26G29G10G12G05G02G04G25G30
   5849887.90645   4574380.69542  24610109.2034                   24610113.7704
  -1438384.52046  -1105997.97044  23553560.4064                   23553561.1054
 -27367128.40646 -21304195.54744  22585133.2584                   22585132.6954
 -29525046.02347 -22981700.07646  20958812.3674                   20958811.5274
 -30961496.60548 -24104002.67147  20255715.8834                   20255714.9304
 -38453874.43447 -29935723.20646  21263150.6804                   21263148.0394
 -34060114.14846 -26508944.52443  24369206.4694                   24369207.9304
 -16825650.63347 -13089341.76745  21801091.6954                   21801093.2894
 -13591999.63747 -10565871.18345  21932008.6254                   21932008.5204
 11  8 26  1 24  0.0000000  0  9G26G29G10G12G05G02G04G25G30
   5708891.00045   4464513.24642  24583279.1484                   24583282.2194
  -1570089.59846  -1208625.23344  23528497.6414                   23528498.6954
 -27322978.03546 -21269792.69544  22593534.5084                   22593534.3834
 -29539606.60548 -22993046.00346  20956040.9924                   20956040.5354
 -31012885.39548 -24144045.85947  20245937.2274                   20245936.0354
 -38470009.73847 -29948296.16346  21260080.1254                   21260077.3634
 -34030133.77046 -26485583.21043  24374911.4064                   24374913.5434
 -16905691.91848 -13151711.60645  21785860.3444                   21785862.0434
 -13666597.14847 -10623999.12445  21917813.2974                   21917813.7344
 11  8 26  1 24 30.0000000  0  9G26G29G10G12G05G02G04G25G30
   5567790.47746   4354565.04943  24556428.8984                   24556431.3244
  -1701809.45346  -1311263.99444  23503432.4384                   23503433.3794
 -27278519.95746 -21235150.01044  22601994.5944                   22601994.8404
 -29553622.76648 -23003967.69246  20953374.3054                   20953373.7034
 -31063700.67247 -24183642.14647  20236266.9384                   20236266.2384
 -38486041.17247 -29960788.16446  21257029.3914                   21257026.4224
 -34000212.79346 -26462268.15843  24380604.3284                   24380607.0394
 -16985172.99247 -13213644.92846  21770735.5864                   21770737.0824
 -13740599.91847 -10681663.62945  21903731.0554                   21903731.0434
 11  8 26  1 25  0.0000000  0  9G26G29G10G12G05G02G04G25G30
   5426591.78946   4244540.37043  24529559.2894                   24529562.2234
  -1833540.84046  -1413911.81944  23478365.1954                   23478365.0234
 -27233754.62946 -21200267.99844  22610513.7194                   22610513.9144
 -29567093.37548 -23014464.27446  20950811.0944                   20950810.0784
 -31113940.45348 -24222790.01147  20226706.8594                   20226705.8984
 -38501966.96547 -29973197.87246  21253998.6484                   21253995.9654
 -33970349.23446 -26438997.76343  24386286.5634                   24386289.4454
 -17064090.50047 -13275139.09746  21755718.1724                   21755720.0904
 -13814004.91047 -10738862.35245  21889762.8284                   21889762.5234
 11  8 26  1 25 30.0000000  0  9G26G29G10G12G05G02G04G25G30
   5285298.00446   4134441.57643  24502671.2194                   24502674.4694
  -1965281.98846  -1516567.20144  23453295.3134                   23453296.1804
 -27188684.77746 -21165148.65344  22619089.8594                   22619090.3834
 -29580020.09048 -23024537.05346  20948351.3444                   20948350.1914
 -31163605.24647 -24261489.81947  20217255.9304                   20217254.7664
 -38517787.36347 -29985525.45046  21250988.1024                   21250985.7974
 -33940542.85246 -26415772.09442  24391961.0864                   24391961.2384
 -17142443.38347 -13336193.30046  21740807.7344                   21740809.3834
 -13886811.32047 -10795594.62045  21875908.3444                   21875907.8204
 11  8 26  1 26  0.0000000  0  9G26G29G10G12G05G02G04G25G30
   5143910.21146   4024269.60243  24475766.0084                   24475768.8984
  -2097033.50447  -1619230.66644  23428224.3524                   23428224.4804
 -27143315.16446 -21129795.70744  22627723.3834                   22627723.3054
 -29592406.10247 -23034188.48746  20945994.0164                   20945993.2194
 -31212697.09847 -24299743.19147  20207913.8984                   20207912.9694
 -38533504.91847 -29997772.88145  21247997.1174                   21247994.6844
 -33910796.06246 -26392592.78942  24397620.9384                   24397622.2854
 -17220232.45747 -13396808.16745  21726005.4534                   21726007.4964
 -13959020.44947 -10851861.50545  21862167.4844                   21862166.9694
 11  8 26  1 26 30.0000000  0  9G26G29G10G12G05G02G04G25G30
   5002434.86346   3914029.19443  24448844.2894                   24448847.3794
  -2228790.83246  -1721898.70544  23403151.6884                   23403151.7934
 -27097645.23046 -21094208.79444  22636414.5944                   22636414.3094
 -29604249.35947 -23043417.02146  20943740.4384                   20943739.3594
 -31261213.53548 -24337548.18147  20198681.5314                   20198680.4884
 -38549116.69947 -30009937.89446  21245026.7114                   21245023.6374
 -33881105.66446 -26369457.40242  24403270.6174                   24403272.3754
 -17297453.46547 -13456980.37846  21711310.5944                   21711311.9264
 -14030628.32847 -10907659.84245  21848540.1024                   21848540.5394
 11  8 26  1 27  0.0000000  0  9G26G29G10G12G05G02G04G25G30
   4860874.40246   3803722.59543  24421905.4614                   24421908.8094
  -2360553.27046  -1824570.69044  23378077.7894                   23378078.0354
 -27051678.80546 -21058390.83244  22645161.4844                   22645161.7114
 -29615552.23447 -23052224.46546  20941589.4534                   20941588.8634
 -31309155.73447 -24374905.71347  20189558.3134                   20189556.9774
 -38564624.21147 -30022021.66445  21242075.4924                   21242072.5904
 -33851472.46146 -26346366.62142  24408908.2664                   24408911.7234
 -17374106.39547 -13516709.92646  21696723.9614                   21696725.8874
 -14101635.33247 -10962989.99545  21835028.4844                   21835028.5004
 11  8 26  1 27 30.0000000  0  9G26G29G10G12G05G02G04G25G30
   4719235.36746   3693354.76543  24394952.6174                   24394955.8984
  -2492315.43446  -1927242.49444  23353004.4304                   23353003.7774
 -27005414.90246 -21022341.03744  22653965.2584                   22653965.2854
 -29626312.41047 -23060609.02346  20939541.6644                   20939540.7584
 -31356520.59447 -24411813.36947  20180545.3754                   20180544.3364
 -38580023.68447 -30034021.23746  21239145.1094                   21239142.4144
 -33821892.81246 -26323317.48842  24414538.0164                   24414539.8164
 -17450186.38747 -13575993.01145  21682246.3444                   21682248.2814
 -14172036.98447 -11017848.43945  21821631.3984                   21821631.5664
 11  8 26  1 28  0.0000000  0  9G26G29G10G12G05G02G04G25G30
   4577519.79746   3582927.32543  24367985.3134                   24367987.6374
  -2624077.00446  -2029913.78344  23327930.6884                   23327930.4494
 -26958857.32446 -20986062.40944  22662824.7034                   22662824.9884
 -29636532.64848 -23068572.86046  20937597.2424                   20937596.2424
 -31403309.58247 -24448272.29947  20171641.2974                   20171640.2344
 -38595316.98447 -30045938.08545  21236234.3834                   21236231.9844
 -33792368.02046 -26300311.21542  24420155.7504                   24420158.0204
 -17525693.69547 -13634829.86846  21667878.3134                   21667879.7114
 -14241833.90647 -11072235.67045  21808349.6804                   21808349.6214
 11  8 26  1 28 30.0000000  0  9G26G29G10G12G05G02G04G25G30
   4435726.94546   3472439.59243  24341002.9614                   24341004.2584
  -2755840.80147  -2132586.85144  23302857.0394                   23302856.4964
 -26912012.96546 -20949560.33844  22671739.0004                   22671739.1844
 -29646217.83248 -23076119.76246  20935754.2814                   20935753.2384
 -31449527.16047 -24484285.97247  20162846.4534                   20162845.8834
 -38610508.21147 -30057775.39246  21233343.8984                   21233341.3554
 -33762901.98446 -26277350.64842  24425764.0704                   24425765.0514
 -17600631.46547 -13693222.91946  21653617.3834                   21653619.3714
 -14311029.62547 -11126154.39445  21795182.0944                   21795181.7734
 11  8 26  1 29  0.0000000  0  9G26G29G10G12G05G02G04G25G30
   4293861.90246   3361895.69143  24314006.5234                   24314008.5554
  -2887603.14146  -2235258.74844  23277783.1564                   23277782.9654
 -26864882.40646 -20912835.21844  22680707.6174                   22680707.9414
 -29655368.19948 -23083249.91646  20934012.7894                   20934012.0004
 -31495171.85548 -24519853.23947  20154160.5314                   20154159.6024
 -38625595.96547 -30069532.08246  21230472.6954                   21230470.1054
 -33733492.88346 -26254434.40642  24431360.4534                   24431360.8244
 -17674996.65247 -13751169.79246  21639466.2584                   21639468.0904
 -14379621.52747 -11179602.62945  21782129.8674                   21782129.2664
 11  8 26  1 29 30.0000000  0  9G26G29G10G12G05G02G04G25G30
   4151924.12546   3251295.02742  24286995.8444                   24286998.4924
  -3019366.33246  -2337931.34944  23252709.6884                   23252709.2504
 -26817472.17246 -20875892.21444  22689729.6954                   22689729.3404
 -29663988.79748 -23089967.28246  20932372.4694                   20932371.7894
 -31540248.01647 -24554977.49247  20145582.8914                   20145582.2774
 -38640584.31247 -30081211.30246  21227620.7034                   21227618.1484
 -33704144.50446 -26231565.55942  24436945.5864                   24436946.4064
 -17748792.26647 -13808672.84346  21625423.5704                   21625425.3284
 -14447612.93747 -11232582.96445  21769191.2424                   21769191.1724
 11  8 26  1 30  0.0000000  0  9G26G29G10G12G05G02G04G25G30
   4009921.44946   3140643.85942  24259973.5704                   24259975.5354
  -3151124.19546  -2440599.75244  23227636.8444                   23227636.6564
 -26769780.58646 -20838729.95344  22698805.0314                   22698805.1024
 -29672076.53548 -23096269.43246  20930833.0864                   20930833.0274
 -31584751.79748 -24589655.74147  20137114.2194                   20137112.9344
 -38655469.03947 -30092809.78445  21224788.2114                   21224785.4654
 -33674852.27346 -26208740.43042  24442519.7344                   24442520.0824
 -17822012.82447 -13865727.81346  21611490.0394                   21611491.8834
 -14514998.82047 -11285091.45345  21756368.0704                   21756368.5354
 11  8 26  1 30 30.0000000  0  9G26G29G10G12G05G02G04G25G30
   3867857.93846   3029945.19142  24232939.7974                   24232941.5124
  -3282874.20746  -2543262.07344  23202565.6174                   23202565.6844
 -26721809.25846 -20801349.70343  22707933.7664                   22707933.3484
 -29679631.71147 -23102156.59446  20929395.2814                   20929395.0044
 -31628682.57847 -24623887.49547  20128754.3594                   20128753.4804
 -38670249.43447 -30104326.95746  21221975.4844                   21221972.5084
 -33645614.98046 -26185958.12142  24448082.4774                   24448083.7114
 -17894656.35947 -13922333.13946  21597666.3754                   21597668.4184
 -14581777.53947 -11337126.81145  21743660.5004                   21743660.3054
 11  8 26  1 31  0.0000000  0  9G26G29G10G12G05G02G04G25G30
   3725731.44946   2919197.54342  24205894.1884                   24205895.8444
  -3414620.23446  -2645921.23244  23177495.2894                   23177494.8324
 -26673566.36346 -20763757.85344  22717113.9774                   22717114.0204
 -29686661.39847 -23107634.28646  20928057.8754                   20928057.1564
 -31672046.11347 -24657677.23947  20120502.5314                   20120501.6294
 -38684931.07047 -30115767.18145  21219181.7974                   21219179.0554
 -33616438.39146 -26163223.10942  24453635.7584                   24453636.4104
 -17966727.55547 -13978492.48746  21583951.7424                   21583953.5274
 -14647954.20347 -11388693.02845  21731067.4774                   21731067.3984
 11  8 26  1 31 30.0000000  0  9G26G29G10G12G05G02G04G25G30
   3583546.60946   2808404.34042  24178837.2734                   24178839.1134
  -3546359.27346  -2748574.96244  23152425.7194                   23152426.0204
 -26625053.36746 -20725955.51544  22726345.8054                   22726345.1134
 -29693165.76648 -23112702.63046  20926820.1804                   20926819.5314
 -31714842.17247 -24691024.79947  20112358.8284                   20112357.7424
 -38699512.97747 -30127129.69645  21216407.1724                   21216404.3054
 -33587321.06246 -26140534.23443  24459176.3674                   24459177.3984
 -18038224.34047 -14034204.25646  21570346.1414                   21570348.2154
 -14713527.13347 -11439788.81845  21718589.1094                   21718589.2854
 11  8 26  1 32  0.0000000  0  9G26G29G10G12G05G02G04G25G30
   5016730.21946   3925170.98043  24451562.1804                   24451564.3984
  -2102666.34046  -1623619.37744  23427151.3284                   23427151.4774
 -25000855.79346 -19460347.08244  23035420.4694                   23035419.9064
 -28123727.71947 -21889763.91746  21225474.4384                   21225473.7114
 -30181651.07048 -23496330.41647  20404115.1094                   20404114.3714
 -37138576.52047 -28910815.57445  21513443.2114                   21513440.2274
 -31982845.37646 -24890293.44143  24764498.1564                   24764499.1954
 -16533724.79347 -12861866.93546  21856643.1804                   21856644.9144
 -13203075.11347 -10262813.21045  22006019.2194                   22006019.1094
 11  8 26  1 32 30.0000000  0  9G26G29G10G12G05G02G04G25G30
   4874436.43446   3814292.91843  24424484.9454                   24424486.0824
  -2234388.41446  -1726259.88744  23402085.4924                   23402086.0354
 -24951813.00846 -19422131.93144  23044752.9144                   23044751.9924
 -28129189.01247 -21894019.48846  21224434.7504                   21224434.2774
 -30223315.84847 -23528796.45247  20396186.3754                   20396185.4574
 -37152962.32047 -28922025.28845  21510705.8524                   21510703.0554
 -31953848.58246 -24867698.58043  24770015.5234                   24770016.8524
 -16604072.46547 -12916683.28646  21843256.6174                   21843258.2424
 -13267441.50047 -10312968.83345  21993770.2274                   21993770.4144
 11  8 26  1 33  0.0000000  0  9G26G29G10G12G05G02G04G25G30
   4732092.25046   3703375.54243  24397397.5394                   24397399.3834
  -2366100.60546  -1828892.69044  23377021.1724                   23377021.6914
 -24902509.97746 -19383714.00043  23054135.4924                   23054134.6844
 -28134131.71147 -21897870.95346  21223494.7194                   21223493.9494
 -30264416.85247 -23560823.19647  20388365.3754                   20388364.1644
 -37167251.26247 -28933159.51945  21507986.3674                   21507983.9104
 -31924912.82846 -24845151.26143  24775521.2894                   24775523.8554
 -16673845.22347 -12971051.64346  21829978.8054                   21829980.7734
 -13331204.87547 -10362654.56545  21981636.7344                   21981636.3444
 11  8 26  1 33 30.0000000  0  9G26G29G10G12G05G02G04G25G30
   4589699.76646   3592420.56543  24370301.0164                   24370302.7734
  -2497802.10546  -1931517.16344  23351959.6254                   23351960.1294
 -24852950.53946 -19345096.24743  23063565.6334                   23063565.5204
 -28138558.66047 -21901320.54446  21222652.0944                   21222651.4304
 -30304956.12148 -23592412.22247  20380650.9694                   20380650.1374
 -37181444.62147 -28944219.26945  21505285.3914                   21505282.8554
 -31896038.97746 -24822652.22543  24781016.2034                   24781018.3444
 -16743043.43448 -13024972.31846  21816810.9924                   21816812.8284
 -13394366.07847 -10411871.08345  21969617.2974                   21969617.2344
 11  8 26  1 34  0.0000000  0  8G26G29G10G12G05G02G25G30
   4447264.64846   3481432.33043  24343196.6724                   24343198.0514
  -2629489.43046  -2034130.59144  23326899.9064                   23326900.7464
 -24803135.50446 -19306279.39743  23073045.2274                   23073045.0004
 -28142469.24247 -21904367.76146  21221907.9694                   21221907.3134
 -30344931.79347 -23623562.08347  20373043.8524                   20373042.6644
 -37195540.53147 -28955203.10245  21502602.8204                   21502600.2304
 -16811664.31647 -13078443.12646  21803752.8984                   21803754.6724
 -13456922.53147 -10460616.36545  21957713.3834                   21957713.1454
 11  8 26  1 34 30.0000000  0  8G26G29G10G12G05G02G25G30
   4304795.36347   3370417.51143  24316085.6954                   24316087.1954
  -2761155.38347  -2136727.35144  23301845.2344                   23301844.8324
 -24753062.16846 -19267261.21844  23082574.1484                   23082574.1294
 -28145860.06248 -21907009.97646  21221262.7814                   21221262.0234
 -30384339.45348 -23654269.33346  20365544.7344                   20365543.3594
 -37209533.94147 -28966107.03745  21499940.6724                   21499937.4454
 -16879701.97747 -13131459.46746  21790805.9384                   21790807.8524
 -13518868.93747 -10508886.29845  21945925.0864                   21945924.9774
 11  8 26  1 35  0.0000000  0  8G26G29G10G12G05G02G25G30
   4162296.76246   3259379.83443  24288968.4304                   24288970.7034
  -2892797.00847  -2239305.15844  23276794.3754                   23276794.4304
 -24702731.62546 -19228042.64244  23092151.7974                   23092151.3754
 -28148730.99247 -21909247.08046  21220716.3204                   21220715.6954
 -30423178.65247 -23684533.63047  20358154.3524                   20358152.7894
 -37223423.57047 -28976930.11545  21497297.2664                   21497294.4024
 -16947154.14547 -13184019.57746  21777970.0784                   21777971.9104
 -13580203.36747 -10556679.33245  21934253.6174                   21934254.1174
 11  8 26  1 35 30.0000000  0  8G26G29G10G12G05G02G25G30
   4019778.60246   3148326.88543  24261848.2734                   24261849.9654
  -3024406.17647  -2341857.71144  23251750.2194                   23251749.8244
 -24652140.19946 -19188620.77344  23101778.7344                   23101778.9184
 -28151077.57047 -21911075.60546  21220269.9614                   21220269.0204
 -30461443.66848 -23714350.50347  20350872.0234                   20350871.2934
 -37237203.32047 -28987667.58645  21494675.0784                   21494672.3954
 -17014013.83647 -13236118.02646  21765247.1024                   21765248.9384
 -13640919.27047 -10603990.40545  21922699.3054                   21922699.5474
 11  8 26  1 36  0.0000000  0  8G26G29G10G12G05G02G25G30
   3877245.23446   3037262.15843  24234724.9454                   24234726.2814
  -3155980.16447  -2444382.83845  23226711.9304                   23226712.6844
 -24601289.62946 -19148997.00644  23111455.6174                   23111455.4384
 -28152901.01247 -21912496.48446  21219923.2974                   21219922.2934
 -30499134.32447 -23743719.83347  20343700.0004                   20343699.1094
 -37250872.46547 -28998318.84645  21492074.2344                   21492071.0824
 -17080279.59447 -13287753.67046  21752636.9924                   21752638.6914
 -13701015.60547 -10650818.69345  21911264.0784                   21911264.2304
 11  8 26  1 36 30.0000000  0  8G26G29G10G12G05G02G25G30
   3734695.42646   2926184.61143  24207598.5634                   24207599.9774
  -3287521.59847  -2546882.58244  23201680.8674                   23201680.5704
 -24550186.98847 -19109176.78444  23121180.2424                   23121179.6094
 -28154207.21948 -21913514.32446  21219674.3444                   21219673.7154
 -30536255.62548 -23772645.49746  20336636.0234                   20336635.0824
 -37264435.60247 -29008887.52545  21489493.0634                   21489490.1294
 -17145955.15647 -13338929.41746  21740139.5864                   21740140.9224
 -13760496.55947 -10697167.47845  21899945.1174                   21899944.8094
 11  8 26  1 37  0.0000000  0  8G26G29G10G12G05G02G25G30
   3592132.38346   2815096.72843  24180468.8754                   24180470.6174
  -3419029.34047  -2649356.11444  23176655.4774                   23176655.5514
 -24498835.50447 -19069162.68044  23130951.9924                   23130951.6604
 -28154998.07447 -21914130.57746  21219523.9224                   21219523.1094
 -30572808.93448 -23801128.58047  20329680.3364                   20329679.0084
 -37277893.26247 -29019374.00646  21486932.1724                   21486929.4104
 -17211040.30947 -13389645.11246  21727753.8444                   21727755.7974
 -13819362.34447 -10743036.90245  21888743.3754                   21888742.8794
 11  8 26  1 37 30.0000000  0  8G26G29G10G12G05G02G25G30
   3449562.73446   2704003.64543  24153338.8364                   24153339.8524
  -3550498.15247  -2751799.27844  23151637.8364                   23151637.5004
 -24447234.47747 -19028954.13944  23140771.4144                   23140771.1524
 -28155271.97347 -21914344.02046  21219471.8284                   21219471.0514
 -30608792.07448 -23829167.35547  20322832.7504                   20322831.9654
 -37291242.28947 -29029775.83945  21484391.8834                   21484388.8634
 -17275531.35948 -13439897.88046  21715482.3984                   21715483.5704
 -13877609.60247 -10788424.35945  21877658.7344                   21877658.7504
 11  8 26  1 38  0.0000000  0  8G26G29G10G12G05G02G25G30
   3306980.04746   2592900.45643  24126206.0474                   24126206.8054
  -3681936.26247  -2854218.55144  23126625.9844                   23126625.9384
 -24395396.18447 -18988560.68944  23150635.5944                   23150635.4304
 -28155040.61747 -21914163.76246  21219515.4304                   21219514.8164
 -30644215.32448 -23856769.87647  20316091.8134                   20316091.0164
 -37304492.76247 -29040100.88445  21481870.4614                   21481867.6214
 -17339437.44148 -13489694.81346  21703320.7814                   21703322.9144
 -13935248.03147 -10833337.40445  21866690.6724                   21866690.8284
 11  8 26  1 38 30.0000000  0  8G26G29G10G12G05G02G25G30
   3164390.50046   2481791.95243  24099072.6484                   24099073.5234
  -3813339.16446  -2956610.39244  23101620.6094                   23101620.5904
 -24343320.95747 -18947982.63344  23160545.5554                   23160545.2704
 -28154303.50447 -21913589.39346  21219655.8444                   21219655.7544
 -30679077.48448 -23883935.16447  20309457.7734                   20309456.9534
 -37317642.32047 -29050347.29045  21479368.3834                   21479365.5004
 -17402755.70348 -13539033.73346  21691271.9454                   21691273.7704
 -13992275.09447 -10877774.05245  21855838.8054                   21855838.8714
 11  8 26  1 39  0.0000000  0  8G26G29G10G12G05G02G25G30
   3021794.48446   2370678.33843  24071937.0474                   24071938.1294
  -3944707.93047  -3058975.64344  23076622.0944                   23076621.9104
 -24291014.15246 -18907224.14043  23170498.4454                   23170498.3054
 -28153065.47347 -21912624.71146  21219891.6484                   21219891.2304
 -30713381.91848 -23910665.87147  20302929.8204                   20302928.8634
 -37330693.80947 -29060517.27645  21476884.3754                   21476881.6134
 -17465488.39148 -13587916.35946  21679334.3834                   21679335.9024
 -14048693.54347 -10921736.45745  21845102.8444                   21845102.5514
 11  8 26  1 39 30.0000000  0  8G26G29G10G12G05G02G25G30
   2879195.67246   2259562.55243  24044800.8754                   24044802.3794
  -4076040.52347  -3161312.69044  23051630.6644                   23051629.6724
 -24238478.38746 -18866287.18143  23180495.8594                   23180496.4844
 -28151327.92248 -21911270.77746  21220222.1954                   21220221.6294
 -30747129.39148 -23936962.57947  20296508.0944                   20296506.9804
 -37343647.15247 -29070610.77945  21474419.4534                   21474416.7074
 -17527634.90647 -13636342.21646  21667508.5234                   21667510.1844
 -14104503.13347 -10965224.44045  21834482.5554                   21834482.5204
 11  8 26  1 40  0.0000000  0  8G26G29G10G12G05G02G25G30
   2736597.92246   2148447.57643  24017665.4534                   24017666.0554
  -4207334.85547  -3263619.94544  23026645.9144                   23026645.9304
 -24185715.57846 -18825173.35443  23190536.2424                   23190537.0164
 -28149092.37148 -21909528.80546  21220647.9454                   21220646.9144
 -30780320.69548 -23962825.92247  20290191.7114                   20290190.7624
 -37356501.96147 -29080627.50645  21471973.1484                   21471970.3674
 -17589194.37148 -13684310.65146  21655793.8444                   21655795.7504
 -14159703.46147 -11008237.67645  21823977.9454                   21823978.1334
 11  8 26  1 40 30.0000000  0  8G26G29G10G12G05G02G25G30
   2594004.64546   2037336.09643  23990530.9924                   23990532.0824
  -4338589.35246  -3365896.16344  23001668.3204                   23001668.6334
 -24132728.70347 -18783884.92043  23200620.1884                   23200620.1724
 -28146360.59048 -21907400.14146  21221167.5084                   21221166.9414
 -30812956.83248 -23988256.64146  20283981.3914                   20283980.3594
 -37369258.70747 -29090567.82045  21469546.0394                   21469542.7734
 -17650166.68748 -13731821.55546  21644191.0944                   21644192.9494
 -14214294.90647 -11050776.44545  21813590.1724                   21813590.3164
 11  8 26  1 41  0.0000000  0  8G26G29G10G12G05G02G25G30
   2451419.41846   1926230.87843  23963397.2894                   23963399.2544
  -4469802.04347  -3468139.81644  22976699.4384                   22976700.0434
 -24079520.18446 -18742423.78143  23210744.8834                   23210744.8364
 -28143134.66048 -21904886.43846  21221781.7974                   21221780.9064
 -30845038.82048 -24013255.58646  20277876.0314                   20277875.2384
 -37381917.42647 -29100431.76345  21467136.8984                   21467133.9454
 -17710551.18748 -13778874.42646  21632700.4774                   21632702.4104
 -14268277.19547 -11092840.57445  21803317.4304                   21803317.0474
 11  8 26  1 41 30.0000000  0  8G26G29G10G12G05G02G25G30
   2308841.74246   1815131.55143  23936265.7194                   23936266.8834
  -4600974.87947  -3570352.43944  22951738.7114                   22951737.8984
 -24026096.68047 -18700795.04243  23220911.1954                   23220910.7464
 -28139420.38748 -21901992.22046  21222488.3594                   21222487.6914
 -30876571.59448 -24037826.55046  20271875.9144                   20271874.8634
 -37394482.12547 -29110222.43245  21464746.0944                   21464743.4414
 -17770351.62948 -13825472.16546  21621320.5234                   21621323.0904
 -14321654.59047 -11134433.34245  21793160.1024                   21793159.9494
 11  8 26  1 42  0.0000000  0  8G26G29G10G12G05G02G25G30
   2166273.30946   1704039.49043  23909135.5864                   23909136.4414
  -4732107.89547  -3672534.00245  22926784.9304                   22926784.6994
 -23972462.48046 -18659002.19143  23231116.8674                   23231117.5634
 -28135221.64548 -21898720.48846  21223287.3674                   21223286.4964
 -30907558.02047 -24061971.80646  20265979.2034                   20265978.3484
 -37406954.77047 -29119941.38345  21462372.6254                   21462369.6484
 -17829569.45747 -13871615.95046  21610052.4384                   21610053.6334
 -14374428.86747 -11175556.16045  21783117.4384                   21783117.1954
 11  8 26  1 42 30.0000000  0  8G26G29G10G12G05G02G25G30
   2023718.54346   1592957.99043  23882008.5394                   23882009.1994
  -4863198.28947  -3774682.36845  22901839.2274                   22901839.2274
 -23918619.69946 -18617046.84443  23241363.9534                   23241363.6524
 -28130539.35548 -21895071.95746  21224178.3984                   21224177.2304
 -30937998.07848 -24085691.31746  20260186.5784                   20260185.7814
 -37419334.63347 -29129588.02345  21460016.6334                   21460014.0514
 -17888203.59847 -13917304.89646  21598894.2974                   21598896.3674
 -14426599.50447 -11216208.62745  21773189.5394                   21773189.6684
 11  8 26  1 43  0.0000000  0  8G26G29G10G12G05G02G25G30
   1881181.28146   1481890.17143  23854884.1334                   23854885.5354
  -4994244.06247  -3876795.95345  22876902.2584                   22876902.0634
 -23864570.29347 -18574930.41643  23251648.8204                   23251648.6524
 -28125374.96548 -21891047.76746  21225161.1724                   21225160.3094
 -30967892.70748 -24108985.82046  20254498.2344                   20254496.9064
 -37431621.55547 -29139162.24245  21457678.3364                   21457675.7624
 -17946253.39148 -13962538.49846  21587847.5394                   21587849.7194
 -14478166.26247 -11256390.51745  21763376.5394                   21763377.0044
 11  8 26  1 43 30.0000000  0  8G26G29G10G12G05G02G25G30
   1738661.67246   1370836.03743  23827763.7974                   23827764.8134
  -5125246.45747  -3978875.73445  22851973.1484                   22851973.0514
 -23810320.04747 -18532657.53243  23261972.3984                   23261972.4964
 -28119734.26648 -21886652.43046  21226234.2424                   21226233.8524
 -30997245.97348 -24131858.47947  20248912.2114                   20248911.0164
 -37443818.45348 -29148666.32545  21455357.5004                   21455354.7464
 -18003721.80548 -14007319.09746  21576911.9064                   21576913.9964
 -14529132.53547 -11296104.51145  21753678.3204                   21753678.0474
 11  8 26  1 44  0.0000000  0  8G26G29G10G12G05G02G25G30
   1596167.19146   1259801.56843  23800647.9064                   23800648.5944
  -5256199.68047  -4080917.21245  22827053.8914                   22827053.2974
 -23755867.50846 -18490227.00243  23272333.7974                   23272334.7894
 -28113615.28147 -21881884.41046  21227398.7424                   21227398.3164
 -31026055.57447 -24154307.50646  20243430.0004                   20243428.7734
 -37455921.70747 -29158097.42045  21453054.4144                   21453051.2234
 -18060604.80548 -14051643.50546  21566087.5164                   21566089.4264
 -14579494.76647 -11335347.81845  21744094.3284                   21744094.2584
 11  8 26  1 44 30.0000000  0  8G26G29G10G12G05G02G25G30
   1453695.34846   1148784.69043  23773535.8284                   23773537.3674
  -5387107.98447  -4182923.65245  22802142.3754                   22802142.0664
 -23701221.84046 -18447645.99143  23282732.7734                   23282732.8714
 -28107025.52748 -21876749.54746  21228653.1334                   21228652.1724
 -31054328.68047 -24176338.48547  20238049.6174                   20238048.6764
 -37467937.52747 -29167460.41545  21450768.2504                   21450765.4384
 -18116908.35547 -14095516.41046  21555373.4224                   21555374.9144
 -14629259.32047 -11374125.39145  21734624.3524                   21734624.6954
 11  8 26  1 45  0.0000000  0  8G26G29G10G12G05G02G25G30
   1311254.91846   1037792.31443  23746430.3134                   23746431.5744
  -5517964.08247  -4284889.43145  22777241.4304                   22777241.5234
 -23646380.56246 -18404912.57343  23293168.4694                   23293169.8094
 -28099962.44948 -21871245.87246  21229996.9774                   21229996.5274
 -31082061.12547 -24197948.17546  20232772.4844                   20232771.5164
 -37479860.67247 -29176751.16945  21448498.8444                   21448496.1884
 -18172627.06648 -14138933.57946  21544770.4384                   21544772.0164
 -14678421.28147 -11412433.42745  21725269.3284                   21725269.4654
 11  8 26  1 45 30.0000000  0  8G26G29G10G12G05G02G25G30
   1168845.39146    926823.97143  23719330.9454                   23719331.4654
  -5648770.28147  -4386816.31544  22752349.8524                   22752349.3524
 -23591349.91046 -18362031.58843  23303640.4694                   23303641.2274
 -28092432.18747 -21865378.14946  21231430.0864                   21231429.4024
 -31109258.19148 -24219140.67546  20227597.6564                   20227596.1914
 -37491695.43047 -29185973.04945  21446246.8914                   21446244.1414
 -18227764.81648 -14181898.05246  21534278.0704                   21534279.7814
 -14726985.05547 -11450275.31645  21716028.4144                   21716028.0784
 11  8 26  1 46  0.0000000  0  8G26G29G10G12G05G02G25G30
   1026471.12946    815883.13843  23692237.8984                   23692238.8444
  -5779523.73047  -4488702.09145  22727467.8444                   22727467.9224
 -23536131.32846 -18319004.19443  23314148.8594                   23314149.6254
 -28084435.80147 -21859147.23146  21232951.9304                   21232951.1094
 -31135920.31248 -24239916.34246  20222523.6024                   20222522.5204
 -37503440.86747 -29195125.35345  21444011.7664                   21444009.1804
 -18282320.68447 -14224409.11646  21523896.5234                   21523898.2774
 -14774950.00447 -11487650.62045  21706900.4224                   21706900.5514
 11  8 26  1 46 30.0000000  0  8G26G29G10G12G05G02G25G30
    884136.60946    704973.21043  23665152.4224                   23665153.4654
  -5910222.00847  -4590544.85044  22702597.3594                   22702597.1024
 -23480727.14146 -18275832.11443  23324692.2894                   23324692.1844
 -28075974.73847 -21852554.22246  21234561.8914                   21234561.1094
 -31162047.88748 -24260275.48246  20217551.4064                   20217550.3554
 -37515096.19947 -29204207.42845  21441794.2424                   21441790.9964
 -18336293.89848 -14266466.16746  21513625.5084                   21513627.3634
 -14822315.93047 -11524559.15045  21697887.5084                   21697887.1994
 11  8 26  1 47  0.0000000  0  8G26G29G10G12G05G02G25G30
    741843.46946    594095.60043  23638074.9614                   23638075.7344
  -6040864.73847  -4692344.33044  22677736.5784                   22677736.5204
 -23425141.36346 -18232518.53443  23335269.9614                   23335269.9304
 -28067052.60947 -21845601.93146  21236259.6484                   21236259.0864
 -31187643.66848 -24280220.24546  20212680.9694                   20212679.6334
 -37526663.35547 -29213220.79845  21439592.7034                   21439590.1174
 -18389686.17248 -14308070.54146  21503465.6254                   21503466.8874
 -14869084.96947 -11561002.56845  21688987.7584                   21688987.4224
 11  8 26  1 47 30.0000000  0  8G26G29G10G12G05G02G25G30
    599591.02046    483249.65643  23611004.6094                   23611005.8754
  -6171454.06647  -4794102.20844  22652886.0314                   22652885.9344
 -23369381.06246 -18189069.03643  23345880.0944                   23345880.6134
 -28057675.62147 -21838295.20646  21238044.2894                   21238043.5824
 -31212713.46548 -24299755.14846  20207910.2114                   20207909.0124
 -37538146.70347 -29222168.86145  21437407.3204                   21437404.7464
 -18442501.76648 -14349225.54546  21493414.8444                   21493416.3244
 -14915261.85247 -11596984.56545  21680200.3134                   21680200.0864
 11  8 26  1 48  0.0000000  0  8G26G29G10G12G05G02G25G30
    457386.16046    372440.80443  23583944.1954                   23583945.0004
  -6301985.03147  -4895814.57644  22628046.6564                   22628046.9224
 -23313445.55546 -18145482.94943  23356524.2344                   23356524.6804
 -28047843.12147 -21830633.54146  21239915.0004                   21239914.3984
 -31237255.57048 -24318878.84946  20203239.8524                   20203238.9534
 -37549542.80947 -29231048.93745  21435238.5784                   21435236.0594
 -18494737.35548 -14389928.60746  21483474.7344                   21483476.6724
 -14960843.68447 -11632502.87445  21671526.3524                   21671526.4344
 11  8 26  1 48 30.0000000  0  8G26G29G10G12G05G02G25G30
   1890659.72346   1489277.46243  23856687.1954                   23856687.9064
  -4857029.08647  -3769874.82544  22903012.4384                   22903012.3244
 -21681916.91047 -16874161.91543  23666994.3134                   23666994.4574
 -26462135.75447 -20595017.43746  21541665.0164                   21541664.7114
 -29685848.02348 -23109989.84546  20498462.9224                   20498462.0434
 -35985428.96547 -28012258.93645  21732879.7734                   21732877.0944
 -16970969.04347 -13202576.68246  21773438.1254                   21773440.2464
 -13430407.32847 -10439955.07645  21962759.0394                   21962758.7194
 11  8 26  1 49  0.0000000  0  9G26G29G10G12G05G02G15G25G30
   1748562.78946   1378552.70743  23829646.8914                   23829647.1994
  -4987435.45747  -3871490.14745  22878197.2344                   22878196.6954
 -21625636.39846 -16830307.01243  23677704.0164                   23677704.2424
 -26451397.02747 -20586649.62146  21543708.7274                   21543708.1334
 -29709336.14148 -23128292.26846  20493993.4224                   20493992.2504
 -35996648.51647 -28021001.44645  21730744.6644                   21730742.2074
  10821230.78956   8448316.99053  24743444.4304                   24743446.6884
 -17022043.00047 -13242374.57646  21763719.3594                   21763721.2074
 -13474798.84447 -10474545.88045  21954311.3444                   21954311.3484
 11  8 26  1 49 30.0000000  0  9G26G29G10G12G05G02G15G25G30
   1606515.95346   1267866.96343  23802616.3284                   23802616.7814
  -5117785.83247  -3973061.79545  22853392.7734                   22853391.8324
 -21569196.72347 -16786328.08043  23688444.7424                   23688444.1764
 -26440217.91847 -20577938.64446  21545835.7504                   21545835.3524
 -29732308.86348 -23146193.08346  20489621.7034                   20489620.7734
 -36007789.50047 -28029682.71945  21728624.6954                   21728622.2814
  10680628.35546   8338757.05643  24716688.2034                   24716691.7154
 -17072545.80148 -13281727.40446  21754109.0314                   21754110.8404
 -13518605.55147 -10508680.98445  21945975.0944                   21945974.9024
 11  8 26  1 50  0.0000000  0  9G26G29G10G12G05G02G15G25G30
   1464517.08246   1157218.63543  23775594.9774                   23775595.0084
  -5248083.98847  -4074592.77345  22828597.5004                   22828597.2304
 -21512606.10547 -16742231.47743  23699213.0944                   23699212.9494
 -26428606.24647 -20568890.60646  21548045.7114                   21548044.9694
 -29754773.17648 -23163697.73546  20485347.0004                   20485345.7734
 -36018857.60247 -28038307.20345  21726518.7814                   21726516.0474
  10539884.51646   8229086.89843  24689905.4534                   24689908.1254
 -17122483.15247 -13320639.63046  21744606.2504                   21744607.9304
 -13561833.66847 -10542365.25845  21937749.1804                   21937749.3754
 11  8 26  1 50 30.0000000  0  9G26G29G10G12G05G02G15G25G30
   1322572.66046   1046612.68843  23748583.1414                   23748583.8204
  -5378325.11747  -4176079.32445  22803813.3754                   22803812.6454
 -21455864.28946 -16698017.12443  23710010.8914                   23710010.5234
 -26416561.11347 -20559504.81146  21550337.7194                   21550337.5744
 -29776727.43448 -23180804.93046  20481169.1954                   20481168.1054
 -36029849.60947 -28046872.39045  21724426.9694                   21724423.8874
  10399004.80146   8119310.90343  24663096.4614                   24663098.7894
 -17171852.33247 -13359109.12646  21735211.3054                   21735213.7234
 -13604480.87547 -10575596.85945  21929633.7424                   21929633.3524
 11  8 26  1 51  0.0000000  0  9G26G29G10G12G05G02G15G25G30
   1180683.68446    936049.95043  23721583.0084                   23721583.2544
  -5508509.50847  -4277521.66245  22779040.0634                   22779039.3014
 -21398976.30547 -16653688.83943  23720835.7274                   23720836.7814
 -26404087.67647 -20549785.27846  21552711.2504                   21552710.8754
 -29798175.90248 -23197518.02146  20477087.7344                   20477086.5044
 -36040768.32447 -28055380.48245  21722349.2734                   21722346.1764
  10257989.20346   8009428.98343  24636262.0554                   24636264.4064
 -17220655.98447 -13397137.95746  21725924.2894                   21725926.3244
 -13646550.28947 -10608378.25045  21921628.0554                   21921628.2854
 11  8 26  1 51 30.0000000  0  9G26G29G10G12G05G02G15G25G30
   1038855.69546    825534.80043  23694592.7274                   23694594.3164
  -5638633.68047  -4378917.08245  22754278.0164                   22754278.0514
 -21341942.57046 -16609246.93643  23731688.6884                   23731689.0204
 -26391185.89847 -20539731.96446  21555166.4614                   21555166.1764
 -29819118.12548 -23213836.62646  20473102.3754                   20473101.2544
 -36051611.78547 -28063829.92645  21720285.6804                   21720282.7344
  10116842.37546   7899444.75543  24609402.5314                   24609404.5434
 -17268892.60247 -13434724.93546  21716745.2974                   21716747.5004
 -13688040.84047 -10640708.56145  21913732.3524                   21913732.7034
 11  8 26  1 52  0.0000000  0  9G26G29G10G12G05G02G15G25G30
    897096.10546    715072.89843  23667617.0234                   23667618.3674
  -5768691.83647  -4480261.07445  22729528.9454                   22729529.0354
 -21284762.30146 -16564690.90643  23742570.1254                   23742570.4614
 -26377854.75047 -20529344.07746  21557703.6094                   21557702.7664
 -29839551.74647 -23229758.92346  20469214.0704                   20469213.1134
 -36062376.32847 -28072217.87545  21718237.1644                   21718234.5124
   9975570.57046   7789363.21142  24582519.2034                   24582520.9384
 -17316558.73447 -13471867.38546  21707674.4924                   21707676.4224
 -13728949.63747 -10672585.57545  21905948.4844                   21905948.1054
 11  8 26  1 52 30.0000000  0  9G26G29G10G12G05G02G15G25G30
    755404.66046    604664.09843  23640654.0394                   23640654.5904
  -5898685.66047  -4581554.91445  22704791.6414                   22704791.6294
 -21227441.88746 -16520025.71643  23753477.9924                   23753478.2034
 -26364100.76247 -20518626.69246  21560320.7974                   21560320.0744
 -29859481.82448 -23245288.85146  20465421.3674                   20465420.3554
 -36073065.51247 -28080547.10245  21716203.7814                   21716200.2154
   9834172.57446   7679183.34643  24555611.6724                   24555612.9344
 -17363658.42647 -13508568.43446  21698712.0634                   21698713.8204
 -13769281.15647 -10704012.74245  21898273.4304                   21898273.0824
 11  8 26  1 53  0.0000000  0  9G26G29G10G12G05G02G15G25G30
    613785.64846    494311.73043  23613705.0554                   23613705.6524
  -6028612.46147  -4682796.52945  22680067.9064                   22680067.1134
 -21169982.80946 -16475252.40943  23764412.0084                   23764412.4574
 -26349924.91847 -20507580.60746  21563018.4064                   21563017.4774
 -29878909.40247 -23260427.21446  20461724.5474                   20461723.4384
 -36083678.64547 -28088817.06545  21714183.7114                   21714180.7584
   9692652.02746   7568907.90242  24528681.0234                   24528681.6914
 -17410191.29347 -13544827.81346  21689857.1564                   21689858.8054
 -13809035.42647 -10734990.10645  21890708.3984                   21890708.4104
 11  8 26  1 53 30.0000000  0  9G26G29G10G12G05G02G15G25G30
    472246.19946    384021.30343  23586770.6334                   23586771.4184
  -6158466.93747  -4783981.80145  22655357.2664                   22655356.8984
 -21112384.23046 -16430370.47343  23775372.0634                   23775373.0274
 -26335326.46547 -20496205.21546  21565796.4144                   21565795.7734
 -29897832.86748 -23275172.75546  20458123.2584                   20458122.5824
 -36094212.68747 -28097025.40945  21712179.3754                   21712175.9454
   9551015.15246   7458541.83043  24501728.0394                   24501729.7734
 -17456154.37947 -13580643.20446  21681110.7734                   21681112.5864
 -13848209.96547 -10765515.74745  21883253.2114                   21883253.6994
 11  8 26  1 54  0.0000000  0  9G26G29G10G12G05G02G15G25G30
    330788.66046    273794.75943  23559852.4454                   23559852.7234
  -6288248.32847  -4885110.10045  22630660.8204                   22630660.2544
 -21054649.98446 -16385382.77143  23786359.2814                   23786359.6804
 -26320309.11747 -20484503.39145  21568654.0944                   21568653.5944
 -29916254.68048 -23289527.41046  20454617.7584                   20454616.7424
 -36104668.68447 -28105172.92745  21710188.9774                   21710186.0744
   9409262.69546   7348085.71142  24474751.5704                   24474753.8634
 -17501549.23448 -13616015.82046  21672472.0864                   21672473.7974
 -13886806.84847 -10795591.24845  21875909.1564                   21875908.9494
 11  8 26  1 54 30.0000000  0  9G26G29G10G12G05G02G15G25G30
    189417.26646    163635.36144  23532949.5784                   23532950.6294
  -6417953.98447  -4986179.41745  22605978.1884                   22605978.1844
 -20996782.07846 -16340290.89143  23797371.3204                   23797370.6884
 -26304874.12147 -20472476.13246  21571591.1334                   21571590.8874
 -29934176.04748 -23303492.10646  20451207.4844                   20451206.8714
 -36115046.02347 -28113259.15545  21708214.3054                   21708211.9344
   9267398.09846   7237542.17443  24447756.0314                   24447758.0664
 -17546375.75048 -13650945.56246  21663942.3134                   21663943.8284
 -13924826.34847 -10825216.81645  21868674.1954                   21868674.2854
 11  8 26  1 55  0.0000000  0  9G26G29G10G12G05G02G15G25G30
     48136.09046     53546.22844  23506065.2814                   23506065.2974
  -6547581.46947  -5087187.81745  22581311.0234                   22581310.4024
 -20938782.61746 -16295096.55143  23808408.2974                   23808408.3404
 -26289024.43747 -20460125.74345  21574607.7114                   21574606.7774
 -29951598.19147 -23317067.78146  20447892.2584                   20447891.2424
 -36125344.10547 -28121283.63445  21706255.1334                   21706252.2074
   9125424.47746   7126913.76843  24420739.5554                   24420741.4924
 -17590633.91448 -13685432.42746  21655519.9614                   21655521.9964
 -13962268.93047 -10854392.85545  21861548.9844                   21861549.1054
 11  8 26  1 55 30.0000000  0  9G26G29G10G12G05G02G15G25G30
    -93051.42246    -56469.90443  23479197.7114                   23479198.6334
  -6677128.96547  -5188133.86345  22556658.5394                   22556658.6724
 -20880654.18746 -16249801.69543  23819469.4454                   23819470.2384
 -26272762.30147 -20447453.95245  21577701.7814                   21577701.6564
 -29968522.86747 -23330255.83046  20444671.6804                   20444670.1994
 -36135563.38747 -28129246.71545  21704310.5084                   21704307.4734
   8983344.41046   7016202.43043  24393702.3204                   24393704.1954
 -17634324.35948 -13719476.93446  21647206.2034                   21647208.0864
 -13999135.77747 -10883120.25245  21854533.7584                   21854533.3094
 11  8 26  1 56  0.0000000  0  9G26G29G10G12G05G02G15G25G30
   -234139.53947   -166408.60943  23452349.9774                   23452350.4454
  -6806592.15247  -5289014.22345  22532023.1644                   22532022.5434
 -20822397.30546 -16204406.66743  23830555.1954                   23830556.0824
 -26256088.02347 -20434461.02845  21580874.9774                   21580874.6804
 -29984949.39547 -23343055.70346  20441545.8834                   20441544.7074
 -36145701.43047 -28137146.47645  21702381.0944                   21702378.4804
   8841163.05946   6905412.07343  24366646.1804                   24366647.9144
 -17677445.51248 -13753077.82246  21639000.1414                   21639002.1024
 -14035425.69147 -10911398.08345  21847627.8754                   21847627.8714
 11  8 26  1 56 30.0000000  0  9G26G29G10G12G05G02G15G25G30
   -375125.70747   -276267.84844  23425521.0784                   23425521.4144
  -6935970.09447  -5389828.15145  22507402.3674                   22507402.5474
 -20764015.84446 -16158914.66743  23841665.7894                   23841665.4964
 -26239004.85547 -20421149.47445  21584125.5004                   21584125.2234
 -30000880.71547 -23355469.70846  20438514.0554                   20438512.8134
 -36155759.65247 -28144984.04545  21700467.1884                   21700464.1294
   8698881.80546   6794543.87844  24339570.6644                   24339572.5904
 -17719999.11748 -13786236.47246  21630902.7584                   21630904.4454
 -14071140.88747 -10939228.09845  21840831.0634                   21840830.8444
 11  8 26  1 57  0.0000000  0  9G26G29G10G12G05G02G15G25G30
   -516007.61746   -386045.89944  23398712.5314                   23398712.3834
  -7065262.38347  -5490575.33145  22482799.5234                   22482798.8164
 -20705513.62146 -16113328.57143  23852797.6954                   23852798.1994
 -26221516.93747 -20407522.54245  21587453.3984                   21587453.1524
 -30016320.01248 -23367500.31846  20435576.0314                   20435574.7774
 -36165739.17647 -28152760.30345  21698568.2584                   21698565.1214
   8556501.96946   6683598.85943  24312476.3444                   24312478.2424
 -17761987.03147 -13818954.32546  21622912.3444                   21622914.5164
 -14106283.76247 -10966612.13745  21834143.6094                   21834143.5474
 11  8 26  1 57 30.0000000  0  9G26G29G10G12G05G02G15G25G30
   -656779.39146   -495738.09844  23371924.0784                   23371924.5984
  -7194464.11347  -5591251.96945  22458213.3444                   22458212.5314
 -20646890.41446 -16067648.11643  23863953.2274                   23863952.9574
 -26203624.82847 -20393580.65046  21590858.3134                   21590857.8444
 -30031266.39848 -23379146.84446  20432731.7894                   20432730.5474
 -36175637.33647 -28160473.15245  21696684.4844                   21696681.7424
   8414028.58646   6572580.94344  24285364.3524                   24285366.1844
 -17803407.43048 -13851229.96546  21615030.7194                   21615032.3954
 -14140852.95747 -10993549.17345  21827565.8594                   21827565.4064
 11  8 26  1 58  0.0000000  0  9G26G29G10G12G05G02G15G25G30
   -797439.10246   -605342.99643  23345157.1804                   23345157.4884
  -7323575.71547  -5691858.36945  22433644.0864                   22433643.7424
 -20588150.84846 -16021877.10043  23875131.0864                   23875131.2234
 -26185332.47347 -20379326.86746  21594339.0164                   21594338.9344
 -30045723.73848 -23390412.28746  20429980.9064                   20429979.4184
 -36185456.25847 -28168124.24245  21694815.8754                   21694812.9184
   8271462.36746   6461490.63443  24258235.2114                   24258236.4614
 -17844262.93047 -13883065.42746  21607256.0704                   21607257.7974
 -14174851.59047 -11020041.59445  21821095.7734                   21821095.9884
 11  8 26  1 58 30.0000000  0  9G26G29G10G12G05G02G15G25G30
   -937980.02346   -714855.28643  23318412.9454                   23318413.0234
  -7452591.88747  -5792390.40945  22409092.9844                   22409092.6914
 -20529294.33246 -15976014.87243  23886330.7734                   23886331.2704
 -26166639.44147 -20364760.88245  21597896.5084                   21597895.9264
 -30059690.55548 -23401295.51146  20427323.0864                   20427321.6294
 -36195192.85947 -28175711.23245  21692963.4774                   21692959.9804
   8128809.35246   6350332.69344  24231088.4924                   24231090.5204
 -17884551.02047 -13914458.74646  21599589.4454                   21599591.1484
 -14208277.52347 -11046087.77845  21814735.2344                   21814735.2034
 11  8 26  1 59  0.0000000  0  9G26G29G10G12G05G02G15G25G30
  -1078400.64547   -824273.88043  23291691.9224                   23291692.1564
  -7581512.34847  -5892847.86745  22384560.5474                   22384559.6884
 -20470325.16846 -15930064.88743  23897552.7114                   23897553.1914
 -26147549.78947 -20349885.84846  21601529.2974                   21601528.5084
 -30073170.54348 -23411799.38246  20424757.8984                   20424756.4024
 -36204849.19947 -28183235.63245  21691125.5554                   21691122.6094
   7986070.27346   6239107.68444  24203926.5554                   24203927.3794
 -17924274.39147 -13945412.03446  21592029.9774                   21592032.3444
 -14241133.98447 -11071690.19745  21808482.6094                   21808482.4774
 11  8 26  1 59 30.0000000  0  9G26G29G10G12G05G02G15G25G30
  -1218698.59847   -933596.87044  23264994.3594                   23264994.5164
  -7710336.76247  -5993230.49545  22360045.7034                   22360044.9264
 -20411247.61346 -15884030.44243  23908794.6724                   23908794.9534
 -26128068.54347 -20334705.66246  21605236.3834                   21605235.8594
 -30086167.11348 -23421926.56546  20422284.9144                   20422283.6724
 -36214426.42647 -28190698.41145  21689302.8754                   21689300.1094
   7843245.74646   6127816.07543  24176746.6954                   24176748.8674
 -17963435.40647 -13975927.11846  21584578.3594                   21584580.2194
 -14273423.77047 -11096851.07545  21802338.1644                   21802337.8324
 11  8 26  2  0  0.0000000  0  9G26G29G10G12G05G02G15G25G30
  -1358866.44147  -1042818.50043  23238320.7974                   23238320.8364
  -7839059.09047  -6093533.56845  22335550.8524                   22335550.0744
 -20352060.24246 -15837910.43043  23920057.2664                   23920057.8244
 -26108194.05947 -20319219.06545  21609017.9534                   21609017.9614
 -30098678.38748 -23431675.59846  20419904.0314                   20419902.5474
 -36223920.61347 -28198096.47245  21687496.6884                   21687493.5164
   7700342.65246   6016463.26843  24149553.5084                   24149554.8984
 -18002030.85947 -14006001.49946  21577233.8054                   21577235.9264
 -14305144.14547 -11121568.24345  21796302.1024                   21796301.6094
 11  8 26  2  0 30.0000000  0  9G26G29G10G12G05G02G15G25G30
  -1498900.20346  -1151935.62944  23211673.6414                   23211673.4964
  -7967676.75847  -6193755.09445  22311075.3984                   22311075.1764
 -20292764.95746 -15791706.30942  23931341.4614                   23931341.1524
 -26087928.32047 -20303427.60046  21612874.9924                   21612874.0704
 -30110705.34447 -23441047.23946  20417615.1484                   20417613.9694
 -36233331.23047 -28205429.42745  21685705.8524                   21685702.7114
   7557364.53546   5905051.94543  24122345.7584                   24122346.6524
 -18040060.99647 -14035635.39046  21569996.7734                   21569998.6804
 -14336295.77747 -11145842.25345  21790374.1724                   21790374.1414
 11  8 26  2  1  0.0000000  0  9G26G29G10G12G05G02G15G25G30
  -1638803.15647  -1260950.81644  23185050.0314                   23185050.7234
  -8096194.89547  -6293899.07245  22286619.3674                   22286619.0234
 -20233371.53546 -15745425.74443  23942642.2894                   23942643.5704
 -26067281.16447 -20287338.92745  21616803.7664                   21616803.3634
 -30122257.03147 -23450048.54546  20415416.7344                   20415415.8204
 -36242665.52347 -28212702.89145  21683929.0164                   21683926.7114
   7414306.83646   5793578.59343  24095121.9614                   24095123.8284
 -18077533.81647 -14064834.99646  21562866.1804                   21562868.2814
 -14366887.20347 -11169679.74745  21784552.8984                   21784552.6564
 11  8 26  2  1 30.0000000  0  9G26G29G10G12G05G02G15G25G30
  -1778565.53147  -1369856.51144  23158455.1094                   23158455.0394
  -8224605.24247  -6393959.05745  22262183.4924                   22262183.0824
 -20173876.20346 -15699065.76943  23953965.9774                   23953965.5744
 -26046249.15247 -20270950.35845  21620805.9064                   21620805.7734
 -30133329.31247 -23458676.28746  20413309.9614                   20413308.8524
 -36251917.39147 -28219912.13345  21682168.3984                   21682166.0944
   7271178.58646   5682050.26243  24067885.5084                   24067886.0124
 -18114444.03548 -14093596.21546  21555842.4924                   21555844.4734
 -14396913.64847 -11193076.98545  21778839.2584                   21778838.8634
 11  8 26  2  2  0.0000000  0  9G26G29G10G12G05G02G15G25G30
  -1918183.39547  -1478649.58044  23131885.8524                   23131886.2074
  -8352905.68447  -6493933.40445  22237768.3674                   22237768.5704
 -20114281.13346 -15652628.11943  23965306.4224                   23965305.4414
 -26024834.41847 -20254263.55746  21624881.2974                   21624880.7234
 -30143923.74247 -23466931.67346  20411293.9064                   20411292.5124
 -36261086.29747 -28227056.73945  21680424.1724                   21680421.1094
   7127982.57446   5570469.18343  24040636.0784                   24040636.8554
 -18150792.14148 -14121919.42246  21548925.6804                   21548927.4884
 -14426376.06247 -11216034.73545  21773232.5704                   21773231.9964
 11  8 26  2  2 30.0000000  0  9G26G29G10G12G05G02G15G25G30
  -2057654.82846  -1587328.54943  23105345.5084                   23105345.8524
  -8481095.29747  -6593821.40245  22213375.1804                   22213374.3634
 -20054590.72346 -15606116.09043  23976664.5004                   23976664.5944
 -26003041.73847 -20237282.26645  21629027.9614                   21629027.8954
 -30154043.83247 -23474817.44346  20409368.1644                   20409366.5944
 -36270173.94147 -28234138.01545  21678694.8984                   21678691.9224
   6984720.09846   5458836.20443  24013373.9924                   24013375.5594
 -18186580.85948 -14149806.74446  21542114.7584                   21542117.1334
 -14455277.51647 -11238555.34945  21767733.0784                   21767732.8754
 11  8 26  2  3  0.0000000  0  9G26G29G10G12G05G02G15G25G30
  -2196975.01246  -1695889.63444  23078834.4614                   23078833.7894
  -8609171.26247  -6693620.83645  22189002.7034                   22189002.4804
 -19994806.25846 -15559530.85143  23988041.3914                   23988041.5554
 -25980872.67247 -20220007.69345  21633246.7114                   21633245.9414
 -30163690.49647 -23482334.31646  20407532.5004                   20407531.3404
 -36279179.28947 -28241155.17845  21676981.1414                   21676978.5824
   6841394.80546   5347154.30543  23986100.4144                   23986100.6954
 -18221810.10548 -14177258.10246  21535411.0084                   21535413.0044
 -14483618.43747 -11260639.19945  21762339.6954                   21762339.1954
 11  8 26  2  3 30.0000000  0  9G26G29G10G12G05G02G15G25G30
  -2336143.62947  -1804332.63444  23052350.8524                   23052351.2584
  -8737134.84447  -6793332.70245  22164652.3284                   22164651.9844
 -19934933.23446 -15512876.52343  23999435.1254                   23999434.4694
 -25958332.57847 -20202443.99745  21637535.9844                   21637535.4224
 -30172868.76247 -23489486.21846  20405785.9224                   20405784.5164
 -36288105.16047 -28248110.41845  21675282.3054                   21675279.7664
   6698006.29746   5235423.21443  23958814.7344                   23958815.5004
 -18256483.90248 -14204276.65046  21528812.8364                   21528815.0394
 -14511403.39147 -11282289.82345  21757052.1724                   21757052.2114
 11  8 26  2  4  0.0000000  0  9G26G29G10G12G05G02G15G25G30
  -2475153.55146  -1912651.99344  23025897.9694                   23025898.1684
  -8864980.21147  -6892952.45845  22140324.5704                   22140324.0904
 -19874970.78946 -15466152.60343  24010845.4064                   24010845.3984
 -25935421.50447 -20184591.21945  21641896.0864                   21641895.2584
 -30181577.35248 -23496272.11646  20404128.9774                   20404127.5904
 -36296948.28947 -28255001.14945  21673599.3674                   21673596.7894
   6554560.76646   5123647.65143  23931517.1024                   23931518.5784
 -18290599.86748 -14230860.52746  21522321.1334                   21522322.8324
 -14538630.39147 -11303505.67845  21751871.3594                   21751870.8984
 11  8 26  2  4 30.0000000  0  9G26G29G10G12G05G02G15G25G30
  -2614000.34046  -2020844.22744  22999476.3754                   22999476.3794
  -8992704.73847  -6992478.04445  22116019.2814                   22116018.6294
 -19814921.08646 -15419360.62843  24022272.7344                   24022272.8984
 -25912141.34847 -20166450.84645  21646326.1024                   21646325.3984
 -30189817.81647 -23502693.25246  20402560.7894                   20402559.2234
 -36305708.11747 -28261827.00545  21671932.5474                   21671930.0204
   6411061.56646   5011830.28343  23904210.5474                   23904210.5044
 -18324158.53548 -14257010.14246  21515935.3054                   21515936.9774
 -14565300.48847 -11324287.59245  21746795.9144                   21746795.7774
 11  8 26  2  5  0.0000000  0  9G26G29G10G12G05G02G15G25G30
  -1177258.33647   -901304.93144  23272879.0314                   23272879.6764
  -7544884.42647  -5864306.37145  22391530.0784                   22391529.6374
 -18179370.45746 -14144905.57343  24333506.9064                   24333507.7544
 -24313078.00447 -18920427.46345  21950617.8134                   21950617.2704
 -28622174.13347 -22281152.70446  20700873.3754                   20700872.0314
 -34738966.62546 -27040989.48745  21970073.3984                   21970071.1564
   7842933.73446   6127574.97044  24176686.2894                   24176687.2114
 -16781742.09048 -13055127.21446  21809447.0004                   21809449.1334
 -13015996.50447 -10117037.74645  22041618.3524                   22041618.7584
 11  8 26  2  5 30.0000000  0  9G26G29G10G12G05G02G15G25G30
  -1315770.89547  -1009236.73044  23246521.2114                   23246520.9614
  -7672363.03547  -5963640.33845  22367271.6484                   22367270.9144
 -18119155.09046 -14097984.65043  24344965.7114                   24344966.1254
 -24289070.27347 -18901720.14445  21955186.3834                   21955185.5594
 -28629486.28148 -22286850.48846  20699481.5084                   20699480.2974
 -34747561.82447 -27047687.04345  21968438.1564                   21968435.5944
   7699332.84046   6015678.37444  24149360.1094                   24149360.4884
 -16814191.66048 -13080412.60346  21803272.0314                   21803273.8954
 -13041559.53147 -10136957.00545  22036754.1884                   22036753.9454
 11  8 26  2  6  0.0000000  0  9G26G29G10G12G05G02G15G25G30
  -1454112.74247  -1117035.51144  23220195.1174                   23220196.1054
  -7799718.02347  -6062877.97345  22343037.1254                   22343036.1884
 -18058862.95746 -14051003.71143  24356439.8914                   24356439.8204
 -24264705.01247 -18882734.23445  21959822.4454                   21959822.3244
 -28636339.27747 -22292190.46846  20698177.8204                   20698176.0434
 -34756076.41047 -27054321.79745  21966817.8364                   21966814.9104
   7555683.53546   5903744.01744  24122024.3594                   24122025.2624
 -16846090.20748 -13105268.60446  21797201.9224                   21797203.9304
 -13066573.34847 -10156448.28445  22031994.5234                   22031994.1884
 11  8 26  2  6 30.0000000  0  9G26G29G10G12G05G02G15G25G30
  -1592280.75047  -1224698.80644  23193903.0004                   23193902.8524
  -7926947.58247  -6162017.87245  22318825.6954                   22318825.2464
 -17998497.01246 -14003965.33743  24367926.0784                   24367927.1454
 -24239985.37547 -18863472.18845  21964526.3674                   21964525.9574
 -28642735.90247 -22297174.84146  20696960.4064                   20696959.1564
 -34764511.22347 -27060894.37745  21965212.5314                   21965209.6954
   7411987.80946   5791773.51043  24094680.2504                   24094680.1414
 -16877439.58648 -13129696.69546  21791236.6254                   21791237.7774
 -13091040.21147 -10175513.38545  22027338.7424                   22027338.3244
 11  8 26  2  7  0.0000000  0  9G26G29G10G12G05G02G15G25G30
  -1730269.16047  -1332222.17344  23167644.3364                   23167644.8524
  -8054047.87147  -6261057.00645  22294639.1954                   22294639.0984
 -17938057.43045 -13956869.57442  24379427.0784                   24379428.4104
 -24214912.37547 -18843934.78845  21969297.7894                   21969297.4884
 -28648676.27347 -22301803.69846  20695829.9694                   20695828.4024
 -34772864.15247 -27067403.15945  21963623.0084                   21963619.8714
   7268250.36346   5679770.47643  24067327.3984                   24067328.1134
 -16908238.92648 -13153696.18446  21785375.4304                   21785377.7274
 -13114959.70747 -10194151.95045  22022786.6484                   22022786.6054
 11  8 26  2  7 30.0000000  0  9G26G29G10G12G05G02G15G25G30
  -1868071.67647  -1439600.69444  23141421.1724                   23141422.0474
  -8181013.70347  -6359991.40145  22270478.7814                   22270478.1254
 -17877544.03545 -13909716.34442  24390942.5554                   24390942.9534
 -24189485.82447 -18824121.88945  21974136.6094                   21974136.2814
 -28654159.38747 -22306076.23746  20694786.5704                   20694785.1484
 -34781132.13747 -27073845.76245  21962049.8444                   21962046.9694
   7124476.85546   5567739.32843  24039967.4614                   24039968.1954
 -16938486.62148 -13177265.82946  21779619.8284                   21779621.4384
 -13138330.72347 -10212363.14845  22018339.5704                   22018339.3054
 11  8 26  2  8  0.0000000  0  9G26G29G10G12G05G02G15G25G30
  -2005686.16846  -1546832.71844  23115234.3834                   23115234.9384
  -8307844.37547  -6458820.49245  22246343.2344                   22246342.3444
 -17816960.85245 -13862508.70742  24402470.8444                   24402471.2424
 -24163710.43447 -18804037.18745  21979040.9384                   21979040.9344
 -28659189.23047 -22309995.59746  20693829.4064                   20693828.3204
 -34789316.84847 -27080223.47945  21960492.4614                   21960489.4924
   6980668.57446   5455681.05443  24012602.1024                   24012602.4414
 -16968185.58248 -13200407.88046  21773967.9774                   21773970.0234
 -13161156.54747 -10230149.50145  22013995.6414                   22013995.4304
 11  8 26  2  8 30.0000000  0  9G26G29G10G12G05G02G15G25G30
  -2143109.66447  -1653915.84744  23089083.2504                   23089083.5704
  -8434538.58247  -6557543.19545  22222235.0784                   22222233.9454
 -17756310.82045 -13815248.96942  24414012.4454                   24414013.2504
 -24137589.50447 -18783683.20645  21984012.3834                   21984011.4774
 -28663768.46548 -22313563.80546  20692957.8594                   20692956.6334
 -34797418.51247 -27086536.46945  21958950.8204                   21958947.8754
   6836827.63746   5343597.34143  23985229.8754                   23985230.4414
 -16997337.59848 -13223123.73446  21768420.4454                   21768422.4344
 -13183439.55147 -10247512.89045  22009755.5784                   22009755.1564
 11  8 26  2  9  0.0000000  0  9G26G29G10G12G05G02G15G25G30
  -2280343.08647  -1760850.90344  23062968.1024                   23062969.0164
  -8561098.70347  -6656161.44045  22198150.8054                   22198150.3714
 -17695601.27746 -13767942.80142  24425565.2734                   24425565.3094
 -24111130.69547 -18763065.96045  21989046.9064                   21989046.4574
 -28667903.67247 -22316786.04246  20692171.0314                   20692169.6094
 -34805441.79747 -27092788.39745  21957424.1254                   21957420.7464
   6692951.92246   5231486.53243  23957851.0554                   23957851.8284
 -17025948.56648 -13245417.98946  21762976.1484                   21762978.2464
 -13205185.96147 -10264458.15745  22005617.1644                   22005617.1374
 11  8 26  2  9 30.0000000  0  9G26G29G10G12G05G02G15G25G30
  -2417382.78546  -1867635.00344  23036890.7034                   23036891.0554
  -8687522.56647  -6754673.50545  22174092.6334                   22174092.5044
 -17634833.92246 -13720591.62142  24437128.8134                   24437129.1174
 -24084336.52047 -18742187.37945  21994145.8984                   21994145.3364
 -28671596.68448 -22319663.69946  20691468.2424                   20691466.8984
 -34813386.52747 -27098979.10245  21955911.6094                   21955909.0234
   6549044.91446   5119351.31843  23930466.9064                   23930466.7424
 -17054019.62948 -13267291.54846  21757634.2894                   21757636.3794
 -13226397.48447 -10280986.60645  22001580.7274                   22001580.6644
 11  8 26  2 10  0.0000000  0  9G26G29G10G12G05G02G15G25G30
  -2554218.37147  -1974260.08344  23010851.5314                   23010851.5824
  -8813801.71547  -6853072.80245  22150062.6094                   22150062.5634
 -17574005.25846 -13673192.66243  24448704.7974                   24448704.6684
 -24057203.46147 -18721044.74045  21999309.2344                   21999308.5514
 -28674843.47748 -22322193.66246  20690850.3524                   20690848.9844
 -34821246.20747 -27105103.55745  21954416.5084                   21954413.6884
   6405115.49647   5007198.65243  23903077.4534                   23903078.1844
 -17081545.82848 -13288740.53246  21752396.3754                   21752398.2384
 -13247069.60247 -10297094.73645  21997646.8134                   21997647.2934
 11  8 26  2 10 30.0000000  0  9G26G29G10G12G05G02G15G25G30
  -2690847.96947  -2080724.65844  22984851.7734                   22984851.8284
  -8939935.36347  -6951358.72845  22126060.1484                   22126059.9534
 -17513118.97346 -13625748.80043  24460290.7114                   24460291.0204
 -24029735.84847 -18699641.39445  22004535.9454                   22004535.1954
 -28677647.76648 -22324378.80546  20690316.8674                   20690315.4184
 -34829022.17647 -27111162.75045  21952936.6094                   21952933.4064
   6261165.21146   4895029.70143  23875684.7034                   23875684.3094
 -17108529.89548 -13309767.06646  21747261.8054                   21747263.6334
 -13267205.36747 -10312784.94345  21993815.5004                   21993815.1484
 11  8 26  2 11  0.0000000  0  9G26G29G10G12G05G02G15G25G30
  -2827270.60947  -2187027.91644  22958891.7274                   22958891.7114
  -9065923.95347  -7049531.60945  22102085.9454                   22102084.8364
 -17452179.91046 -13578263.84143  24471887.0234                   24471887.5044
 -24001939.54747 -18677981.95045  22009825.2424                   22009824.8554
 -28680014.66848 -22326223.12646  20689866.5164                   20689864.6294
 -34836717.14847 -27117158.85145  21951472.5704                   21951469.3834
   6117193.88346   4782844.36144  23848288.2504                   23848287.6644
 -17134976.03148 -13330374.45246  21742229.3204                   21742230.6684
 -13286809.58247 -10328060.96545  21990084.7814                   21990084.9024
 11  8 26  2 11 30.0000000  0  9G26G29G10G12G05G02G15G25G30
  -2963480.43047  -2293165.38744  22932971.4534                   22932971.7974
  -9191763.21547  -7147588.14345  22078138.7344                   22078138.7154
 -17391188.71946 -13530738.24043  24483493.9064                   24483493.5124
 -23973815.30947 -18656066.96745  22015177.4064                   22015176.5984
 -28681943.56248 -22327726.14946  20689499.3984                   20689497.9184
 -34844328.66847 -27123089.94045  21950023.8834                   21950021.2894
   5973206.78146   4670646.74743  23820887.9844                   23820888.2114
 -17160883.38348 -13350561.99046  21737298.9774                   21737300.8204
 -13305881.77347 -10342922.39345  21986455.1644                   21986454.8364
 11  8 26  2 12  0.0000000  0  9G26G29G10G12G05G02G15G25G30
  -3099476.80947  -2399136.52944  22907092.1174                   22907091.9614
  -9317454.10947  -7245529.07245  22054220.8754                   22054220.2234
 -17330150.72346 -13483176.17543  24495108.0474                   24495108.5904
 -23945368.74247 -18633900.80945  22020590.4454                   22020589.9694
 -28683439.97748 -22328892.17746  20689214.7894                   20689213.3634
 -34851859.70747 -27128958.29145  21948591.2974                   21948588.0594
   5829203.59846   4558436.55343  23793484.6644                   23793484.5824
 -17186256.42248 -13370333.18046  21732470.5784                   21732472.5554
 -13324426.90247 -10357373.13845  21982926.5554                   21982926.2034
 11  8 26  2 12 30.0000000  0  9G26G29G10G12G05G02G15G25G30
  -3235254.28947  -2504937.08344  22881254.8914                   22881254.4104
  -9442992.93747  -7343351.49545  22030331.7344                   22030331.3524
 -17269066.53546 -13435578.14843  24506732.8524                   24506732.7504
 -23916601.36347 -18611484.68345  22026065.1954                   22026064.1884
 -28684504.56248 -22329721.70546  20689012.0634                   20689010.4104
 -34859308.31647 -27134762.42845  21947173.4454                   21947170.4924
   5685188.65646   4446217.23144  23766079.5234                   23766079.4344
 -17211095.11748 -13389688.00046  21727743.9844                   21727745.7974
 -13342445.35947 -10371413.48245  21979497.9304                   21979497.8524
 11  8 26  2 13  0.0000000  0  9G26G29G10G12G05G02G15G25G30
  -3370807.79347  -2610563.15044  22855460.1414                   22855459.5704
  -9568375.77347  -7441052.34945  22006472.1884                   22006471.5234
 -17207936.85546 -13387944.66943  24518364.8834                   24518365.0704
 -23887514.54347 -18588819.63745  22031600.1884                   22031599.3674
 -28685138.00448 -22330215.28446  20688891.5234                   20688890.5434
 -34866672.94547 -27140501.10845  21945772.3284                   21945769.2664
   5541166.51246   4333992.34244  23738673.0474                   23738673.7734
 -17235399.21948 -13408626.25246  21723118.8754                   21723120.9344
 -13359937.33247 -10385043.59345  21976168.9774                   21976168.7384
 11  8 26  2 13 30.0000000  0  9G26G29G10G12G05G02G15G25G30
  -3506134.65647  -2716012.58444  22829708.0634                   22829707.7734
  -9693601.52347  -7538630.83345  21982643.0474                   21982642.1524
 -17146765.16046 -13340278.31343  24530006.5784                   24530005.5904
 -23858112.45747 -18565908.91545  22037194.4304                   22037194.6764
 -28685343.52347 -22330375.41946  20688851.4454                   20688850.8054
 -34873954.91847 -27146175.38745  21944386.4614                   21944383.4454
   5397138.91446   4221763.15844  23711265.5164                   23711265.4614
 -17259171.44148 -13427150.04746  21718595.1334                   21718596.9264
 -13376906.01647 -10398265.92545  21972940.0084                   21972939.5664
 11  8 26  2 14  0.0000000  0  9G26G29G10G12G05G02G15G25G30
  -3641230.22347  -2821281.78844  22804000.0944                   22803999.6174
  -9818667.02347  -7636084.41645  21958843.2344                   21958842.9184
 -17085552.97346 -13292580.61543  24541653.8834                   24541654.6724
 -23828396.85547 -18542753.90545  22042849.7114                   22042848.9534
 -28685122.29748 -22330203.01546  20688894.3054                   20688892.9924
 -34881152.59847 -27151783.97045  21943016.7814                   21943014.5234
   5253109.90246   4109532.86244  23683857.2894                   23683857.8634
 -17282412.18448 -13445259.71346  21714172.5864                   21714174.5004
 -13393352.24647 -10411081.15945  21969810.2274                   21969810.0394
 11  8 26  2 14 30.0000000  0  9G26G29G10G12G05G02G15G25G30
  -3776090.12947  -2926367.37544  22778336.8914                   22778337.1374
  -9943569.31647  -7733410.84945  21935074.9384                   21935074.7034
 -17024301.37545 -13244852.06242  24553309.7424                   24553310.4144
 -23798369.93047 -18519356.31245  22048563.1024                   22048562.8014
 -28684475.84047 -22329699.26646  20689017.4224                   20689015.8594
 -34888265.21147 -27157326.26645  21941663.2894                   21941660.3204
   5109082.95746   3997304.22244  23656449.4304                   23656450.2344
 -17305122.27348 -13462955.87146  21709851.1094                   21709853.1564
 -13409277.32847 -10423490.30545  21966779.8134                   21966779.8834
 11  8 26  2 15  0.0000000  0  8G26G29G12G05G02G15G25G30
  -3910713.58247  -3031268.71544  22752718.5314                   22752718.5904
 -10068308.89147  -7830610.47745  21911337.8204                   21911337.2194
 -23768037.21947 -18495720.43045  22054335.6804                   22054335.1134
 -28683409.28948 -22328868.17546  20689220.4534                   20689219.2154
 -34895295.52747 -27162804.43545  21940325.1564                   21940322.6374
   4965058.16446   3885077.23943  23629042.9304                   23629042.6764
 -17327306.14848 -13480242.00546  21705629.6804                   21705631.5354
 -13424686.09047 -10435497.14345  21963847.6804                   21963847.9344
 11  8 26  2 15 30.0000000  0  8G26G29G12G05G02G15G25G30
  -4045095.46547  -3135981.83944  22727146.4534                   22727146.7624
 -10192882.49647  -7927680.78345  21887632.1024                   21887631.7034
 -23737400.46547 -18471847.65345  22060165.3524                   22060164.9804
 -28681923.67648 -22327710.54746  20689503.1254                   20689501.6134
 -34902241.67647 -27168217.01945  21939003.5554                   21939000.7624
   4821039.85546   3772855.29644  23601636.7034                   23601637.0784
 -17348963.99648 -13497118.26546  21701508.3134                   21701510.0514
 -13439579.17647 -10447102.15145  21961013.5704                   21961013.5314
 11  8 26  2 16  0.0000000  0  8G26G29G12G05G02G15G25G30
  -4179225.46547  -3240498.65944  22701623.1884                   22701622.3054
 -10317281.16447  -8024614.77045  21863959.5394                   21863959.2974
 -23706456.09847 -18447735.15345  22066054.1254                   22066053.4264
 -28680014.60948 -22326222.94146  20689865.9924                   20689865.0634
 -34909097.10547 -27173558.89745  21937699.3834                   21937696.1604
   4677037.32047   3660645.61443  23574234.3594                   23574233.9384
 -17370090.93448 -13513580.80646  21697487.6804                   21697489.7464
 -13453952.20347 -10458301.91145  21958278.5164                   21958278.3324
 11  8 26  2 16 30.0000000  0  9G26G29G21G12G05G02G15G25G30
  -4313093.94547  -3344811.71444  22676148.4064                   22676148.1564
 -10441496.37547  -8121405.81145  21840322.2194                   21840321.8754
  12451798.60556   9714801.48053  25115813.7664                   25115811.8094
 -23675201.31247 -18423380.77545  22072001.3914                   22072001.1054
 -28677677.84847 -22324402.07346  20690310.6644                   20690309.5824
 -34915855.50847 -27178825.17845  21936413.3134                   21936410.0984
   4533059.75447   3548455.41244  23546835.9454                   23546836.2074
 -17390682.32848 -13529626.05546  21693569.8754                   21693571.7854
 -13467800.89547 -10469093.11545  21955643.4454                   21955643.0824
 11  8 26  2 17  0.0000000  0  9G26G29G21G12G05G02G15G25G30
  -4446702.30147  -3448922.05744  22650723.5004                   22650722.9104
 -10565531.42247  -8218056.44945  21816719.0864                   21816718.5514
  12348664.03946   9634436.93442  25096187.4844                   25096186.8324
 -23643643.81647 -18398790.51545  22078006.5554                   22078006.1684
 -28674921.52047 -22322254.26346  20690835.4694                   20690833.9774
 -34922522.14147 -27184019.93345  21935144.6564                   21935141.3834
   4389104.39546   3436282.50444  23519442.1884                   23519441.9804
 -17410745.36347 -13545259.58146  21689751.7504                   21689753.7424
 -13481132.86747 -10479481.66645  21953105.8754                   21953106.2344
 11  8 26  2 17 30.0000000  0  9G26G29G21G12G05G02G15G25G30
  -4580055.96947  -3552833.96444  22625346.7734                   22625347.2504
 -10689392.80947  -8314571.77045  21793149.5164                   21793148.7544
  12245529.88346   9554072.77342  25076561.4384                   25076561.6604
 -23611796.14547 -18373974.15345  22084067.5474                   22084066.4064
 -28671756.59048 -22319788.07646  20691437.5704                   20691436.3364
 -34929105.55947 -27189149.84045  21933891.8754                   21933888.5984
   4245165.57447   3324122.45644  23492051.3914                   23492051.0234
 -17430290.47348 -13560489.54046  21686032.2894                   21686034.2114
 -13493959.00447 -10489476.05945  21950665.6724                   21950665.5744
 11  8 26  2 18  0.0000000  0  9G26G29G21G12G05G02G15G25G30
  -4713156.55947  -3656548.64744  22600019.1254                   22600018.9414
 -10813083.59447  -8410954.13245  21769611.3594                   21769610.6214
  12142390.36746   9473704.40242  25056934.4614                   25056934.7154
 -23579666.46147 -18348938.03445  22090181.4224                   22090180.6094
 -28668190.77347 -22317009.49346  20692116.2664                   20692114.9884
 -34935611.25447 -27194219.18345  21932653.2424                   21932650.6994
   4101240.82046   3211973.40144  23464663.4774                   23464663.2384
 -17449324.76648 -13575321.45146  21682410.0474                   21682412.3094
 -13506286.82847 -10499082.14445  21948319.6334                   21948319.9844
 11  8 26  2 18 30.0000000  0  9G26G29G21G12G05G02G15G25G30
  -4845999.61347  -3760062.65144  22574739.6954                   22574739.5864
 -10936600.93047  -8507201.37145  21746107.3284                   21746106.5434
  12039245.75846   9393332.10542  25037307.3674                   25037306.4384
 -23547256.49247 -18323683.49645  22096348.9454                   22096348.1644
 -28664225.39147 -22313919.57846  20692870.7034                   20692869.6024
 -34942037.79347 -27199226.87545  21931430.8134                   21931427.8594
   3957334.15247   3099838.44244  23437278.8984                   23437278.4614
 -17467849.00447 -13589755.91646  21678885.2734                   21678887.1724
 -13518117.55147 -10508300.88145  21946068.4304                   21946068.2854
 11  8 26  2 19  0.0000000  0  9G26G29G21G12G05G02G15G25G30
  -4978579.30947  -3863371.46044  22549510.3754                   22549510.3984
 -11059940.52347  -8603310.10345  21722636.3674                   21722635.7624
  11936097.42246   9312956.92242  25017678.1254                   25017678.4024
 -23514567.66447 -18298211.69345  22102569.1564                   22102568.8094
 -28659861.35548 -22310519.02746  20693701.2664                   20693700.0904
 -34948383.00047 -27204171.17045  21930222.9224                   21930220.1844
   3813449.95746   2987720.99044  23409898.4224                   23409898.4884
 -17485863.23047 -13603792.98446  21675457.0864                   21675459.0784
 -13529451.66047 -10517132.67245  21943911.4614                   21943911.8054
 11  8 26  2 19 30.0000000  0  9G26G29G21G12G05G02G15G25G30
  -5110888.70347  -3966469.64244  22524332.5554                   22524332.5274
 -11183096.70347  -8699275.92545  21699200.3674                   21699199.7154
  11832948.26246   9232581.10242  24998049.3834                   24998048.8984
 -23481599.27047 -18272522.02545  22108843.0474                   22108842.2584
 -28655096.93048 -22306806.46246  20694607.8834                   20694606.5824
 -34954643.21947 -27209049.23845  21929031.8594                   21929029.0634
   3669594.78546   2875626.14244  23382524.0164                   23382523.5234
 -17503365.57847 -13617431.17846  21672126.7894                   21672128.1914
 -13540287.70347 -10525576.33345  21941849.5704                   21941849.8094
 11  8 26  2 20  0.0000000  0  9G26G29G21G12G05G02G15G25G30
  -5242928.18747  -4069357.48244  22499206.2664                   22499206.6214
 -11306071.18448  -8795100.15245  21675799.3524                   21675798.3164
  11729793.37146   9152200.75042  24978420.3914                   24978419.4494
 -23448358.55947 -18246620.17045  22115168.1414                   22115167.8674
 -28649938.38747 -22302786.80846  20695589.6334                   20695588.3754
 -34960822.44947 -27213864.19845  21927855.9774                   21927852.9734
   3525767.63346   2763553.13544  23355154.4224                   23355154.5514
 -17520361.92648 -13630675.07746  21668892.5314                   21668894.3984
 -13550632.01247 -10533636.82545  21939880.5474                   21939880.8914
 11  8 26  2 20 30.0000000  0  9G26G29G21G12G05G02G15G25G30
  -5374694.08247  -4172032.15944  22474132.2894                   22474132.2384
 -11428861.76247  -8890781.09245  21652432.9534                   21652432.1604
  11626632.27045   9071815.62942  24958788.4844                   24958787.8284
 -23414848.77347 -18220508.64845  22121545.0784                   22121544.3364
 -28644388.37948 -22298462.11146  20696645.8134                   20696644.2624
 -34966920.42247 -27218615.84245  21926695.6724                   21926692.8554
   3381971.25846   2651504.10944  23327790.6724                   23327790.8244
 -17536854.20747 -13643526.19246  21665754.0634                   21665755.8014
 -13560486.92247 -10541315.98945  21938005.7814                   21938005.7664
 11  8 26  2 21  0.0000000  0  9G26G29G21G12G05G02G15G25G30
  -5506181.60547  -4274489.91145  22449111.4064                   22449110.9614
 -11551464.88747  -8986315.95745  21629102.5394                   21629101.5044
  11523465.32045   8991425.92242  24939156.4144                   24939155.7664
 -23381071.55147 -18194188.72245  22127972.6414                   22127971.9494
 -28638448.07047 -22293833.30046  20697775.9224                   20697774.8204
 -34972936.08247 -27223303.34045  21925550.8754                   21925547.9844
   3238209.92246   2539482.36844  23300433.9144                   23300433.0394
 -17552843.09047 -13655985.05946  21662711.2344                   21662713.4844
 -13569853.47347 -10548614.59445  21936223.4064                   21936223.4144
 11  8 26  2 21 30.0000000  0  9G26G29G21G12G05G02G15G25G30
  -4061960.79347  -3149123.00444  22723937.4614                   22723937.0434
 -10098452.53947  -7854098.50046  21905601.1884                   21905600.4574
  12995717.16045  10138635.34042  25219315.9304                   25219316.0314
 -21771609.33647 -16940062.33245  22434243.2734                   22434242.6294
 -27056698.50848 -21061301.16146  20998772.7584                   20998771.5434
 -33403446.78947 -26000324.67145  22224214.6254                   22224211.6724
   4669913.09846   3655095.33744  23572878.0704                   23572877.4734
 -15992908.05548 -12440451.26146  21959557.2274                   21959559.0204
 -12003311.78547  -9327932.75745  22234325.9774                   22234326.2704
 11  8 26  2 22  0.0000000  0  9G26G29G21G12G05G02G15G25G30
  -4192879.46547  -3251137.48944  22699024.3984                   22699023.9884
 -10220673.18047  -7949335.33045  21882343.0634                   21882342.6804
  12892538.07845  10058236.21542  25199681.6254                   25199681.7854
 -21737305.13347 -16913331.79345  22440771.1174                   22440770.3094
 -27049984.14848 -21056069.17546  21000050.8914                   21000049.2664
 -33409295.42647 -26004882.03845  22223101.4454                   22223098.6764
   4526231.68446   3543135.88244  23545535.6644                   23545536.0314
 -16007894.64548 -12452129.13146  21956705.5394                   21956707.1644
 -12011707.48447  -9334474.86945  22232728.6804                   22232728.6724
 11  8 26  2 22 30.0000000  0  9G26G29G21G12G05G02G15G25G30
  -4323504.43447  -3352923.12544  22674166.7344                   22674166.2774
 -10342695.06647  -8044417.29245  21859123.6644                   21859122.6294
  12789356.02045   9977834.77742  25180046.2114                   25180046.4184
 -21702737.90647 -16886396.29645  22447349.2114                   22447348.4224
 -27042882.09048 -21050535.11346  21001402.1484                   21001400.7384
 -33415056.24247 -26009370.97145  22222005.6884                   22222002.5944
   4382598.65246   3431214.13044  23518203.1024                   23518202.9924
 -16022378.87948 -12463415.53346  21953949.2894                   21953950.7194
 -12019617.13347  -9340638.24845  22231223.3754                   22231223.6294
 11  8 26  2 23  0.0000000  0  9G26G29G21G12G05G02G15G25G30
  -4453834.16847  -3454478.72244  22649365.9224                   22649365.4534
 -10464518.31647  -8139344.46846  21835941.1174                   21835940.5634
  12686168.03145   9897428.74242  25160410.6484                   25160409.7304
 -21667913.59847 -16859260.46945  22453975.9304                   22453975.4454
 -27035397.28148 -21044702.78346  21002826.5784                   21002825.0234
 -33420731.31247 -26013793.10645  22220925.5554                   22220922.4804
   4239014.53146   3319330.49144  23490880.3134                   23490879.3984
 -16036365.11348 -12474313.87946  21951287.4534                   21951289.3484
 -12027045.55147  -9346426.63445  22229810.1484                   22229809.5554
 11  8 26  2 23 30.0000000  0  9G26G29G21G12G05G02G15G25G30
  -4583866.71547  -3555802.72944  22624621.2664                   22624621.0744
 -10586142.30947  -8234116.37945  21812796.8594                   21812795.9884
  12582971.78945   9817016.23842  25140773.0944                   25140773.1254
 -21632836.32847 -16831927.54645  22460650.7274                   22460650.3204
 -27027533.46148 -21038575.12046  21004322.9224                   21004321.5124
 -33426322.00047 -26018149.48345  22219861.4774                   22219858.5474
   4095480.98446   3207486.27144  23463566.5554                   23463566.3674
 -16049857.00048 -12484827.02246  21948720.0394                   21948722.3634
 -12033996.73447  -9351843.12745  22228487.3444                   22228486.9104
 11  8 26  2 24  0.0000000  0  9G26G29G21G12G05G02G15G25G30
  -4713595.85247  -3656890.32144  22599934.9614                   22599934.1414
 -10707562.22347  -8328729.26945  21789691.8284                   21789690.4264
  12479769.41845   9736598.99642  25121134.2664                   25121134.1804
 -21597506.97347 -16804398.17845  22467373.8444                   22467373.2854
 -27019290.57048 -21032152.08446  21005891.5164                   21005889.9024
 -33431825.68047 -26022438.07045  22218814.5554                   22218811.0864
   3952003.24646   3095685.48544  23436263.1094                   23436263.5204
 -16062853.88348 -12494954.46146  21946247.0234                   21946248.9534
 -12040470.55147  -9356887.66445  22227255.0864                   22227254.8594
 11  8 26  2 24 30.0000000  0  9G26G29G21G12G05G02G15G25G30
  -4843018.53547  -3757739.13544  22575306.4454                   22575305.8874
 -10828776.00047  -8423181.52845  21766625.0234                   21766624.1294
  12376559.26646   9656175.57442  25101494.1804                   25101493.3284
 -21561929.27747 -16776675.30845  22474143.6414                   22474143.1214
 -27010671.65648 -21025436.04646  21007531.7274                   21007529.8404
 -33437242.44147 -26026658.94545  22217783.7664                   22217780.7464
   3808583.66446   2983930.05444  23408971.4614                   23408971.5434
 -16075358.30948 -12504698.15146  21943867.4064                   21943869.0434
 -12046469.83647  -9361562.43745  22226113.5864                   22226113.3244
 11  8 26  2 25  0.0000000  0  9G26G29G21G12G05G02G15G25G30
  -4972131.38747  -3858346.49244  22550736.5394                   22550736.4574
 -10949782.00848  -8517471.89146  21743598.9694                   21743597.5514
  12273340.78946   9575745.75842  25081852.5474                   25081851.8914
 -21526106.14547 -16748761.20545  22480960.8444                   22480960.1134
 -27001679.36348 -21018429.06246  21009243.1804                   21009241.2274
 -33442572.48047 -26030812.22645  22216769.4454                   22216766.5124
   3665225.18447   2872222.21944  23381691.3364                   23381691.5784
 -16087372.53548 -12514059.87746  21941581.2114                   21941583.0744
 -12051997.27047  -9365869.52245  22225061.4694                   22225062.1954
 11  8 26  2 25 30.0000000  0  9G26G29G21G12G05G02G15G25G30
  -5100931.19147  -3958709.91744  22526227.4144                   22526226.6524
 -11070578.39547  -8611598.90146  21720611.8054                   21720611.0084
  12170112.92646   9495308.58943  25062208.5864                   25062207.7274
 -21490041.43047 -16720658.83645  22487824.0474                   22487823.4494
 -26992316.61748 -21011133.40246  21011024.3284                   21011022.9964
 -33447815.88747 -26034898.00645  22215771.2424                   22215769.0084
   3521930.30547   2760563.97044  23354423.0314                   23354423.6024
 -16098899.11748 -12523041.61146  21939387.6094                   21939389.7664
 -12057055.91047  -9369811.30245  22224099.2974                   22224099.4534
 11  8 26  2 26  0.0000000  0  9G26G29G21G12G05G02G15G25G30
  -5229411.43047  -4058824.36644  22501778.5864                   22501777.8834
 -11191159.90647  -8705558.48446  21697666.0474                   21697664.7774
  12066878.14146   9414866.02743  25042562.8984                   25042563.4964
 -21453735.07447 -16692368.19145  22494732.9844                   22494731.9694
 -26982582.77348 -21003548.59146  21012877.1174                   21012875.4264
 -33452969.61347 -26038913.92145  22214791.0164                   22214787.7624
   3378704.59047   2648959.58944  23327168.1334                   23327167.6134
 -16109937.27348 -12531642.75546  21937287.6884                   21937288.9304
 -12061645.21947  -9373387.40145  22223226.3054                   22223225.9454
 11  8 26  2 26 30.0000000  0  9G26G29G21G12G05G02G15G25G30
  -5357569.64547  -4158687.86944  22477390.8674                   22477389.7854
 -11311524.92647  -8799349.36245  21674760.8364                   21674760.3014
  11963634.61346   9334416.70643  25022916.8834                   25022916.4184
 -21417191.29747 -16663892.50745  22501686.4224                   22501685.9304
 -26972481.62947 -20995677.56046  21014798.7584                   21014797.4184
 -33458034.27747 -26042860.40645  22213827.1414                   22213824.1054
   3235550.04747   2537410.66644  23299926.6564                   23299926.7584
 -16120490.04348 -12539865.68046  21935279.0234                   21935280.7854
 -12065768.73447  -9376600.50245  22222440.8364                   22222441.1454
 11  8 26  2 27  0.0000000  0  9G26G29G21G12G05G02G15G25G30
  -5485402.13747  -4258297.53144  22453064.6564                   22453064.3984
 -11431671.53948  -8892970.05746  21651897.6334                   21651896.8364
  11860381.69546   9253959.99943  25003268.1804                   25003268.0744
 -21380412.91447 -16635234.04045  22508685.5314                   22508684.9734
 -26962015.17247 -20987521.87246  21016790.6484                   21016789.3284
 -33463009.69147 -26046737.36445  22212880.5084                   22212877.3284
   3092470.02747   2425919.82444  23272699.3914                   23272699.3324
 -16130559.60547 -12547712.07446  21933363.2274                   21933364.7894
 -12069429.03147  -9379452.67045  22221744.2734                   22221744.2934
 11  8 26  2 27 30.0000000  0  9G26G29G21G12G05G02G15G25G30
  -5612905.55147  -4357650.81744  22428801.1644                   22428801.3524
 -11551597.49648  -8986418.81846  21629076.6334                   21629075.7584
  11757118.64846   9173495.40143  24983617.6334                   24983617.5394
 -21343403.79747 -16606395.77745  22515728.0474                   22515727.3444
 -26951186.24247 -20979083.73546  21018851.1884                   21018849.7854
 -33467895.74247 -26050544.67945  22211950.5704                   22211947.6134
   2949467.27347   2314489.17344  23245487.1254                   23245486.3834
 -16140148.13748 -12555183.64345  21931537.8054                   21931540.1414
 -12072628.58247  -9381945.80845  22221135.5554                   22221135.7034
 11  8 26  2 28  0.0000000  0  9G26G29G21G12G05G02G15G25G30
  -5740075.84047  -4456744.51844  22404601.8444                   22404601.4694
 -11671300.18748  -9079693.60746  21606298.0704                   21606297.1914
  11653845.11346   9093022.59643  24963964.7274                   24963966.1094
 -21306166.21147 -16577379.49345  22522813.8524                   22522813.7974
 -26939996.96947 -20970364.81746  21020980.4224                   21020979.0634
 -33472691.77747 -26054281.84845  22211037.8134                   22211034.8134
   2806544.93847   2203121.19444  23218289.6174                   23218288.8524
 -16149257.56648 -12562281.88845  21929804.7344                   21929806.2504
 -12075369.72747  -9384081.76745  22220613.9384                   22220614.1764
 11  8 26  2 28 30.0000000  0  9G26G29G21G12G05G02G15G25G30
  -5866911.90247  -4555577.76044  22380466.1024                   22380465.2194
 -11790779.68748  -9172794.47746  21583561.5234                   21583560.9884
  11550558.17646   9012539.41643  24944310.3754                   24944310.6724
 -21268705.77347 -16548189.54445  22529942.7344                   22529942.3484
 -26928452.20747 -20961368.88446  21023177.1804                   21023175.7934
 -33477400.07847 -26057950.66944  22210142.1724                   22210138.6374
   2663703.71947   2091816.42644  23191107.9844                   23191107.2894
 -16157892.41848 -12569010.33145  21928161.7974                   21928163.2704
 -12077657.46547  -9385864.38645  22220178.5864                   22220178.4924
 11  8 26  2 29  0.0000000  0  9G26G29G21G12G05G02G15G25G30
  -5993405.10247  -4654143.85444  22356394.7814                   22356394.4694
 -11910028.49247  -9265715.58645  21560869.2664                   21560868.3364
  11447262.35546   8932049.25443  24924654.7114                   24924654.2774
 -21231020.36747 -16518824.31045  22537113.9694                   22537113.4264
 -26916549.54747 -20952094.08446  21025442.0864                   21025440.9734
 -33482015.34847 -26061546.98645  22209263.5944                   22209260.4344
   2520951.86347   1980581.28044  23163943.5394                   23163942.4304
 -16166049.80148 -12575366.72045  21926609.4454                   21926611.2544
 -12079489.20347  -9387291.70345  22219829.7194                   22219830.1604
 11  8 26  2 29 30.0000000  0  9G26G29G21G12G05G02G15G25G30
  -6119552.51246  -4752440.48044  22332389.7664                   22332389.3484
 -12029045.27347  -9358455.88846  21538221.3524                   21538220.3364
  11343956.10946   8851551.01843  24904995.1564                   24904995.6054
 -21193114.18447 -16489287.01445  22544327.0004                   22544326.4304
 -26904292.05947 -20942542.76846  21027775.0314                   21027773.2664
 -33486537.93447 -26065071.05045  22208402.8834                   22208399.8444
   2378291.50447   1869417.42544  23136795.7034                   23136794.7114
 -16173732.74247 -12581353.43145  21925146.9924                   21925149.0234
 -12080868.43447  -9388366.40644  22219567.5704                   22219567.3634
 11  8 26  2 30  0.0000000  0  9G26G29G21G12G05G02G15G25G30
  -6245352.27747  -4850466.21744  22308450.6644                   22308450.2814
 -12147829.19548  -9451014.74846  21515617.2734                   21515616.3914
  11240637.44946   8771043.05243  24885334.4774                   24885334.1374
 -21154992.05147 -16459581.47645  22551581.5864                   22551581.1374
 -26891683.76247 -20932718.11746  21030173.9614                   21030172.5124
 -33490968.87547 -26068523.72745  22207559.9144                   22207556.6094
   2235723.77047   1758325.76044  23109665.9224                   23109665.2934
 -16180945.07447 -12586973.43446  21923775.0634                   21923776.6134
 -12081799.31247  -9389091.74145  22219390.3134                   22219390.5084
 11  8 26  2 30 30.0000000  0  9G26G29G21G12G05G02G15G25G30
  -6370802.34047  -4948219.47244  22284578.2344                   22284577.7974
 -12266379.60247  -9543391.64946  21493058.1804                   21493057.1604
  11137304.03946   8690523.57743  24865670.3364                   24865670.2384
 -21116658.51647 -16429711.18745  22558875.9144                   22558875.8014
 -26878728.55148 -20922623.13646  21032639.4064                   21032637.7774
 -33495309.73847 -26071906.21545  22206733.9064                   22206730.4694
   2093250.13347   1647307.38444  23082554.3914                   23082553.6844
 -16187690.59847 -12592229.67645  21922491.4614                   21922493.2544
 -12082286.08647  -9389471.02345  22219297.6024                   22219297.6914
 11  8 26  2 31  0.0000000  0  9G26G29G21G12G05G02G15G25G30
  -6495895.56247  -5045694.63845  22260773.6174                   22260773.5204
 -12384690.18747  -9635581.68246  21470544.2274                   21470543.1374
  11033959.02346   8609995.11643  24846005.0004                   24846004.0704
 -21078112.79747 -16399675.58745  22566211.0944                   22566210.7974
 -26865425.44947 -20912257.07646  21035171.1724                   21035169.7384
 -33499556.39547 -26075215.29345  22205925.4614                   22205922.6254
   1950877.58247   1536367.84144  23055461.6644                   23055461.0394
 -16193967.74647 -12597120.96945  21921296.8674                   21921298.4804
 -12082327.50847  -9389503.28645  22219289.2814                   22219289.7664
 11  8 26  2 31 30.0000000  0  9G26G29G21G12G05G02G15G25G30
  -6620629.57047  -5142889.93445  22237037.8284                   22237037.3754
 -12502760.14147  -9727584.20946  21448076.4614                   21448075.1524
  10930600.01246   8529455.71443  24826336.4534                   24826335.4344
 -21039359.46947 -16369478.18045  22573585.8834                   22573585.2304
 -26851778.43047 -20901623.02046  21037767.8054                   21037766.5164
 -33503710.19147 -26078452.00045  22205134.9924                   22205132.0354
   1808607.71547   1425508.22044  23028388.5474                   23028387.1564
 -16199780.29347 -12601650.21245  21920190.5164                   21920192.3984
 -12081927.66847  -9389191.71044  22219365.7504                   22219365.6134
 11  8 26  2 32  0.0000000  0  9G26G29G21G12G05G02G15G25G30
  -6745000.25047  -5239802.10744  22213371.0164                   22213370.4264
 -12620586.48447  -9819396.90446  21425654.5554                   21425653.5664
  10827227.93846   8448906.08243  24806664.5314                   24806664.6134
 -21000400.66847 -16339120.66945  22580999.3054                   22580998.7854
 -26837789.08647 -20890722.21646  21040429.9304                   21040428.8054
 -33507770.05146 -26081615.51945  22204362.3594                   22204359.6294
   1666443.97746   1314731.37044  23001335.4614                   23001335.1484
 -16205129.86747 -12605818.71245  21919172.5474                   21919174.2854
 -12081088.59447  -9388537.86745  22219525.5864                   22219525.6884
 11  8 26  2 32 30.0000000  0  9G26G29G21G12G05G02G15G25G30
  -6869007.68447  -5336431.22945  22189772.9384                   22189772.3444
 -12738170.71947  -9911020.94746  21403278.8444                   21403278.0474
  10723838.12146   8368342.72943  24786990.3284                   24786989.0234
 -20961243.62147 -16308608.68445  22588450.9534                   22588450.2704
 -26823463.88348 -20879559.73246  21043155.9614                   21043154.6414
 -33511739.14847 -26084708.32145  22203607.1954                   22203604.1994
   1524386.14547   1204037.02144  22974302.4224                   22974301.9924
 -16210022.48847 -12609631.16446  21918241.5634                   21918243.5904
 -12079816.75447  -9387546.82545  22219768.0704                   22219767.5204
 11  8 26  2 33  0.0000000  0  9G26G29G21G12G05G02G15G25G30
  -6992647.34847  -5432773.77744  22166245.3204                   22166244.4414
 -12855509.02347 -10002453.34946  21380950.4064                   21380949.1604
  10620430.86346   8287765.65843  24767312.6484                   24767311.6644
 -20921890.39147 -16277943.83445  22595939.7814                   22595938.7274
 -26808803.75447 -20868136.22946  21045945.9144                   21045944.0274
 -33515616.19947 -26087729.37645  22202869.7504                   22202866.4384
   1382438.12947   1093428.26444  22947290.5084                   22947290.5164
 -16214459.30547 -12613088.42445  21917397.2114                   21917398.9884
 -12078113.57047  -9386219.65445  22220091.9144                   22220091.9924
 11  8 26  2 33 30.0000000  0  9G26G29G21G12G05G02G15G25G30
  -7115911.96147  -5528824.09345  22142788.6094                   22142788.0314
 -12972595.54747 -10093689.54846  21358669.5784                   21358668.4344
  10517009.26246   8207177.49642  24747631.4304                   24747631.0234
 -20882340.30947 -16247125.58644  22603465.5864                   22603464.6054
 -26793808.01648 -20856451.22946  21048799.2274                   21048797.6414
 -33519397.43447 -26090675.79245  22202150.0554                   22202147.0204
   1240606.49647    982910.15844  22920300.5234                   22920300.6174
 -16218439.08247 -12616189.53645  21916639.9384                   21916641.5394
 -12075978.21147  -9384555.72344  22220497.6644                   22220497.5554
 11  8 26  2 34  0.0000000  0  9G26G29G21G12G05G02G15G25G30
  -7238799.59047  -5624580.64745  22119403.9064                   22119403.5864
 -13089429.75847 -10184729.15646  21336436.4844                   21336435.1804
  10413571.53146   8126576.75442  24727948.5314                   24727946.9454
 -20842597.92647 -16216157.49844  22611028.0474                   22611027.5394
 -26778480.45748 -20844507.66746  21051715.8834                   21051714.3914
 -33523083.56247 -26093548.08245  22201448.3984                   22201445.6294
   1098892.85547    872483.98444  22893333.2194                   22893333.2704
 -16221965.72747 -12618937.57345  21915968.7974                   21915970.5744
 -12073414.97347  -9382558.39345  22220985.6644                   22220985.9104
 11  8 26  2 34 30.0000000  0  9G26G29G21G12G05G02G15G25G30
  -7361307.12547  -5720041.04945  22096091.3594                   22096090.7234
 -13206009.57848 -10275570.52446  21314251.8754                   21314251.0784
  10310116.53146   8045962.53542  24708261.7894                   24708260.3204
 -20802666.74247 -16185042.30844  22618626.7814                   22618626.3484
 -26762823.96548 -20832307.80046  21054695.1724                   21054693.9104
 -33526674.96147 -26096346.56145  22200765.1094                   22200762.2734
    957299.97747    762151.95444  22866389.4844                   22866388.3444
 -16225041.98447 -12621334.65445  21915383.3674                   21915384.9694
 -12070426.84847  -9380229.99545  22221554.5704                   22221554.3364
 11  8 26  2 35  0.0000000  0  9G26G29G21G12G05G02G15G25G30
  -7483434.23447  -5815204.98545  22072851.5084                   22072850.7074
 -13322336.10248 -10366214.51446  21292115.6884                   21292114.9144
  10206640.15245   7965331.69942  24688570.1954                   24688569.6214
 -20762553.45347 -16153785.20844  22626259.8204                   22626259.5864
 -26746844.34848 -20819856.12846  21057736.2664                   21057734.4924
 -33530174.70746 -26099073.62645  22200099.1644                   22200096.2894
    815827.46947    651913.68844  22839467.8054                   22839467.5044
 -16227673.56247 -12623385.22245  21914882.7974                   21914884.6804
 -12067020.01247  -9377575.28945  22222202.7814                   22222202.7074
 11  8 26  2 35 30.0000000  0  9G26G29G21G12G05G02G15G25G30
  -7605172.85247  -5910066.21045  22049685.2274                   22049684.6054
 -13438402.01247 -10456655.43846  21270029.5234                   21270027.9184
  10103146.84045   7884687.64842  24668875.6564                   24668875.1804
 -20722256.51647 -16122385.01645  22633928.6414                   22633927.9494
 -26730539.53547 -20807151.07246  21060838.6414                   21060837.7704
 -33533577.67647 -26101725.29745  22199451.3984                   22199448.7584
    674483.17247    541775.33944  22812571.3134                   22812570.4964
 -16229858.23447 -12625087.57445  21914467.0634                   21914468.7974
 -12063192.53147  -9374592.83544  22222931.0704                   22222930.8954
 11  8 26  2 36  0.0000000  0 10G26G29G21G12G05G02G15G25G30G18
  -7726523.39147  -6004625.01945  22026593.0554                   22026592.4414
 -13554208.89848 -10546894.52146  21247991.8984                   21247990.4104
   9999632.34446   7804027.07842  24649177.5394                   24649176.8914
 -20681782.56647 -16090846.86644  22641630.7274                   22641630.1054
 -26713915.85248 -20794197.55746  21064002.3594                   21064000.6564
 -33536887.28947 -26104304.20045  22198821.8054                   22198819.0474
    533266.27347    431736.25844  22785698.1884                   22785698.0664
 -16231602.26647 -12626446.55645  21914134.9304                   21914136.7544
 -12058951.00447  -9371287.74145  22223738.0554                   22223737.6334
  13977788.12116                  24548906.711
 11  8 26  2 36 30.0000000  0 10G26G29G21G12G05G02G15G25G30G18
  -7847491.29347  -6098885.69945  22003573.7974                   22003573.0944
 -13669763.19547 -10636936.77946  21226002.5164                   21226001.3094
   9896086.77745   7723342.30542  24629473.8134                   24629472.4654
 -20641143.81647 -16059180.33145  22649363.9614                   22649362.9184
 -26696984.53147 -20781004.31246  21067223.9534                   21067222.6884
 -33540112.34447 -26106817.21145  22198208.1414                   22198205.2704
    392170.82047    321791.81844  22758848.6024                   22758847.9304
 -16232917.08648 -12627471.10045  21913884.6644                   21913886.2774
 -12054307.20347  -9367669.20244  22224622.0704                   22224622.1454
  13841354.625 6                  24522944.859
 11  8 26  2 37  0.0000000  0 10G26G29G21G12G05G02G15G25G30G18
  -7968076.32447  -6192848.04145  21980626.6334                   21980625.9804
 -13785066.17647 -10726783.20046  21204061.3204                   21204060.3244
   9792506.23845   7642630.28142  24609762.9614                   24609760.8164
 -20600347.00447 -16027390.59345  22657127.2584                   22657127.1254
 -26679751.47348 -20767575.93546  21070503.5084                   21070501.9734
 -33543255.77747 -26109266.64545  22197609.5554                   22197606.8484
    251196.41847    211941.67845  22732022.0004                   22732022.1214
 -16233808.38347 -12628165.59245  21913715.6884                   21913717.2304
 -12049267.25047  -9363741.94444  22225581.0394                   22225580.7774
  13705075.383 5                  24497011.680
 11  8 26  2 37 30.0000000  0 10G26G29G21G12G05G02G15G25G30G18
  -8088277.98047  -6286511.64045  21957753.2504                   21957752.4304
 -13900118.49247 -10816434.31746  21182167.3984                   21182165.9694
   9688887.34446   7561888.34842  24590045.7194                   24590043.6564
 -20559397.91047 -15995482.23344  22664919.1954                   22664918.9734
 -26662222.16448 -20753916.74046  21073839.5004                   21073837.7074
 -33546320.15647 -26111654.44845  22197026.5784                   22197023.6564
    110343.19947    102186.00144  22705218.0864                   22705217.7624
 -16234281.74247 -12628534.43945  21913625.1564                   21913626.7894
 -12043836.99247  -9359510.57944  22226614.8674                   22226614.2664
  13568948.512 6                  24471107.391
 11  8 26  2 38  0.0000000  0 10G26G29G21G12G05G02G15G25G30G18
  -6632662.98047  -5152266.15645  22234747.4924                   22234746.1094
 -12439487.74647  -9678280.44046  21460116.4774                   21460115.0904
  11160658.73846   8708723.30142  24870113.3674                   24870112.4844
 -18942874.78147 -14735853.83445  22972534.1254                   22972533.3164
 -25068973.98448 -19512424.63446  21377024.3204                   21377022.7544
 -31973879.04747 -24886375.66345  22496252.0394                   22496249.4774
   1545044.99647   1220135.48844  22978233.1414                   22978232.6994
 -14658913.61747 -11400974.85445  22213407.4454                   22213409.2974
 -10462593.40647  -8127372.72845  22527514.9454                   22527514.7734
  15008406.063 5                  24745026.266
 11  8 26  2 38 30.0000000  0 10G26G29G21G12G05G02G15G25G30G18
  -6752073.86747  -5245313.57945  22212024.2344                   22212023.8054
 -12554017.52347  -9767524.37746  21438321.6564                   21438321.0234
  11056974.88346   8627930.76242  24850382.2274                   24850381.4614
 -18901616.40647 -14703704.47544  22980385.0784                   22980384.8014
 -25050846.38348 -19498299.23246  21380473.5864                   21380472.2194
 -31976770.46147 -24888628.70145  22495702.1644                   22495699.3984
   1404457.34847   1110586.74645  22951480.1484                   22951479.4534
 -14658544.75447 -11400687.42045  22213477.9064                   22213479.6994
 -10456377.20747  -8122528.93945  22528698.1254                   22528697.5824
  14872601.973 5                  24719182.906
 11  8 26  2 39  0.0000000  0 10G26G29G21G12G05G02G15G25G30G18
  -6871081.03947  -5338046.39545  22189378.3524                   22189377.3204
 -12668279.30947  -9856559.49846  21416578.5314                   21416577.6374
  10953261.09446   8547114.86043  24830647.3284                   24830645.7584
 -18860205.19547 -14671435.98444  22988265.0314                   22988264.7274
 -25032420.23447 -19483941.17646  21383979.7664                   21383978.6174
 -31979571.41447 -24890811.25245  22495168.8364                   22495166.1724
   1264010.16447   1001147.41844  22924753.8524                   22924753.6214
 -14657755.29348 -11400072.24745  22213627.9614                   22213629.9924
 -10449769.08647  -8117379.75145  22529955.1564                   22529955.5274
  14736964.09846  11499218.65652  24693372.4844                   24693373.4344
 11  8 26  2 39 30.0000000  0 10G26G29G21G12G05G02G15G25G30G18
  -6989684.70347  -5430464.77645  22166808.1024                   22166807.7814
 -12782274.50847  -9945386.88246  21394885.7274                   21394884.5824
  10849513.04346   8466272.32243  24810904.9224                   24810903.4384
 -18818647.83647 -14639053.65844  22996173.5394                   22996173.0514
 -25013701.40248 -19469355.07846  21387542.0634                   21387540.6134
 -31982285.71547 -24892926.27644  22494651.8444                   22494649.3634
   1123703.15247    891817.32744  22898054.9844                   22898053.7344
 -14656551.60547 -11399134.30445  22213857.2344                   22213858.8324
 -10442775.62547  -8111930.28844  22531286.3984                   22531285.8914
  14601490.26246  11393654.81342  24667591.5554                   24667592.9574
 11  8 26  2 40  0.0000000  0 10G26G29G21G12G05G02G15G25G30G18
  -7107876.97747  -5522562.63445  22144317.0554                   22144316.8134
 -12895996.06647 -10034001.06146  21373245.3984                   21373244.4924
  10745734.48046   8385405.89943  24791155.8594                   24791155.5594
 -18776943.02747 -14606556.42144  23004109.2034                   23004108.5084
 -24994688.25447 -19454539.62946  21391160.3204                   21391158.9344
 -31984908.32447 -24894969.86945  22494152.6644                   22494150.3054
    983543.29347    782601.90844  22871383.0164                   22871382.4844
 -14654931.75847 -11397872.08145  22214165.2974                   22214166.9224
 -10435395.31647  -8106179.39844  22532690.2424                   22532690.5044
  14466185.89846  11288223.09543  24641844.7194                   24641845.8634
 11  8 26  2 40 30.0000000  0 10G26G29G21G12G05G02G15G25G30G18
  -7225654.59847  -5614337.34745  22121904.8364                   22121904.1564
 -13009441.98847 -10122400.43246  21351657.4774                   21351656.2194
  10641924.90646   8304515.51343  24771401.6564                   24771400.8914
 -18735093.30147 -14573946.21944  23012073.2344                   23012072.6054
 -24975383.20748 -19439496.72146  21394834.1484                   21394832.6254
 -31987438.98847 -24896941.80445  22493671.8674                   22493668.8244
    843533.84847    673503.67544  22844739.8524                   22844738.7114
 -14652898.28947 -11396287.53945  22214552.3444                   22214554.1604
 -10427631.04347  -8100129.31744  22534167.8054                   22534167.7234
  14331052.61346  11182924.63243  24616130.0084                   24616130.5824
 11  8 26  2 41  0.0000000  0 10G26G29G21G12G05G02G15G25G30G18
  -7343016.10947  -5705787.84945  22099571.8674                   22099570.8594
 -13122611.81247 -10210584.68546  21330121.8984                   21330120.4964
  10538081.85546   8223598.92043  24751641.3984                   24751640.2194
 -18693104.88347 -14541228.00144  23020063.1334                   23020062.3134
 -24955790.84048 -19424229.93546  21398562.3364                   21398560.6884
 -31989879.20347 -24898843.27044  22493207.7424                   22493204.2194
    703675.96147    564523.56344  22818125.2734                   22818125.3914
 -14650455.89147 -11394384.34545  22215017.0944                   22215018.5084
 -10419487.70347  -8093783.84944  22535717.8594                   22535717.4414
  14196088.81646  11077758.25443  24590447.1414                   24590447.7234
 11  8 26  2 41 30.0000000  0 10G26G29G21G12G05G02G15G25G30G18
  -7459953.57847  -5796907.88845  22077319.2664                   22077318.2664
 -13235498.69147 -10298548.45246  21308640.0634                   21308638.9264
  10434209.45346   8142659.50243  24731874.3984                   24731874.2734
 -18650975.97747 -14508400.28744  23028080.6414                   23028079.8404
 -24935908.74648 -19408737.38546  21402345.8134                   21402344.4964
 -31992224.13747 -24900670.44944  22492761.1024                   22492758.5084
    563977.11347    455667.37945  22791541.5944                   22791541.1644
 -14647602.54347 -11392160.94245  22215560.2734                   22215561.4574
 -10410963.67247  -8087141.76044  22537339.9844                   22537339.7584
  14061300.80546  10972728.87243  24564797.6484                   24564797.9924
 11  8 26  2 42  0.0000000  0 10G26G29G21G12G05G02G15G25G30G18
  -7576466.20347  -5887696.91345  22055147.5784                   22055146.8524
 -13348102.25047 -10386291.45646  21287212.0004                   21287210.8634
  10330304.55546   8061694.65943  24712101.8754                   24712101.3834
 -18608712.04747 -14475467.36044  23036122.8134                   23036122.0594
 -24915742.53548 -19393023.44546  21406182.8984                   21406181.4224
 -31994476.12947 -24902425.25145  22492332.5394                   22492329.1134
    424438.03547    346935.69745  22764988.7114                   22764987.8444
 -14644343.43447 -11389621.35945  22216180.3594                   22216181.9454
 -10402064.40647  -8080207.24744  22539033.2664                   22539032.9064
  13926687.06346  10867835.23243  24539181.2894                   24539182.3524
 11  8 26  2 42 30.0000000  0 10G26G29G21G12G05G02G15G25G30G18
  -7692548.24647  -5978150.39045  22033057.8444                   22033056.7504
 -13460418.80148 -10473810.82546  21265838.9144                   21265838.1454
  10226369.04746   7980706.09043  24692324.4694                   24692323.4184
 -18566313.74647 -14442429.74744  23044190.7734                   23044190.4224
 -24895292.28148 -19377088.18046  21410074.4614                   21410073.1094
 -31996632.14147 -24904105.24645  22491922.6564                   22491919.2774
    285064.08647    238332.66045  22738466.8284                   22738465.8874
 -14640678.81647 -11386765.80545  22216877.1414                   22216878.9534
 -10392790.58247  -8072980.87945  22540798.3284                   22540798.0474
  13792250.96146  10763079.99043  24513599.1094                   24513599.2814
 11  8 26  2 43  0.0000000  0 10G26G29G21G12G05G02G15G25G30G18
  -7808197.55947  -6068266.70945  22011050.2974                   22011049.6644
 -13572446.74247 -10561105.29346  21244521.0314                   21244519.9614
  10122400.82446   7899691.92943  24672539.6414                   24672538.7894
 -18523785.49647 -14409290.86644  23052283.6254                   23052283.2544
 -24874561.69148 -19360934.46746  21414019.5704                   21414018.1024
 -31998693.16047 -24905711.23044  22491530.6174                   22491526.7194
    145857.05147    129859.68545  22711975.9064                   22711975.7584
 -14636612.57847 -11383597.29745  22217651.4224                   22217652.8164
 -10383146.26247  -8065465.82444  22542633.5084                   22542633.1454
  13657992.66846  10658463.36742  24488050.3984                   24488050.2624
 11  8 26  2 43 30.0000000  0 10G26G29G21G12G05G02G15G25G30G18
  -7923411.77047  -6158043.98345  21989125.8054                   21989125.4574
 -13684184.52047 -10648173.65946  21223258.2344                   21223256.8134
  10018398.69546   7818651.36843  24652748.4144                   24652747.7194
 -18481131.34447 -14376053.90345  23060401.0084                   23060400.1214
 -24853554.05948 -19344564.87946  21418017.2274                   21418015.8134
 -32000659.29347 -24907243.25444  22491156.1334                   22491153.3984
      6819.21147     21518.58445  22685518.2584                   22685517.4574
 -14632148.36747 -11380118.67245  22218501.0554                   22218502.4264
 -10373135.39547  -8057665.13744  22544538.1414                   22544538.2384
  13523912.37546  10553985.39542  24462535.5474                   24462535.1024
 11  8 26  2 44  0.0000000  0 10G26G29G21G12G05G02G15G25G30G18
  -8038186.56247  -6247478.82945  21967284.4774                   21967284.4384
 -13795628.75847 -10735013.29446  21202050.8674                   21202049.7584
   9914363.02046   7737584.77243  24632950.9454                   24632949.5704
 -18438353.44947 -14342720.48044  23068540.6414                   23068540.5744
 -24832270.78948 -19327980.51846  21422067.1884                   21422065.5474
 -32002529.43747 -24908700.49144  22490800.9064                   22490796.6254
   -132045.46947    -86687.60645  22659092.9534                   22659092.5824
 -14627287.73047 -11376331.15545  22219425.4924                   22219427.3324
 -10362759.77747  -8049580.24545  22546513.1254                   22546512.5634
  13390012.24246  10449647.83242  24437054.8364                   24437054.2114
 11  8 26  2 44 30.0000000  0 10G26G29G21G12G05G02G15G25G30G18
  -8152516.05947  -6336566.72445  21945529.0554                   21945527.9884
 -13906774.68447 -10821620.47946  21180900.2274                   21180899.4344
   9810295.97346   7656493.57443  24613147.4454                   24613146.9304
 -18395452.38746 -14309291.08644  23076704.5554                   23076704.1174
 -24810712.31248 -19311181.69546  21426169.9224                   21426168.0634
 -32004300.92647 -24910080.84645  22490463.1724                   22490459.8444
   -270731.59447   -194754.68245  22632701.6644                   22632701.4184
 -14622030.93747 -11372234.93545  22220426.0314                   22220427.5864
 -10352020.14546  -8041211.69444  22548556.4454                   22548556.4804
  13256295.52746  10345453.19542  24411609.1724                   24411608.9774
 11  8 26  2 45  0.0000000  0 10G26G29G21G12G05G02G15G25G30G18
  -8266398.13747  -6425305.94445  21923857.7894                   21923856.8284
 -14017621.10947 -10907994.29546  21159806.5704                   21159805.8204
   9706195.68446   7575376.56643  24593337.7424                   24593336.9694
 -18352432.49647 -14275769.11444  23084891.1644                   23084890.7934
 -24788881.85948 -19294170.95646  21430324.2114                   21430322.6724
 -32005974.55547 -24911384.95245  22490144.7974                   22490141.8054
   -409236.90647   -302680.84244  22606344.7734                   22606344.4614
 -14616381.83247 -11367833.02045  22221501.2504                   22221502.6884
 -10340920.53547  -8032562.63244  22550668.5634                   22550668.4264
  13122762.62146  10241401.71142  24386198.8914                   24386197.6994
 11  8 26  2 45 30.0000000  0 10G26G29G21G12G05G02G15G25G30G18
  -8379827.73447  -6513692.60945  21902272.4694                   21902271.6724
 -14128163.74247 -10994131.37446  21138771.4534                   21138770.0594
   9602063.57446   7494234.76943  24573521.8754                   24573521.2504
 -18309295.21947 -14242155.68044  23093099.8444                   23093099.7504
 -24766780.30548 -19276948.95646  21434529.6414                   21434528.3524
 -32007547.96547 -24912610.98644  22489845.4614                   22489841.6804
   -547556.60547   -410462.37144  22580024.0704                   22580023.1764
 -14610341.34447 -11363126.14245  22222650.2274                   22222652.0354
 -10329462.18047  -8023634.02544  22552849.3594                   22552848.1174
  12989416.25446  10137495.69142  24360823.0554                   24360822.5744
 11  8 26  2 46  0.0000000  0 10G26G29G21G12G05G02G15G25G30G18
  -8492802.46547  -6601724.84245  21880774.4304                   21880773.6334
 -14238401.21147 -11080030.66746  21117793.7974                   21117792.4804
   9497898.31346   7413067.14943  24553699.2664                   24553699.2344
 -18266044.16046 -14208453.57144  23101330.4304                   23101329.3284
 -24744411.21148 -19259518.49646  21438786.0394                   21438784.8714
 -32009021.56647 -24913759.23444  22489564.5784                   22489561.6954
   -685688.50847   -518097.57544  22553738.4384                   22553737.0824
 -14603913.15247 -11358117.15045  22223873.9384                   22223875.4264
 -10317649.10547  -8014429.04444  22555096.8914                   22555097.0514
  12856256.84846  10033735.18243  24335484.1564                   24335482.9734
 11  8 26  2 46 30.0000000  0 10G26G29G21G12G05G02G15G25G30G18
  -8605320.02347  -6689400.81845  21859362.8204                   21859361.6294
 -14348332.16047 -11165691.10746  21096874.6804                   21096873.1174
   9393698.36346   7331872.50943  24533871.9534                   24533870.6254
 -18222683.31646 -14174665.90644  23109581.8204                   23109581.0704
 -24721777.54748 -19241881.86946  21443093.2974                   21443091.6334
 -32010395.81647 -24914830.04745  22489303.3834                   22489300.2154
   -823630.26247   -625584.59545  22527488.9774                   22527488.0944
 -14597100.75447 -11352808.77345  22225170.1254                   22225171.9104
 -10305484.93047  -8004950.41044  22557411.9304                   22557411.2624
  12723284.56346   9930120.60542  24310179.6414                   24310179.9064
 11  8 26  2 47  0.0000000  0 10G26G29G21G12G05G02G15G25G30G18
  -8717374.46147  -6776715.93545  21838039.8524                   21838039.1294
 -14457951.64847 -11251108.84146  21076014.6564                   21076013.5234
   9289465.77046   7250652.37243  24514036.5314                   24514035.4344
 -18179213.59447 -14140793.41644  23117854.1644                   23117852.8134
 -24698879.52348 -19224039.25246  21447450.7584                   21447449.3634
 -32011667.87947 -24915821.27744  22489061.1564                   22489057.8014
   -961376.58247   -732919.36845  22501276.3834                   22501275.6684
 -14589904.35947 -11347201.19045  22226539.5234                   22226541.2074
 -10292970.27047  -7995198.72544  22559793.1564                   22559792.9104
  12590502.80146   9826654.46942  24284912.0234                   24284911.9024
 11  8 26  2 47 30.0000000  0 10G26G29G21G12G05G02G15G25G30G18
  -8828964.75047  -6863669.37545  21816804.5784                   21816803.9344
 -14567259.30547 -11336283.59146  21055214.1334                   21055212.7894
   9185197.94946   7169404.84443  24494194.9774                   24494193.7734
 -18135639.72746 -14106839.79144  23126145.2424                   23126145.1954
 -24675721.80948 -19205994.27846  21451857.5864                   21451855.9304
 -32012839.48047 -24916734.19044  22488838.4534                   22488835.0784
  -1098926.44547   -840101.04445  22475101.5164                   22475100.5824
 -14582328.85247 -11341298.19845  22227981.0634                   22227982.6414
 -10280110.33647  -7985177.97444  22562240.1804                   22562239.9694
  12457911.00446   9723336.38843  24259680.3134                   24259679.8484
 11  8 26  2 48  0.0000000  0 10G26G29G21G12G05G02G15G25G30G18
  -8940086.61347  -6950257.79945  21795659.1414                   21795658.4184
 -14676252.14847 -11421213.03446  21034473.5784                   21034472.2584
   9080895.53946   7088130.32343  24474345.7424                   24474345.3594
 -18091964.27347 -14072806.95844  23134456.9384                   23134456.0594
 -24652306.07847 -19187748.25646  21456313.4534                   21456312.2464
 -32013909.06647 -24917567.61445  22488634.3284                   22488631.4104
  -1236275.72347   -947126.39045  22448964.7664                   22448964.1334
 -14574376.15247 -11335101.28645  22229494.6334                   22229496.0634
 -10266907.13747  -7974889.76444  22564752.8914                   22564752.6764
  12325510.81346   9620167.54742  24234485.5944                   24234484.9574
 11  8 26  2 48 30.0000000  0 10G26G29G21G12G05G02G15G25G30G18
  -9050736.77047  -7036478.65945  21774602.9924                   21774601.7854
 -14784927.30547 -11505894.93746  21013792.9844                   21013792.0944
   8976557.97346   7006828.50643  24454491.5704                   24454490.2974
 -18048190.22346 -14038697.34844  23142786.8674                   23142786.1844
 -24628634.51648 -19169302.86446  21460818.1024                   21460816.7304
 -32014876.23847 -24918321.24245  22488450.7734                   22488447.7814
  -1373421.13347  -1053992.88845  22422866.4064                   22422866.0864
 -14566048.88347 -11328612.50845  22231079.3524                   22231080.5084
 -10253363.72746  -7964336.46144  22567329.6414                   22567329.5594
  12193303.56646   9517149.01143  24209327.4454                   24209326.6994
 11  8 26  2 49  0.0000000  0 10G26G29G21G12G05G02G15G25G30G18
  -9160911.48046  -7122329.05645  21753637.5554                   21753636.2194
 -14893281.79747 -11590326.95046  20993173.8054                   20993172.9264
   8872185.41446   6925499.26643  24434630.0634                   24434629.3914
 -18004319.46546 -14004512.37944  23151135.6804                   23151134.3284
 -24604708.98447 -19150659.60046  21465370.7194                   21465369.3364
 -32015739.94547 -24918994.27544  22488286.0084                   22488282.8444
  -1510359.21947  -1160697.85245  22396808.4534                   22396807.6844
 -14557349.21947 -11321833.53845  22232734.7344                   22232736.2194
 -10239482.53546  -7953519.92944  22569971.4384                   22569970.7344
  12061290.86346   9414282.21643  24184207.0234                   24184205.6414
 11  8 26  2 49 30.0000000  0 10G26G29G21G12G05G02G15G25G30G18
  -9270607.25847  -7207806.25845  21732763.1804                   21732761.7774
 -15001313.37547 -11674507.35646  20972616.4694                   20972615.0274
   8767777.50046   6844142.60643  24414761.6174                   24414760.3054
 -17960355.41046 -13970254.68444  23159501.4534                   23159500.5434
 -24580531.64548 -19131820.11046  21469971.8754                   21469969.9844
 -32016499.53947 -24919586.14544  22488141.9844                   22488138.5204
  -1647086.60947  -1267238.62345  22370790.0784                   22370788.8954
 -14548279.66047 -11314766.35545  22234460.3204                   22234462.2074
 -10225266.30147  -7942442.33544  22572676.7584                   22572676.1884
  11929473.80146   9311567.79343  24159122.3364                   24159121.6764
 11  8 26  2 50  0.0000000  0 10G26G29G21G12G05G02G15G25G30G18
  -9379822.33646  -7292908.88545  21711979.7114                   21711979.0474
 -15109020.74247 -11758435.13446  20952120.0704                   20952119.0664
   8663332.69546   6762757.15343  24394887.1564                   24394885.2934
 -17916302.40246 -13935927.68444  23167884.5004                   23167883.8054
 -24556106.45348 -19112787.48346  21474619.4224                   21474617.9224
 -32017155.75847 -24920097.48944  22488017.3444                   22488012.9964
  -1783601.27046  -1373613.64045  22344811.9304                   22344811.0004
 -14538844.25047 -11307414.08945  22236256.1484                   22236257.7934
 -10210719.35947  -7931107.04144  22575445.4144                   22575444.4344
  11797852.47746   9209005.81843  24134076.0234                   24134074.5204
 11  8 26  2 50 30.0000000  0 10G26G29G21G12G05G02G15G25G30G18
  -9488553.92247  -7377634.76445  21691288.8054                   21691288.1454
 -15216402.18747 -11842108.94146  20931686.0864                   20931685.0204
   8558849.93046   6681342.15443  24375004.5704                   24375002.3444
 -17872163.92646 -13901534.08544  23176283.2194                   23176282.9884
 -24531436.37948 -19093564.06146  21479314.1804                   21479312.7344
 -32017709.26647 -24920528.79944  22487912.1024                   22487908.5354
  -1919900.85947  -1479821.07845  22318875.2504                   22318873.7894
 -14529046.56647 -11299779.53945  22238120.5704                   22238121.9454
 -10195845.46947  -7919517.02244  22578275.4774                   22578274.7234
  11666427.23446   9106596.83243  24109065.4774                   24109065.1954
 11  8 26  2 51  0.0000000  0 10G26G29G21G12G05G02G15G25G30G18
  -9596796.67647  -7461979.72345  21670690.7274                   21670690.2934
 -15323453.26647 -11925525.32246  20911314.9144                   20911313.6174
   8454331.19146   6599899.04043  24355114.9534                   24355113.5474
 -17827940.43746 -13867074.26244  23184699.0314                   23184698.2344
 -24506521.65247 -19074149.97946  21484055.0784                   21484053.9694
 -32018156.52047 -24920877.32545  22487826.4144                   22487823.4024
  -2055979.58647  -1585856.40245  22292979.9924                   22292979.1954
 -14518886.95747 -11291862.95745  22240053.9774                   22240055.5824
 -10180645.27747  -7907672.69544  22581168.1094                   22581167.8794
  11535201.55146   9004343.15343  24084093.4454                   24084093.0514
 11  8 26  2 51 30.0000000  0 10G26G29G21G12G05G02G15G25G30G18
  -9704546.69947  -7545940.75845  21650186.8444                   21650185.9494
 -15430170.44547 -12008681.52346  20891007.4304                   20891006.3134
   8349776.83246   6518428.20843  24335219.1564                   24335217.0394
 -17783634.27346 -13832549.98444  23193130.4144                   23193129.6524
 -24481363.76648 -19054546.42546  21488842.8984                   21488841.2384
 -32018496.16447 -24921141.99544  22487761.8524                   22487758.0554
  -2191833.91447  -1691716.86845  22267127.6414                   22267126.6804
 -14508367.37947 -11283665.86845  22242055.0864                   22242057.1804
 -10165121.00447  -7895575.83944  22584122.1024                   22584121.4224
  11404177.11746   8902246.36742  24059160.7034                   24059160.2584
 11  8 26  2 52  0.0000000  0 10G26G29G21G12G05G02G15G25G30G18
  -9811802.93747  -7629517.00645  21629776.4224                   21629775.7304
 -15536553.82847 -12091577.63346  20870763.2734                   20870762.2304
   8245184.02046   6436927.38543  24315315.1884                   24315313.2234
 -17739250.99246 -13797965.65644  23201576.3914                   23201575.3634
 -24455967.61748 -19034757.22046  21493675.2814                   21493673.7974
 -32018730.58247 -24921324.66244  22487716.9454                   22487714.1844
  -2327463.01247  -1797401.85145  22241318.5164                   22241317.6724
 -14497493.02047 -11275192.34045  22244124.3754                   22244126.2584
 -10149278.06247  -7883230.72944  22587136.6644                   22587136.5904
  11273352.95346   8800305.67243  24034265.0554                   24034264.7544
 11  8 26  2 52 30.0000000  0 10G26G29G21G12G05G02G15G25G30G18
  -9918559.78147  -7712704.11545  21609461.3754                   21609460.9534
 -15642598.51647 -12174209.82246  20850583.6334                   20850582.5824
   8140554.90246   6355398.35543  24295405.8054                   24295403.5634
 -17694790.95346 -13763321.46944  23210036.7664                   23210035.9884
 -24430332.88347 -19014782.09546  21498553.4064                   21498551.7974
 -32018856.67647 -24921422.95144  22487692.8444                   22487689.7624
  -2462861.22347  -1902906.89845  22215553.1414                   22215551.9774
 -14486264.14147 -11266442.55545  22246261.5704                   22246263.4884
 -10133116.97747  -7870637.65344  22590212.1254                   22590211.9224
  11142732.12146   8698523.36643  24009408.8914                   24009408.3484
 11  8 26  2 53  0.0000000  0 10G26G29G21G12G05G02G15G25G30G18
 -10024816.84847  -7795501.78745  21589241.2274                   21589240.2424
 -15748304.62947 -12256578.18846  20830468.1254                   20830467.0124
   8035886.39546   6273838.48443  24275487.6334                   24275485.7074
 -17650259.71146 -13728621.85144  23218510.5864                   23218509.7704
 -24404464.67248 -18994625.02646  21503475.7664                   21503474.2274
 -32018876.79347 -24921438.61744  22487689.5864                   22487686.3014
  -2598028.05947  -2008231.66145  22189831.2194                   22189830.7034
 -14474686.28147 -11257420.85445  22248465.0554                   22248466.0554
 -10116643.55547  -7857801.22244  22593347.0784                   22593346.8364
  11012313.35946   8596898.48042  23984590.8834                   23984589.7814
 11  8 26  2 53 30.0000000  0 10G26G29G21G12G05G02G15G25G30G18
 -10130569.98447  -7877906.79945  21569117.2194                   21569116.2664
 -15853668.49647 -12338679.88246  20810417.9534                   20810416.7424
   7931179.48046   6192248.84343  24255562.4924                   24255560.4884
 -17605659.07446 -13693868.12744  23226997.2664                   23226997.1524
 -24378364.25847 -18974287.05446  21508442.8914                   21508440.9844
 -32018789.27047 -24921370.44344  22487706.2894                   22487703.4414
  -2732959.10247  -2113372.68645  22164155.1644                   22164153.9224
 -14462761.09047 -11248128.49645  22250733.7114                   22250735.4964
 -10099859.58647  -7844722.80644  22596540.5944                   22596540.6884
  10882098.90246   8495432.85542  23959812.2664                   23959811.3204
 11  8 26  2 54  0.0000000  0 10G26G29G21G12G05G02G15G25G30G18
 -10235815.92247  -7959916.58645  21549089.3984                   21549088.5864
 -15958688.07047 -12420513.28246  20790433.7274                   20790432.5004
   7826433.60546   6110628.73943  24235629.5704                   24235627.9734
 -17560992.14146 -13659062.75544  23235497.5864                   23235497.1524
 -24352034.12947 -18953770.06645  21513453.3444                   21513451.3094
 -32018592.87947 -24921217.43544  22487743.3984                   22487740.4454
  -2867651.23847  -2218327.53445  22138523.9144                   22138522.9574
 -14450491.33647 -11238567.64445  22253069.1414                   22253070.4224
 -10082768.21946  -7831404.88144  22599793.3914                   22599792.9304
  10752089.95746   8394127.32643  23935072.5634                   23935070.9924
 11  8 26  2 54 30.0000000  0 10G26G29G21G12G05G02G15G25G30G18
  -8765128.38747  -6813926.28545  21828951.7194                   21828950.8674
 -14487937.75447 -11274474.05546  21070308.2584                   21070306.8874
   9297071.80546   7256580.59343  24515482.6724                   24515481.8524
 -15940843.72346 -12396609.48444  23543801.3444                   23543800.9384
 -22750057.80547 -17705476.82746  21818298.9534                   21818297.5784
 -30442867.52747 -23693379.51544  22787593.1954                   22787590.7304
  -1426677.22747  -1095490.60045  22412732.1334                   22412731.1214
 -12862460.63347 -10001141.12345  22555261.2894                   22555262.6054
  -8489953.39147  -6590250.44044  22902895.8984                   22902895.3874
  12197711.20346   9520585.55443  24210164.8754                   24210163.9024
 11  8 26  2 55  0.0000000  0 10G26G29G21G12G05G02G15G25G30G18
  -8869355.03547  -6895141.81045  21809118.2664                   21809116.6254
 -14592265.74647 -11355768.57446  21050454.8524                   21050453.8094
   9192242.80546   7174895.73243  24495534.6174                   24495532.3834
 -15896057.21546 -12361710.93244  23552324.1254                   23552323.8714
 -22723279.56647 -17684610.67445  21823394.7814                   21823393.3984
 -30442456.74247 -23693059.47444  22787672.3444                   22787668.7624
  -1560886.60547  -1200069.30445  22387192.8914                   22387191.5664
 -12849514.64147  -9991053.34245  22557724.4924                   22557726.2664
  -8472260.66447  -6576463.91244  22906262.6174                   22906262.1024
  12068111.54746   9419598.97543  24185502.6954                   24185501.9884
 11  8 26  2 55 30.0000000  0 10G26G29G21G12G05G02G15G25G30G18
  -8973063.56247  -6975953.59445  21789383.2814                   21789382.3634
 -14696240.47747 -11436787.83246  21030669.6884                   21030668.3284
   9087375.65246   7093181.14343  24475578.8834                   24475577.9144
 -15851211.47346 -12326766.23644  23560857.4774                   23560857.5554
 -22696277.02347 -17663569.71445  21828533.2664                   21828531.6174
 -30441934.55947 -23692652.57144  22787771.4534                   22787768.4104
  -1694846.02347  -1304453.22245  22361701.1414                   22361700.6294
 -12836230.91447  -9980702.37945  22560252.4304                   22560253.7734
  -8454267.92246  -6562443.59644  22909686.5314                   22909686.4224
  11938722.09446   9318776.14343  24160880.6254                   24160879.7624
 11  8 26  2 56  0.0000000  0 10G26G29G21G12G05G02G15G25G30G18
  -9076254.11347  -7056361.78845  21769746.5394                   21769746.1054
 -14799862.70347 -11517532.39246  21010950.5234                   21010949.3244
   8982466.80146   7011434.05543  24455615.2974                   24455613.6454
 -15806312.81246 -12291780.29143  23569401.6174                   23569401.2934
 -22669055.77748 -17642358.35446  21833713.4774                   21833711.6454
 -30441303.23847 -23692160.65944  22787891.3674                   22787888.8484
  -1828555.52047  -1408642.38445  22336257.2974                   22336256.4534
 -12822615.64847  -9970093.08345  22562843.2424                   22562844.8984
  -8435981.68046  -6548194.57944  22913166.4384                   22913165.6994
  11809540.37546   9218115.16143  24136297.7114                   24136297.5904
 11  8 26  2 56 30.0000000  0 10G26G29G21G12G05G02G15G25G30G18
  -9178922.07847  -7136362.77745  21750209.8754                   21750208.7194
 -14903128.37147 -11597999.12946  20991299.6884                   20991298.6954
   8877517.71546   6929655.62943  24435643.6804                   24435643.1174
 -15761362.13346 -12256753.82844  23577956.4384                   23577955.5314
 -22641616.28548 -17620976.93646  21838934.7734                   21838933.2664
 -30440560.58647 -23691581.99944  22788033.0554                   22788029.8914
  -1962010.16047  -1512632.97945  22310861.6174                   22310860.7664
 -12808669.89547  -9959226.26745  22565497.1564                   22565498.9494
  -8417403.14146  -6533717.80244  22916701.4224                   22916701.3674
  11680569.18046   9117618.18843  24111755.9454                   24111754.4104
 11  8 26  2 57  0.0000000  0 10G26G29G21G12G05G02G15G25G30G18
  -9281062.98447  -7215953.04645  21730772.8754                   21730772.0434
 -15006033.71547 -11678185.08746  20971717.7114                   20971716.3954
   8772529.46946   6847846.68443  24415665.2664                   24415664.0784
 -15716361.34846 -12221688.31244  23586519.6884                   23586518.4534
 -22613959.44147 -17599426.15146  21844197.4774                   21844196.3324
 -30439704.70347 -23690915.09944  22788195.9614                   22788192.7624
  -2095205.51647  -1616421.52645  22285514.9454                   22285514.5514
 -12794395.04347  -9948103.01145  22568213.5634                   22568215.1054
  -8398533.93046  -6519014.52944  22920292.4064                   22920291.9614
  11551811.12946   9017287.48543  24087253.3834                   24087251.9264
 11  8 26  2 57 30.0000000  0 10G26G29G21G12G05G02G15G25G30G18
  -9382673.07447  -7295129.68945  21711437.2034                   21711436.1954
 -15108575.74247 -11758087.94546  20952204.8834                   20952203.2584
   8667502.30946   6766007.42343  24395679.0944                   24395678.0634
 -15671312.64546 -12186585.44644  23595091.8204                   23595091.5354
 -22586087.19547 -17577707.51045  21849501.8834                   21849500.3484
 -30438734.52347 -23690159.11344  22788380.7894                   22788377.9264
  -2228137.77347  -1720005.05245  22260219.2034                   22260217.9304
 -12779793.30947  -9936725.03245  22570992.2974                   22570993.7154
  -8379376.54347  -6504086.69044  22923938.2504                   22923937.2974
  11423267.77046   8917123.97843  24062791.9614                   24062791.1564
 11  8 26  2 58  0.0000000  0 10G26G29G21G12G05G02G15G25G30G18
  -9483751.73447  -7373892.24945  21692202.1094                   21692201.6374
 -15210754.46147 -11837707.70746  20932760.7114                   20932759.0664
   8562433.50846   6684135.72843  24375685.9144                   24375683.7624
 -15626221.01647 -12151449.12944  23603672.7344                   23603671.8364
 -22558004.09447 -17555824.57745  21854845.7504                   21854844.0704
 -30437651.54347 -23689315.22444  22788586.4304                   22788583.7464
  -2360806.16447  -1823382.96545  22234973.3204                   22234972.3444
 -12764869.93447  -9925096.42645  22573832.4144                   22573833.7274
  -8359936.37147  -6488938.49844  22927637.2424                   22927636.7384
  11294937.79346   8817126.72143  24038371.7274                   24038371.0354
 11  8 26  2 58 30.0000000  0 10G26G29G21G12G05G02G15G25G30G18
  -9584298.35947  -7452240.24445  21673069.1094                   21673068.1804
 -15312569.59847 -11917044.15646  20913385.7664                   20913384.3364
   8457320.48046   6602229.62043  24355682.8284                   24355681.7814
 -15581091.76647 -12116283.51644  23612260.6254                   23612260.2384
 -22529714.83248 -17533781.00845  21860229.1884                   21860227.5664
 -30436457.62547 -23688384.91144  22788813.8524                   22788811.0554
  -2493209.57847  -1926554.39745  22209778.0234                   22209776.6334
 -12749630.07047  -9913221.20945  22576731.7894                   22576733.5274
  -8340218.73846  -6473574.11944  22931389.6254                   22931388.9534
  11166819.88746   8717294.68543  24013991.0864                   24013990.7894
 11  8 26  2 59  0.0000000  0 10G26G29G21G12G05G02G15G25G30G18
  -9684307.67647  -7530169.54045  21654037.7504                   21654036.7344
 -15414016.27047 -11996093.47746  20894080.9774                   20894079.7424
   8352165.64546   6520290.88343  24335672.4844                   24335671.3524
 -15535925.46547 -12081089.01044  23620855.1564                   23620855.0664
 -22501219.37147 -17511576.74945  21865651.7584                   21865649.8634
 -30435149.93447 -23687365.94844  22789062.4384                   22789059.9144
  -2625342.60547  -2029515.14145  22184633.1484                   22184632.5004
 -12734074.25447  -9901099.80245  22579692.6094                   22579694.3094
  -8320224.40246  -6457994.11744  22935193.8054                   22935193.4844
  11038917.52346   8617630.74343  23989652.8134                   23989651.8714
 11  8 26  2 59 30.0000000  0 10G26G29G21G12G05G02G15G25G30G18
  -9783775.94147  -7607677.25245  21635109.9304                   21635108.5944
 -15515091.50047 -12074853.38046  20874847.1564                   20874845.7274
   8246969.33246   6438319.79743  24315653.6094                   24315652.5274
 -15490724.22346 -12045867.31044  23629456.4064                   23629456.7814
 -22472519.13747 -17489212.93545  21871113.3754                   21871111.2504
 -30433726.90647 -23686257.07144  22789333.2344                   22789330.9494
  -2757201.66047  -2132262.43345  22159541.1804                   22159540.4804
 -12718204.59047  -9888733.81545  22582712.3284                   22582713.8874
  -8299955.83646  -6442200.43344  22939051.1564                   22939050.5164
  10911232.27346   8518135.79743  23965354.5234                   23965354.3094
 11  8 26  3  0  0.0000000  0 10G26G29G21G12G05G02G15G25G30G18
  -9882704.39847  -7684764.34145  21616284.1414                   21616283.3364
 -15615797.47747 -12153325.53246  20855683.5234                   20855681.9924
   8141726.73846   6356312.68143  24295626.9064                   24295625.5354
 -15445495.16846 -12010623.95044  23638063.4774                   23638063.0394
 -22443620.66847 -17466694.63745  21876611.8674                   21876610.6214
 -30432192.50447 -23685061.45544  22789625.7194                   22789622.6414
  -2888787.59847  -2234796.86345  22134501.3914                   22134500.4654
 -12702028.31647  -9876128.91245  22585790.2664                   22585792.2274
  -8279420.23047  -6426198.66644  22942959.0234                   22942958.5394
  10783760.78146   8418807.48443  23941097.1644                   23941096.5124
 11  8 26  3  0 30.0000000  0 10G26G29G21G12G05G02G15G25G30G18
  -9981085.03547  -7761424.55745  21597562.8284                   21597561.3914
 -15716126.32447 -12231503.83546  20836591.1564                   20836589.7584
   8036443.08246   6274273.61543  24275592.0314                   24275590.6644
 -15400235.91046 -11975357.02544  23646675.7194                   23646675.7734
 -22414521.06647 -17444019.61545  21882149.5394                   21882148.3484
 -30430540.60547 -23683774.25244  22789939.8984                   22789937.2664
  -3020092.06647  -2337112.01445  22109514.6414                   22109514.1414
 -12685542.92247  -9863283.16845  22588927.3914                   22588929.0944
  -8258615.41846  -6409987.12744  22946917.9614                   22946917.8164
  10656509.68846   8319650.90943  23916882.6884                   23916880.8754
 11  8 26  3  1  0.0000000  0 10G26G29G21G12G05G02G15G25G30G18
 -10078917.49247  -7837657.60945  21578945.9614                   21578944.5514
 -15816078.19547 -12309388.39246  20817571.2274                   20817570.0554
   7931115.63346   6192200.42543  24255549.1484                   24255547.4614
 -15354951.71146 -11940070.69644  23655293.3204                   23655292.8484
 -22385225.34847 -17421191.78745  21887724.5634                   21887722.6524
 -30428773.40647 -23682397.23644  22790276.4224                   22790273.6054
  -3151114.63347  -2439207.46645  22084581.8524                   22084581.3954
 -12668754.00847  -9850200.86645  22592122.5704                   22592124.0084
  -8237547.12946  -6393570.30544  22950927.2424                   22950927.0784
  10529476.77046   8220664.37543  23892708.8134                   23892707.8164
 11  8 26  3  1 30.0000000  0 10G26G29G21G12G05G02G15G25G30G18
 -10176196.06647  -7913459.06845  21560434.4454                   21560433.6884
 -15915648.08247 -12386975.29046  20798623.5314                   20798622.0204
   7825747.00846   6110095.15543  24235497.7504                   24235496.7344
 -15309642.89146 -11904765.14544  23663915.5704                   23663914.6844
 -22355732.99247 -17398210.73845  21893336.7114                   21893335.4264
 -30426887.64147 -23680927.81444  22790635.3594                   22790631.9924
  -3281849.15247  -2541078.47245  22059704.3984                   22059703.1804
 -12651661.59847  -9836882.11245  22595374.9774                   22595376.2544
  -8216215.60546  -6376948.33044  22954986.6884                   22954985.9924
  10402666.05546   8121850.89043  23868578.2504                   23868576.0664
 11  8 26  3  2  0.0000000  0 10G26G29G21G12G05G02G15G25G30G18
 -10272919.37947  -7988827.84245  21542028.5554                   21542027.4774
 -16014834.97747 -12464263.74446  20779748.7664                   20779747.8014
   7720335.33646   6027956.29443  24215438.9454                   24215436.9024
 -15264313.55546 -11869443.64844  23672541.0634                   23672541.1724
 -22326047.19147 -17375078.94245  21898985.5944                   21898984.0354
 -30424883.98047 -23679366.53244  22791016.1024                   22791013.2344
  -3412293.94547  -2642723.72745  22034880.9694                   22034880.3014
 -12634269.98847  -9823330.20545  22598684.5314                   22598685.5904
  -8194625.25046  -6360124.70344  22959094.9064                   22959094.5434
  10276077.07046   8023210.23943  23844488.1024                   23844486.9884
 11  8 26  3  2 30.0000000  0 10G26G29G21G12G05G02G15G25G30G18
 -10369084.04747  -8063761.33445  21523728.8284                   21523728.2234
 -16113635.85947 -12541251.41646  20760947.8674                   20760946.3834
   7614881.49646   5945784.63443  24195371.1644                   24195369.9804
 -15218966.02746 -11834107.92044  23681170.9064                   23681170.2544
 -22296170.00847 -17351797.99745  21904671.2034                   21904669.7704
 -30422761.06247 -23677712.32144  22791420.5394                   22791417.5434
  -3542445.23447  -2744140.26445  22010114.0704                   22010113.3634
 -12616581.51247  -9809546.96745  22602050.5864                   22602052.0984
  -8172778.69546  -6343101.41944  22963251.9694                   22963252.0824
  10149711.41846   7924743.65543  23820441.4694                   23820440.0864
 11  8 26  3  3  0.0000000  0 10G26G29G21G12G05G02G15G25G30G18
 -10464683.55547  -8138254.41245  21505537.1804                   21505535.7624
 -16212044.79347 -12617933.67646  20742221.0004                   20742219.6764
   7509388.60946   5863582.46443  24175296.3754                   24175294.8404
 -15173599.50046 -11798757.39143  23689803.8054                   23689802.8754
 -22266099.90647 -17328366.75445  21910393.1804                   21910391.6214
 -30420514.82047 -23675961.97644  22791848.0234                   22791844.8324
  -3672296.32447  -2845322.89245  21985404.2974                   21985403.2974
 -12598595.55947  -9795531.91645  22605473.0314                   22605474.6844
  -8150675.42646  -6325878.07544  22967458.6804                   22967457.7424
  10023573.62146   7826454.57643  23796439.1254                   23796437.0204
 11  8 26  3  3 30.0000000  0 10G26G29G21G12G05G02G15G25G30G18
 -10559722.50447  -8212310.71945  21487451.7734                   21487450.9844
 -16310066.80947 -12694314.43846  20723568.1564                   20723566.8954
   7403848.94946   5781343.92643  24155213.0004                   24155211.6214
 -15128224.09046 -11763399.97943  23698438.5864                   23698438.1294
 -22235846.78547 -17304792.88945  21916150.4454                   21916148.4384
 -30418152.41847 -23674121.15044  22792297.1024                   22792294.7544
  -3801851.54747  -2946274.97245  21960750.8834                   21960749.8594
 -12580322.41847  -9781293.10345  22608950.2734                   22608952.0744
  -8128325.99246  -6308462.94544  22971711.3284                   22971711.3094
   9897657.03346   7728337.86443  23772476.8284                   23772475.7234
 11  8 26  3  4  0.0000000  0 10G26G29G21G12G05G02G15G25G30G18
 -10654193.67647  -8285924.59045  21469474.6414                   21469473.5594
 -16407694.96148 -12770388.31046  20704989.8524                   20704988.7234
   7298266.89146   5699072.29843  24135121.2664                   24135119.9184
 -15082838.15247 -11728034.34243  23707075.5394                   23707074.8984
 -22205408.31247 -17281074.61245  21921942.0004                   21921940.9734
 -30415668.19147 -23672185.40644  22792770.4144                   22792767.0004
  -3931103.14147  -3046990.45545  21936155.0394                   21936154.0004
 -12561760.23447  -9766829.05945  22612482.3204                   22612483.9144
  -8105728.59046  -6290854.60344  22976011.1484                   22976011.3054
   9771967.43046   7630397.99243  23748558.6804                   23748558.4384
 11  8 26  3  4 30.0000000  0 10G26G29G21G12G05G02G15G25G30G18
 -10748093.06647  -8359092.91245  21451605.9924                   21451605.2664
 -16504925.92647 -12846152.68046  20686487.6094                   20686486.4574
   7192643.19146   5616768.21643  24115021.3054                   24115020.4304
 -15037443.21946 -11692661.72444  23715713.8834                   23715713.2194
 -22174785.12147 -17257212.38145  21927769.8914                   21927768.3914
 -30413060.55147 -23670153.47944  22793266.3204                   22793263.1724
  -4060047.14847  -3147466.26845  21911617.7034                   21911616.5984
 -12542910.98847  -9752141.33045  22616069.6884                   22616071.1564
  -8082885.49646  -6273054.78144  22980358.3984                   22980358.3984
   9646506.60946   7532636.41243  23724684.9924                   23724683.3634
 11  8 26  3  5  0.0000000  0 10G26G29G21G12G05G02G15G25G30G18
 -10841421.39847  -8431816.25045  21433845.8594                   21433845.1374
 -16601760.88347 -12921608.46846  20668060.2974                   20668059.1094
   7086974.61746   5534429.16943  24094913.3984                   24094911.5784
 -14992045.43446 -11657286.85044  23724352.4694                   23724352.1174
 -22143983.05547 -17233210.77245  21933631.2664                   21933629.7774
 -30410332.17647 -23668027.50244  22793785.0944                   22793782.1484
  -4188683.16047  -3247702.08145  21887139.1174                   21887137.6254
 -12523780.96547  -9737234.82845  22619709.4774                   22619711.7074
  -8059803.03146  -6255068.44344  22984750.9224                   22984750.6914
   9521272.22346   7435051.28143  23700853.1724                   23700852.2464
 11  8 26  3  5 30.0000000  0 10G26G29G21G12G05G02G15G25G30G18
 -10934174.64847  -8504091.47745  21416195.7274                   21416194.5744
 -16698195.72348 -12996752.47446  20649709.3284                   20649708.0434
   6981262.60246   5452056.29943  24074797.0234                   24074795.0944
 -14946646.41446 -11621911.04144  23732991.7274                   23732991.1484
 -22113002.78547 -17209070.29545  21939526.6174                   21939525.2194
 -30407481.07847 -23665805.86344  22794328.1954                   22794325.0594
  -4317007.31247  -3347694.89345  21862719.9304                   21862718.6644
 -12504371.69547  -9722110.70745  22623403.2424                   22623404.9304
  -8036482.97746  -6236896.97744  22989188.0634                   22989188.1684
   9396266.60246   7337644.40343  23677065.6334                   23677064.5084
 11  8 26  3  6  0.0000000  0 10G26G29G21G12G05G02G15G25G30G18
 -11026349.18747  -8575915.76745  21398655.7114                   21398654.6724
 -16794227.73048 -13071582.60046  20631435.2114                   20631434.1764
   6875507.09846   5369649.50643  24054672.2034                   24054670.3634
 -14901248.07846 -11586535.72344  23741630.2894                   23741630.6684
 -22081846.31647 -17184792.53745  21945455.2034                   21945453.8714
 -30404506.03947 -23663487.67044  22794894.2344                   22794891.2114
  -4445015.48447  -3447441.48445  21838360.4064                   21838359.6644
 -12484685.38747  -9706770.73545  22627149.6174                   22627151.0394
  -8012927.78546  -6218542.30044  22993670.9614                   22993670.4454
   9271491.21946   7240416.93543  23653321.5864                   23653319.9064
 11  8 26  3  6 30.0000000  0 10G26G29G21G12G05G02G15G25G30G18
 -11117941.20347  -8647286.13145  21381225.7664                   21381224.9224
 -16889852.96548 -13146095.75346  20613238.2814                   20613237.1134
   6769709.44946   5287209.81743  24034540.0784                   24034538.5234
 -14855851.83646 -11551162.11343  23750269.1174                   23750269.4774
 -22050514.23447 -17160377.91245  21951417.5704                   21951416.2074
 -30401405.25047 -23661071.47744  22795484.1644                   22795481.0394
  -4572703.27047  -3546938.42545  21814062.5864                   21814061.1174
 -12464723.58247  -9691216.06645  22630948.2274                   22630949.4574
  -7989138.93046  -6200005.55544  22998197.3054                   22998197.2774
   9146948.45346   7143370.71443  23629622.0944                   23629620.4064
 11  8 26  3  7  0.0000000  0 10G26G29G21G12G05G02G15G25G30G18
 -11208951.15647  -8718202.95145  21363907.5554                   21363906.0514
 -16985072.30147 -13220292.61746  20595118.7664                   20595117.4024
   6663866.78547   5204735.10343  24014398.6254                   24014397.1484
 -14810463.62146 -11515794.73343  23758906.2274                   23758906.2934
 -22019011.77347 -17135830.55545  21957412.6334                   21957411.2774
 -30398180.93047 -23658559.01644  22796097.5314                   22796094.3364
  -4700070.60947  -3646185.65145  21789825.1024                   21789824.1334
 -12444492.34047  -9675451.47545  22634797.8444                   22634799.5744
  -7965122.73846  -6181291.63344  23002768.3204                   23002767.3094
   9022635.96146   7046503.92743  23605965.6484                   23605963.9884
 11  8 26  3  7 30.0000000  0 10G26G29G21G12G05G02G15G25G30G18
 -11299377.13347  -8788664.70945  21346699.7974                   21346698.7114
 -17079884.39847 -13294172.14846  20577076.5634                   20577075.1174
   6557977.82846   5122224.33743  23994248.1724                   23994246.6254
 -14765086.84846 -11480436.25444  23767541.2114                   23767540.9454
 -21987342.13347 -17111152.90245  21963439.2504                   21963437.2854
 -30394833.42247 -23655950.58844  22796734.4924                   22796731.5784
  -4827115.35247  -3745181.52045  21765648.9064                   21765648.2544
 -12423995.53547  -9659479.95045  22638698.2974                   22638699.7974
  -7940883.28546  -6162403.72344  23007380.3524                   23007380.0164
   8898553.77746   6949816.59843  23582353.7034                   23582352.0784
 11  8 26  3  8  0.0000000  0 10G26G29G21G12G05G02G15G25G30G18
 -11389215.32447  -8858668.49345  21329603.7274                   21329603.2194
 -17174285.50447 -13367731.44346  20559112.4224                   20559111.4614
   6452044.03546   5039678.58343  23974089.8914                   23974087.5434
 -14719722.99246 -11445087.85444  23776173.7424                   23776174.0634
 -21955505.53547 -17086345.16245  21969497.9064                   21969495.4184
 -30391360.58247 -23653244.47944  22797395.3984                   22797392.0704
  -4953832.92647  -3843922.46045  21741535.5944                   21741534.8554
 -12403234.54347  -9643302.56945  22642648.6174                   22642650.6764
  -7916422.01246  -6143343.00444  23012035.7894                   23012035.0274
   8774704.20746   6853310.54243  23558786.1094                   23558784.0354
 11  8 26  3  8 30.0000000  0 10G26G29G21G12G05G02G15G25G30G18
 -11478465.64847  -8928214.15045  21312620.1564                   21312619.4304
 -17268276.00447 -13440970.76846  20541226.6804                   20541225.3914
   6346062.77346   4957095.83643  23953922.2814                   23953920.1054
 -14674377.48046 -11409753.76243  23784802.8834                   23784803.3284
 -21923506.99647 -17061411.24445  21975585.7974                   21975584.7274
 -30387764.74246 -23650442.53944  22798080.1094                   22798076.5944
  -5080222.71147  -3942407.94445  21717484.5394                   21717483.5514
 -12382215.14847  -9626923.81745  22646648.6334                   22646650.3674
  -7891744.89846  -6124114.06244  23016730.7974                   23016731.0514
   8651085.30146   6756984.19543  23535261.8594                   23535259.8524
 11  8 26  3  9  0.0000000  0 10G26G29G21G12G05G02G15G25G30G18
 -11567124.21947  -8997298.71845  21295749.3134                   21295748.1134
 -17361851.98048 -13513887.09446  20523419.6804                   20523418.2664
   6240035.09846   4874476.99543  23933745.5164                   23933743.8914
 -14629051.60546 -11374434.90944  23793428.4144                   23793428.6414
 -21891347.64547 -17036351.99345  21981706.2664                   21981705.1094
 -30384043.69947 -23647543.01744  22798788.0704                   22798784.6994
  -5206280.63347  -4040634.86445  21693496.6024                   21693495.4534
 -12360938.76247  -9610344.82045  22650697.5944                   22650698.9924
  -7866853.55147  -6104718.21544  23021467.9774                   23021467.5124
   8527699.32846   6660839.38143  23511782.3834                   23511780.7234
 11  8 26  3  9 30.0000000  0 10G26G29G21G12G05G02G15G25G30G18
 -11655186.77047  -9065918.84345  21278991.0314                   21278990.3754
 -17455009.75048 -13586477.54746  20505692.6954                   20505691.1024
   6133962.32446   4791822.96343  23913561.3524                   23913558.5204
 -14583746.42246 -11339132.22943  23802049.8444                   23802049.3554
 -21859027.48847 -17011167.45045  21987856.6414                   21987854.7074
 -30380194.99646 -23644544.01744  22799520.2814                   22799516.7304
  -5332001.59847  -4138599.21345  21669572.3594                   21669571.7194
 -12339406.66847  -9593566.56045  22654794.6334                   22654796.7624
  -7841749.30946  -6085156.45744  23026245.3674                   23026244.7034
   8404549.09046   6564878.19643  23488347.7974                   23488345.6684
 11  8 26  3 10  0.0000000  0 10G26G29G21G12G05G02G15G25G30G18
 -11742651.24647  -9134072.95345  21262347.1954                   21262346.3244
 -17547747.06648 -13658740.36846  20488045.1414                   20488043.6054
   6027844.71146   4709134.04643  23893366.8444                   23893364.7194
 -14538464.93446 -11303847.98743  23810666.3594                   23810666.2814
 -21826549.18047 -16985859.68745  21994037.1724                   21994035.3244
 -30376218.26646 -23641445.29144  22800277.4774                   22800273.8874
  -5457382.94947  -4236298.92645  21645712.5784                   21645711.8404
 -12317622.13747  -9576591.61345  22658940.1804                   22658942.3204
  -7816435.55146  -6065431.46544  23031062.2114                   23031061.5904
   8281634.87146   6469100.98343  23464957.3204                   23464955.7114
 11  8 26  3 10 30.0000000  0 10G26G29G21G12G05G02G15G25G30G18
 -11829515.43747  -9201759.31445  21245817.7274                   21245816.3874
 -17640062.77048 -13730674.66746  20470477.7974                   20470476.7234
   5921681.10546   4626409.17943  23873165.1334                   23873162.3754
 -14493210.15646 -11268584.55943  23819277.6564                   23819277.1724
 -21793915.47347 -16960430.82645  22000247.1414                   22000245.2154
 -30372113.81646 -23638247.02644  22801058.0314                   22801054.5164
  -5582422.28147  -4333732.14345  21621918.7734                   21621917.6564
 -12295588.57447  -9559422.62044  22663133.5004                   22663134.8984
  -7790915.96146  -6045546.08243  23035918.3204                   23035917.9534
   8158956.74246   6373507.74543  23441611.9844                   23441610.8984
 11  8 26  3 11  0.0000000  0 10G26G29G21G12G05G02G15G25G30G18
 -10340353.60947  -8041373.43745  21529195.8284                   21529194.6454
 -16156530.36748 -12574675.36246  20752784.9534                   20752783.7114
   7390895.74646   5771251.83043  24152746.9454                   24152744.4414
 -12872565.75446 -10005744.80443  24127676.6724                   24127675.6054
 -20185708.66847 -15707282.65545  22306278.6564                   22306276.8484
 -28792460.37947 -22407348.23044  23101656.1884                   23101653.3094
  -4131691.50447  -3203292.53245  21897983.6954                   21897982.7814
 -10697889.13347  -8314462.00945  22967165.4534                   22967166.9534
  -6189773.73446  -4797902.79544  23340605.8524                   23340605.3524
   9611940.55546   7505703.00243  23718106.0944                   23718104.6294
 11  8 26  3 11 30.0000000  0 10G26G29G21G12G05G02G15G25G30G18
 -10426007.90247  -8108117.03645  21512896.3674                   21512895.1254
 -16247992.88748 -12645944.84446  20735379.9144                   20735378.9414
   7284642.79746   5688457.43443  24132527.6094                   24132525.2624
 -12827370.27346  -9970527.56643  24136277.2274                   24136276.5204
 -20152767.66047 -15681614.32645  22312547.1644                   22312545.4414
 -28788095.53546 -22403947.06944  23102486.4304                   23102483.7464
  -4256034.96947  -3300183.51345  21874322.1954                   21874320.9454
 -10675364.18447  -8296910.11845  22971451.8524                   22971453.2664
  -6163849.19546  -4777701.83143  23345538.7584                   23345538.2544
   9489740.09446   7410482.00643  23694851.8594                   23694850.4264
 11  8 26  3 12  0.0000000  0 10G26G29G21G12G05G02G15G25G30G18
 -10511055.06247  -8174387.51845  21496712.5784                   21496711.2464
 -16339026.90248 -12716880.42546  20718056.6804                   20718055.5594
   7178343.66846   5605626.95343  24112300.0084                   24112297.6054
 -12782209.78946  -9935337.67243  24144870.4774                   24144870.5514
 -20119677.66447 -15655829.92045  22318843.9144                   22318842.2234
 -28783600.67246 -22400444.59644  23103342.5164                   23103338.9304
  -4380027.18447  -3396800.77045  21850726.9774                   21850726.4804
 -10652599.30147  -8279171.25345  22975784.2814                   22975785.4924
  -6137728.27346  -4757347.91644  23350509.2194                   23350508.8834
   9367778.16846   7315446.82643  23671643.0234                   23671641.9384
 11  8 26  3 12 30.0000000  0 10G26G29G21G12G05G02G15G25G30G18
 -10595489.59047  -8240180.62045  21480645.2194                   21480643.7074
 -16429627.13348 -12787477.99746  20700816.5234                   20700814.7234
   7072001.42646   5522763.02243  24092063.0314                   24092060.9844
 -12737084.00446  -9900174.73443  24153458.4614                   24153457.8324
 -20086437.82847 -15629928.73645  22325169.1094                   22325167.5164
 -28778972.74646 -22396838.41844  23104223.1724                   23104219.7034
  -4503662.07447  -3493139.61345  21827200.0554                   21827198.9804
 -10629594.39847  -8261245.36745  22980161.4144                   22980163.2734
  -6111410.97346  -4736840.91644  23355517.3594                   23355517.0204
   9246058.68446   7220600.58343  23648481.0864                   23648479.6484
 11  8 26  3 13  0.0000000  0 10G26G29G21G12G05G02G15G25G30G18
 -10679309.22347  -8305494.59445  21464694.4614                   21464693.2234
 -16519791.41048 -12857735.85646  20683658.8674                   20683657.0634
   6965615.82846   5439865.20543  24071818.4534                   24071816.3164
 -12691995.77346  -9865041.08343  24162037.9774                   24162037.7894
 -20053050.32447 -15603912.48545  22331522.2734                   22331520.7074
 -28774210.93046 -22393127.92744  23105129.4064                   23105125.9184
  -4626936.87147  -3589197.86745  21803741.9924                   21803740.5354
 -10606352.58247  -8243134.87845  22984584.3674                   22984585.5394
  -6084900.44947  -4716183.38844  23360561.8364                   23360561.9384
   9124582.22746   7125943.68743  23625364.1564                   23625362.9654
